[[{"header":{"parameterUnit":"m.s-1","parameterCategory":1,"la1":31.0,"la2":29.5877,"lo1":-88.7671,"lo2":-86.6584,"dy":0.0162,"dx":0.0185,"nx":115,"ny":88,"refTime":"2023-03-10T06:00:00:Z","depth":0,"parameterNumber":2,"parameterNumberName":"U-component_of_WINDS"},"data":[0.0,0.0,0.0,0.0,0.0,0.0,0.0,0.0,0.0,0.0,0.0,0.0,0.0,0.0,0.0,0.0,0.0,0.0,0.0,0.0,0.0,0.0,0.0,0.0,0.0,0.0,0.0,0.0,0.0,0.0,0.0,0.0,0.0,0.0,0.0,0.0,0.0,0.0,0.0,0.0,0.0,0.0,0.0,0.0,0.0,0.0,0.0,0.0,0.0,0.0,0.0,0.0,0.0,0.0,0.0,0.0,0.0,0.0,0.0,0.0,0.0,0.0,0.0,0.0,0.0,0.0,0.0,0.0,0.0,0.0,0.0,0.0,0.0,0.0,0.0,0.0,0.0,0.0,0.0,0.0,0.0,0.0,0.0,0.0,0.0,0.0,0.0,0.0,0.0,0.0,0.0,0.0,0.0,0.0,0.0,0.0,0.0,0.0,0.0,0.0,0.0,0.0,0.0,0.0,0.0,0.0,0.0,0.0,0.0,0.0,0.0,0.0,0.0,0.0,0.0,0.0,0.0,0.0,0.0,0.0,0.0,0.0,0.0,0.0,0.0,0.0,0.0,0.0,0.0,0.0,0.0,0.0,0.0,0.0,0.0,0.0,0.0,0.0,0.0,0.0,0.0,0.0,0.0,0.0,0.0,0.0,0.0,0.0,0.0,0.0,0.0,0.0,0.0,0.0,0.0,0.0,0.0,0.0,0.0,0.0,0.0,0.0,0.0,0.0,0.0,0.0,0.0,0.0,0.0,0.0,0.0,0.0,0.0,0.0,0.0,0.0,0.0,0.0,0.0,0.0,0.0,0.0,0.0,0.0,0.0,0.0,0.0,0.0,0.0,0.0,0.0,0.0,0.0,0.0,0.0,0.0,0.0,0.0,0.0,0.0,0.0,0.0,0.0,0.0,0.0,0.0,0.0,0.0,0.0,0.0,0.0,0.0,0.0,0.0,0.0,0.0,0.0,0.0,0.0,0.0,0.0,0.0,0.0,0.0,0.0,0.0,0.0,0.0,0.0,0.0,0.0,0.0,0.0,0.0,0.0,0.0,0.0,0.0,0.0,0.0,0.0,0.0,0.0,0.0,0.0,0.0,0.0,0.0,0.0,0.0,0.0,0.0,0.0,0.0,0.0,0.0,0.0,0.0,0.0,0.0,0.0,0.0,0.0,0.0,0.0,0.0,0.0,0.0,0.0,0.0,0.0,0.0,0.0,0.0,0.0,0.0,0.0,0.0,0.0,0.0,0.0,0.0,0.0,0.0,0.0,0.0,0.0,0.0,0.0,0.0,0.0,0.0,0.0,0.0,0.0,0.0,0.0,0.0,0.0,0.0,0.0,0.0,0.0,0.0,0.0,0.0,0.0,0.0,0.0,0.0,0.0,0.0,0.0,0.0,0.0,0.0,0.0,0.0,0.0,0.0,0.0,0.0,0.0,0.0,0.0,0.0,0.0,0.0,0.0,0.0,0.0,0.0,0.0,0.0,0.0,0.0,0.0,0.0,0.0,0.0,0.0,0.0,0.0,0.0,0.0,0.0,0.0,0.0,0.0,0.0,0.0,0.0,0.0,0.0,0.0,0.0,0.0,0.0,0.0,0.0,0.0,0.0,0.0,0.0,0.0,0.0,0.0,0.0,0.0,0.0,0.0,0.0,0.0,0.0,0.0,0.0,0.0,0.0,0.0,0.0,0.0,0.0,0.0,0.0,0.0,0.0,0.0,0.0,0.0,0.0,0.0,0.0,0.0,0.0,0.0,0.0,0.0,0.0,0.0,0.0,0.0,0.0,0.0,0.0,0.0,0.0,0.0,0.0,0.0,0.0,0.0,0.0,0.0,0.0,0.0,0.0,0.0,0.0,0.0,0.0,0.0,0.0,0.0,0.0,0.0,0.0,0.0,0.0,0.0,0.0,0.0,0.0,0.0,0.0,0.0,0.0,0.0,0.0,0.0,0.0,0.0,0.0,0.0,0.0,0.0,0.0,0.0,0.0,0.0,0.0,0.0,0.0,0.0,0.0,0.0,0.0,0.0,0.0,0.0,0.0,0.0,0.0,0.0,0.0,0.0,0.0,0.0,0.0,0.0,0.0,0.0,0.0,0.0,0.0,0.0,0.0,0.0,0.0,0.0,0.0,0.0,0.0,0.0,0.0,0.0,0.0,0.0,0.0,0.0,0.0,0.0,0.0,0.0,0.0,0.0,0.0,0.0,0.0,0.0,0.0,0.0,0.0,0.0,0.0,0.0,0.0,0.0,0.0,0.0,0.0,0.0,0.0,0.0,0.0,0.0,0.0,0.0,0.0,0.0,0.0,0.0,0.0,0.0,0.0,0.0,0.0,0.0,0.0,0.0,0.0,0.0,0.0,0.0,0.0,0.0,0.0,0.0,0.0,0.0,0.0,0.0,0.0,0.0,0.0,0.0,0.0,0.0,0.0,0.0,0.0,0.0,0.0,0.0,0.0,0.0,0.0,0.0,0.0,0.0,0.0,0.0,0.0,0.0,0.0,0.0,0.0,0.0,0.0,0.0,0.0,0.0,0.0,0.0,0.0,0.0,0.0,0.0,0.0,0.0,0.0,0.0,0.0,0.0,0.0,0.0,0.0,0.0,0.0,0.0,0.0,0.0,0.0,0.0,0.0,0.0,0.0,0.0,0.0,0.0,0.0,0.0,0.0,0.0,0.0,0.0,0.0,0.0,0.0,0.0,0.0,0.0,0.0,0.0,0.0,0.0,0.0,0.0,0.0,0.0,0.0,0.0,0.0,0.0,0.0,0.0,0.0,0.0,0.0,0.0,0.0,0.0,0.0,0.0,0.0,0.0,0.0,0.0,0.0,0.0,0.0,0.0,0.0,0.0,0.0,0.0,0.0,0.0,0.0,0.0,0.0,0.0,0.0,0.0,0.0,0.0,0.0,0.0,0.0,0.0,0.0,0.0,0.0,0.0,0.0,0.0,0.0,0.0,0.0,0.0,0.0,0.0,0.0,0.0,0.0,0.0,0.0,0.0,0.0,0.0,0.0,0.0,0.0,0.0,0.0,0.0,0.0,0.0,0.0,0.0,0.0,0.0,0.0,0.0,0.0,0.0,0.0,0.0,0.0,0.0,0.0,0.0,0.0,0.0,0.0,0.0,0.0,0.0,0.0,0.0,0.0,0.0,0.0,0.0,0.0,0.0,0.0,0.0,0.0,0.0,0.0,0.0,0.0,0.0,0.0,0.0,0.0,0.0,0.0,0.0,0.0,0.0,0.0,0.0,0.0,0.0,0.0,0.0,0.0,0.0,0.0,0.0,0.0,0.0,0.0,0.0,0.0,0.0,0.0,0.0,0.0,0.0,0.0,0.0,0.0,0.0,0.0,0.0,0.0,0.0,0.0,0.0,0.0,0.0,0.0,0.0,0.0,0.0,0.0,0.0,0.0,0.0,0.0,0.0,0.0,0.0,0.0,0.0,0.0,0.0,0.0,0.0,0.0,0.0,0.0,0.0,0.0,0.0,0.0,0.0,0.0,0.0,0.0,0.0,0.0,0.0,0.0,0.0,0.0,0.0,0.0,0.0,0.0,0.0,0.0,0.0,0.0,0.0,0.0,0.0,0.0,0.0,0.0,0.0,0.0,0.0,0.0,0.0,0.0,0.0,0.0,0.0,0.0,0.0,0.0,0.0,0.0,0.0,0.0,0.0,0.0,0.0,0.0,0.0,0.0,0.0,0.0,0.0,0.0,0.0,0.0,0.0,0.0,0.0,0.0,0.0,0.0,0.0,0.0,0.0,0.0,0.0,0.0,0.0,0.0,0.0,0.0,0.0,0.0,0.0,0.0,0.0,0.0,0.0,0.0,0.0,0.0,0.0,0.0,0.0,0.0,0.0,0.0,0.0,0.0,0.0,0.0,0.0,0.0,0.0,0.0,0.0,0.0,0.0,0.0,0.0,0.0,0.0,0.0,0.0,0.0,0.0,0.0,0.0,0.0,0.0,0.0,0.0,0.0,0.0,0.0,0.0,0.0,0.0,0.0,0.0,0.0,0.0,0.0,0.0,0.0,0.0,0.0,0.0,0.0,0.0,0.0,0.0,0.0,0.0,0.0,0.0,0.0,0.0,0.0,0.0,0.0,0.0,0.0,0.0,0.0,0.0,0.0,0.0,0.0,0.0,0.0,0.0,0.0,0.0,0.0,0.0,0.0,0.0,0.0,0.0,0.0,0.0,0.0,0.0,0.0,0.0,0.0,0.0,0.0,0.0,0.0,0.0,0.0,0.0,0.0,0.0,0.0,0.0,0.0,0.0,0.0,3.891,0.0,0.0,0.0,0.0,0.0,0.0,0.0,0.0,0.0,0.0,0.0,0.0,0.0,0.0,0.0,0.0,0.0,0.0,0.0,0.0,0.0,0.0,0.0,0.0,0.0,0.0,0.0,0.0,0.0,0.0,0.0,0.0,0.0,0.0,0.0,0.0,0.0,0.0,0.0,0.0,0.0,0.0,0.0,0.0,0.0,0.0,0.0,0.0,0.0,0.0,0.0,0.0,0.0,0.0,0.0,0.0,0.0,0.0,0.0,0.0,0.0,0.0,0.0,0.0,0.0,0.0,0.0,0.0,0.0,0.0,0.0,0.0,0.0,0.0,0.0,0.0,0.0,0.0,0.0,0.0,0.0,0.0,0.0,0.0,0.0,0.0,0.0,0.0,0.0,0.0,0.0,0.0,0.0,0.0,0.0,0.0,0.0,0.0,0.0,0.0,0.0,0.0,0.0,0.0,0.0,0.0,0.0,0.0,0.0,0.0,3.9101,3.9101,3.9101,3.9064,3.8968,0.0,0.0,0.0,0.0,0.0,0.0,0.0,0.0,0.0,0.0,0.0,0.0,0.0,0.0,0.0,0.0,0.0,0.0,0.0,0.0,0.0,0.0,0.0,0.0,0.0,0.0,0.0,0.0,0.0,0.0,0.0,0.0,0.0,0.0,0.0,0.0,0.0,0.0,0.0,0.0,0.0,0.0,0.0,0.0,0.0,0.0,0.0,0.0,0.0,0.0,0.0,0.0,0.0,0.0,0.0,0.0,0.0,0.0,0.0,0.0,0.0,0.0,0.0,0.0,0.0,0.0,0.0,0.0,0.0,0.0,0.0,0.0,0.0,0.0,0.0,0.0,0.0,0.0,0.0,0.0,0.0,0.0,0.0,0.0,0.0,0.0,0.0,0.0,0.0,0.0,0.0,0.0,0.0,0.0,0.0,0.0,0.0,0.0,0.0,0.0,0.0,0.0,0.0,0.0,0.0,0.0,0.0,0.0,0.0,0.0,0.0,0.0,3.9101,3.9045,3.8997,0.0,0.0,0.0,0.0,0.0,0.0,0.0,0.0,0.0,0.0,0.0,0.0,0.0,0.0,0.0,0.0,0.0,0.0,0.0,0.0,0.0,0.0,0.0,0.0,0.0,0.0,0.0,0.0,0.0,0.0,0.0,0.0,0.0,0.0,0.0,0.0,0.0,0.0,0.0,0.0,0.0,0.0,0.0,0.0,0.0,0.0,0.0,0.0,0.0,0.0,0.0,0.0,0.0,0.0,0.0,0.0,0.0,0.0,0.0,0.0,0.0,0.0,0.0,0.0,0.0,0.0,0.0,0.0,0.0,0.0,0.0,0.0,0.0,0.0,0.0,0.0,0.0,0.0,0.0,0.0,0.0,0.0,0.0,0.0,0.0,0.0,0.0,0.0,0.0,0.0,0.0,0.0,0.0,0.0,0.0,0.0,0.0,0.0,0.0,0.0,0.0,0.0,0.0,0.0,0.0,0.0,0.0,0.0,0.0,0.0,3.9183,3.9183,3.9129,0.0,3.8892,0.0,0.0,0.0,0.0,0.0,0.0,0.0,0.0,0.0,0.0,0.0,0.0,0.0,0.0,0.0,0.0,0.0,0.0,0.0,0.0,0.0,0.0,0.0,0.0,0.0,0.0,0.0,0.0,0.0,0.0,0.0,0.0,0.0,0.0,0.0,0.0,0.0,0.0,0.0,0.0,0.0,0.0,0.0,0.0,0.0,0.0,0.0,0.0,0.0,0.0,0.0,0.0,0.0,0.0,0.0,0.0,0.0,0.0,0.0,0.0,0.0,0.0,0.0,0.0,0.0,0.0,0.0,0.0,0.0,0.0,0.0,0.0,0.0,0.0,0.0,0.0,0.0,0.0,0.0,0.0,0.0,0.0,0.0,0.0,0.0,0.0,0.0,0.0,0.0,0.0,0.0,0.0,0.0,0.0,0.0,0.0,0.0,0.0,0.0,0.0,0.0,0.0,0.0,0.0,0.0,0.0,0.0,0.0,0.0,0.0,3.9301,3.9192,3.9129,3.9036,0.0,0.0,0.0,0.0,0.0,0.0,0.0,0.0,0.0,0.0,0.0,0.0,0.0,0.0,0.0,0.0,0.0,0.0,0.0,0.0,0.0,0.0,0.0,0.0,0.0,0.0,0.0,0.0,0.0,0.0,0.0,0.0,0.0,0.0,0.0,0.0,0.0,0.0,0.0,0.0,0.0,0.0,0.0,0.0,0.0,0.0,0.0,0.0,0.0,0.0,0.0,0.0,0.0,0.0,0.0,0.0,0.0,0.0,0.0,0.0,0.0,0.0,0.0,0.0,0.0,0.0,0.0,0.0,0.0,0.0,0.0,0.0,0.0,0.0,0.0,0.0,0.0,0.0,0.0,0.0,0.0,0.0,0.0,0.0,0.0,0.0,0.0,0.0,0.0,0.0,0.0,0.0,0.0,0.0,0.0,0.0,0.0,0.0,0.0,0.0,0.0,0.0,0.0,0.0,0.0,0.0,0.0,0.0,0.0,0.0,3.9444,3.9373,3.921,3.9129,3.9045,3.891,0.0,0.0,0.0,0.0,0.0,0.0,0.0,0.0,0.0,0.0,0.0,0.0,0.0,0.0,0.0,0.0,0.0,0.0,0.0,0.0,0.0,0.0,0.0,0.0,0.0,0.0,0.0,0.0,0.0,0.0,0.0,0.0,0.0,0.0,0.0,0.0,0.0,0.0,0.0,0.0,0.0,0.0,0.0,0.0,0.0,0.0,0.0,0.0,0.0,0.0,0.0,0.0,0.0,0.0,0.0,0.0,0.0,0.0,0.0,0.0,0.0,0.0,0.0,0.0,0.0,0.0,0.0,0.0,0.0,0.0,0.0,0.0,0.0,0.0,0.0,0.0,0.0,0.0,0.0,0.0,0.0,0.0,0.0,0.0,0.0,0.0,0.0,0.0,0.0,0.0,0.0,0.0,0.0,0.0,0.0,0.0,0.0,0.0,0.0,0.0,0.0,0.0,0.0,0.0,0.0,0.0,0.0,0.0,3.9577,3.952,3.9399,3.921,3.9129,3.9036,0.0,0.0,0.0,0.0,0.0,0.0,0.0,0.0,0.0,0.0,0.0,0.0,0.0,0.0,0.0,0.0,0.0,0.0,0.0,0.0,0.0,0.0,0.0,0.0,0.0,0.0,0.0,0.0,0.0,0.0,0.0,0.0,0.0,0.0,0.0,0.0,0.0,0.0,0.0,0.0,0.0,0.0,0.0,0.0,0.0,0.0,0.0,0.0,0.0,0.0,0.0,0.0,0.0,0.0,0.0,0.0,0.0,0.0,0.0,0.0,0.0,0.0,0.0,0.0,0.0,0.0,0.0,0.0,0.0,0.0,0.0,0.0,0.0,0.0,0.0,0.0,0.0,0.0,0.0,0.0,0.0,0.0,0.0,0.0,0.0,0.0,0.0,0.0,0.0,0.0,0.0,0.0,0.0,0.0,0.0,0.0,0.0,0.0,0.0,0.0,0.0,0.0,0.0,0.0,0.0,0.0,0.0,0.0,0.0,3.962,3.9546,3.9425,3.9328,3.9229,3.9073,0.0,0.0,0.0,0.0,0.0,0.0,0.0,0.0,0.0,0.0,0.0,0.0,0.0,0.0,0.0,0.0,0.0,0.0,0.0,0.0,0.0,0.0,0.0,0.0,0.0,0.0,0.0,0.0,0.0,0.0,0.0,0.0,0.0,0.0,0.0,0.0,0.0,0.0,0.0,0.0,0.0,0.0,0.0,0.0,0.0,0.0,0.0,0.0,0.0,0.0,0.0,0.0,0.0,0.0,0.0,0.0,0.0,0.0,0.0,0.0,0.0,0.0,0.0,0.0,0.0,0.0,0.0,0.0,0.0,0.0,0.0,0.0,0.0,0.0,0.0,0.0,0.0,0.0,0.0,0.0,0.0,0.0,0.0,0.0,0.0,0.0,0.0,0.0,0.0,0.0,0.0,0.0,0.0,0.0,0.0,0.0,0.0,0.0,0.0,0.0,0.0,0.0,0.0,0.0,0.0,0.0,0.0,0.0,0.0,3.9971,0.0,4.0255,4.0157,3.9815,3.951,0.0,0.0,0.0,0.0,0.0,0.0,0.0,0.0,0.0,0.0,0.0,0.0,0.0,0.0,0.0,0.0,0.0,0.0,0.0,0.0,0.0,0.0,0.0,0.0,0.0,0.0,0.0,0.0,0.0,0.0,0.0,0.0,0.0,0.0,0.0,0.0,0.0,0.0,0.0,0.0,0.0,0.0,0.0,0.0,0.0,0.0,0.0,0.0,0.0,0.0,0.0,0.0,0.0,0.0,0.0,0.0,0.0,0.0,0.0,0.0,0.0,0.0,0.0,0.0,0.0,0.0,0.0,0.0,0.0,0.0,0.0,0.0,0.0,0.0,0.0,0.0,0.0,0.0,0.0,0.0,0.0,0.0,0.0,0.0,0.0,0.0,0.0,0.0,0.0,0.0,0.0,0.0,0.0,0.0,0.0,0.0,0.0,0.0,0.0,0.0,0.0,0.0,0.0,0.0,0.0,0.0,0.0,0.0,4.0046,4.0797,4.1488,4.1771,4.1764,4.0943,4.0393,0.0,0.0,0.0,0.0,0.0,0.0,0.0,0.0,0.0,0.0,0.0,0.0,0.0,0.0,0.0,0.0,0.0,0.0,0.0,0.0,0.0,0.0,0.0,0.0,0.0,0.0,0.0,0.0,0.0,0.0,0.0,0.0,0.0,0.0,0.0,0.0,0.0,0.0,0.0,0.0,0.0,0.0,0.0,0.0,0.0,0.0,0.0,0.0,0.0,0.0,0.0,0.0,0.0,0.0,0.0,0.0,0.0,0.0,0.0,0.0,0.0,0.0,0.0,0.0,0.0,0.0,0.0,0.0,0.0,0.0,0.0,0.0,0.0,0.0,0.0,0.0,0.0,0.0,0.0,0.0,0.0,0.0,0.0,0.0,0.0,0.0,0.0,0.0,0.0,0.0,0.0,0.0,0.0,0.0,0.0,0.0,0.0,0.0,0.0,0.0,0.0,0.0,0.0,0.0,0.0,0.0,0.0,0.0,0.0,4.1661,4.1841,4.1911,4.1782,4.153,4.0979,0.0,0.0,0.0,0.0,0.0,0.0,0.0,0.0,0.0,0.0,0.0,0.0,0.0,0.0,0.0,0.0,0.0,0.0,0.0,0.0,0.0,0.0,0.0,0.0,0.0,0.0,0.0,0.0,0.0,0.0,0.0,0.0,0.0,0.0,0.0,0.0,0.0,0.0,0.0,0.0,0.0,0.0,0.0,0.0,0.0,0.0,0.0,0.0,0.0,0.0,0.0,0.0,0.0,0.0,0.0,0.0,0.0,0.0,0.0,0.0,0.0,0.0,0.0,0.0,0.0,0.0,0.0,0.0,0.0,0.0,0.0,0.0,0.0,0.0,0.0,0.0,0.0,0.0,0.0,0.0,0.0,0.0,0.0,0.0,0.0,0.0,0.0,0.0,0.0,0.0,0.0,0.0,0.0,0.0,0.0,0.0,0.0,0.0,0.0,0.0,0.0,0.0,0.0,0.0,0.0,0.0,0.0,0.0,0.0,4.2929,4.2929,4.2875,4.2716,4.2417,4.1715,4.064,0.0,0.0,0.0,0.0,0.0,0.0,0.0,0.0,0.0,0.0,0.0,0.0,0.0,0.0,0.0,0.0,0.0,0.0,0.0,0.0,0.0,0.0,0.0,0.0,0.0,0.0,0.0,0.0,0.0,0.0,0.0,0.0,0.0,0.0,0.0,0.0,0.0,0.0,0.0,0.0,0.0,0.0,0.0,0.0,0.0,0.0,0.0,0.0,0.0,0.0,0.0,0.0,0.0,0.0,0.0,0.0,0.0,0.0,0.0,0.0,0.0,0.0,0.0,0.0,0.0,0.0,0.0,0.0,0.0,0.0,0.0,0.0,0.0,0.0,0.0,0.0,0.0,0.0,0.0,0.0,0.0,0.0,0.0,0.0,0.0,0.0,0.0,0.0,0.0,0.0,0.0,0.0,0.0,0.0,0.0,0.0,0.0,0.0,0.0,0.0,0.0,0.0,0.0,0.0,0.0,0.0,0.0,0.0,4.4543,4.4543,4.4468,4.4277,4.3482,4.2552,0.0,0.0,0.0,0.0,0.0,0.0,0.0,0.0,0.0,0.0,0.0,0.0,0.0,0.0,0.0,0.0,0.0,0.0,0.0,0.0,0.0,0.0,0.0,0.0,0.0,0.0,0.0,0.0,0.0,0.0,0.0,0.0,0.0,0.0,0.0,0.0,0.0,0.0,0.0,0.0,0.0,0.0,0.0,0.0,0.0,0.0,0.0,0.0,0.0,0.0,0.0,0.0,0.0,0.0,0.0,0.0,0.0,0.0,0.0,0.0,0.0,0.0,0.0,0.0,0.0,0.0,0.0,0.0,0.0,0.0,0.0,0.0,0.0,0.0,0.0,0.0,0.0,0.0,0.0,0.0,0.0,0.0,0.0,0.0,0.0,0.0,0.0,0.0,0.0,0.0,0.0,0.0,0.0,0.0,0.0,0.0,0.0,0.0,0.0,0.0,0.0,0.0,0.0,0.0,0.0,0.0,0.0,0.0,0.0,4.5204,4.5241,4.4942,4.4304,4.405,4.3367,0.0,0.0,0.0,0.0,0.0,0.0,0.0,0.0,0.0,0.0,0.0,0.0,0.0,0.0,0.0,0.0,0.0,0.0,0.0,0.0,0.0,0.0,0.0,0.0,0.0,0.0,0.0,0.0,0.0,0.0,0.0,0.0,0.0,0.0,0.0,0.0,0.0,0.0,0.0,0.0,0.0,0.0,0.0,0.0,0.0,0.0,0.0,0.0,0.0,0.0,0.0,0.0,0.0,0.0,0.0,0.0,0.0,0.0,0.0,0.0,0.0,0.0,0.0,0.0,0.0,0.0,0.0,0.0,0.0,0.0,0.0,0.0,0.0,0.0,0.0,0.0,0.0,0.0,0.0,0.0,0.0,0.0,0.0,0.0,0.0,0.0,0.0,0.0,0.0,0.0,0.0,0.0,0.0,0.0,0.0,0.0,0.0,0.0,0.0,0.0,0.0,0.0,0.0,0.0,0.0,0.0,0.0,0.0,4.5002,4.5499,4.5805,4.5736,4.5301,4.4904,4.4055,0.0,0.0,0.0,0.0,0.0,0.0,0.0,0.0,0.0,0.0,0.0,0.0,0.0,0.0,0.0,0.0,0.0,0.0,0.0,0.0,0.0,0.0,0.0,0.0,0.0,0.0,0.0,0.0,0.0,0.0,0.0,0.0,0.0,0.0,0.0,0.0,0.0,0.0,0.0,0.0,0.0,0.0,0.0,0.0,0.0,0.0,0.0,0.0,0.0,0.0,0.0,0.0,0.0,0.0,0.0,0.0,0.0,0.0,0.0,0.0,0.0,0.0,0.0,0.0,0.0,0.0,0.0,0.0,0.0,0.0,0.0,0.0,0.0,0.0,0.0,0.0,0.0,0.0,0.0,0.0,0.0,0.0,0.0,0.0,0.0,0.0,0.0,0.0,0.0,0.0,0.0,0.0,0.0,0.0,0.0,0.0,0.0,0.0,0.0,0.0,0.0,0.0,0.0,0.0,0.0,0.0,0.0,0.0,4.5482,4.5599,4.6339,4.6685,4.6666,4.586,4.4581,0.0,0.0,0.0,0.0,0.0,0.0,0.0,0.0,0.0,0.0,0.0,0.0,0.0,0.0,0.0,0.0,0.0,0.0,0.0,0.0,0.0,0.0,0.0,0.0,0.0,0.0,0.0,0.0,0.0,0.0,0.0,0.0,0.0,0.0,0.0,0.0,0.0,0.0,0.0,0.0,0.0,0.0,0.0,0.0,0.0,0.0,0.0,0.0,0.0,0.0,0.0,0.0,0.0,0.0,0.0,0.0,0.0,0.0,0.0,0.0,0.0,0.0,0.0,0.0,0.0,0.0,0.0,0.0,0.0,0.0,0.0,0.0,0.0,0.0,0.0,0.0,0.0,0.0,0.0,0.0,0.0,0.0,0.0,0.0,0.0,0.0,0.0,0.0,0.0,0.0,0.0,0.0,0.0,0.0,0.0,0.0,0.0,0.0,0.0,0.0,0.0,0.0,0.0,0.0,0.0,0.0,0.0,0.0,4.5616,4.628,4.7066,4.7456,4.7456,4.6081,4.5055,0.0,0.0,0.0,0.0,0.0,0.0,0.0,0.0,0.0,0.0,0.0,0.0,0.0,0.0,0.0,0.0,0.0,0.0,0.0,0.0,0.0,0.0,0.0,0.0,0.0,0.0,0.0,0.0,0.0,0.0,0.0,0.0,0.0,0.0,0.0,0.0,0.0,0.0,0.0,0.0,0.0,0.0,0.0,0.0,0.0,0.0,0.0,0.0,3.6251,0.0,0.0,0.0,0.0,0.0,0.0,0.0,0.0,0.0,0.0,0.0,0.0,0.0,0.0,0.0,0.0,0.0,0.0,0.0,0.0,0.0,0.0,0.0,0.0,0.0,0.0,0.0,0.0,0.0,0.0,0.0,0.0,0.0,0.0,0.0,0.0,0.0,0.0,0.0,0.0,0.0,0.0,0.0,0.0,0.0,0.0,0.0,0.0,0.0,0.0,0.0,0.0,0.0,0.0,0.0,0.0,0.0,0.0,0.0,4.5964,4.6409,4.7612,4.8277,4.8221,4.6698,4.5611,0.0,0.0,0.0,0.0,0.0,0.0,0.0,0.0,0.0,0.0,0.0,0.0,0.0,0.0,0.0,0.0,0.0,0.0,0.0,0.0,0.0,0.0,0.0,0.0,0.0,0.0,0.0,0.0,0.0,0.0,0.0,0.0,0.0,0.0,0.0,0.0,0.0,0.0,0.0,0.0,0.0,0.0,0.0,0.0,0.0,0.0,0.0,0.0,0.0,0.0,0.0,0.0,0.0,0.0,0.0,0.0,0.0,0.0,0.0,0.0,0.0,0.0,0.0,0.0,0.0,0.0,0.0,0.0,0.0,0.0,0.0,0.0,0.0,0.0,0.0,0.0,0.0,0.0,0.0,0.0,0.0,0.0,0.0,0.0,0.0,0.0,0.0,0.0,0.0,0.0,0.0,0.0,0.0,0.0,0.0,0.0,0.0,0.0,0.0,0.0,0.0,0.0,0.0,0.0,0.0,0.0,0.0,4.5423,4.6305,4.636,4.7986,4.8834,4.8704,4.7274,4.6057,4.4986,0.0,0.0,0.0,0.0,0.0,0.0,0.0,0.0,0.0,0.0,0.0,0.0,0.0,0.0,0.0,0.0,0.0,0.0,0.0,0.0,0.0,0.0,0.0,0.0,0.0,0.0,0.0,0.0,0.0,0.0,0.0,0.0,0.0,0.0,0.0,0.0,0.0,0.0,3.4896,3.6046,0.0,0.0,0.0,0.0,0.0,0.0,0.0,0.0,3.5966,0.0,0.0,0.0,0.0,0.0,0.0,0.0,0.0,0.0,0.0,0.0,0.0,0.0,0.0,0.0,0.0,0.0,0.0,0.0,0.0,0.0,0.0,0.0,0.0,0.0,0.0,0.0,0.0,0.0,0.0,0.0,0.0,0.0,0.0,0.0,0.0,0.0,0.0,0.0,0.0,0.0,0.0,0.0,0.0,0.0,0.0,0.0,0.0,0.0,0.0,0.0,0.0,0.0,0.0,0.0,0.0,4.3615,4.534,4.6237,4.6323,4.797,4.8524,4.7906,4.6995,4.6005,4.4967,0.0,0.0,0.0,0.0,0.0,0.0,0.0,0.0,0.0,0.0,0.0,0.0,0.0,0.0,0.0,0.0,0.0,0.0,0.0,0.0,0.0,0.0,0.0,0.0,0.0,0.0,0.0,0.0,0.0,0.0,0.0,0.0,0.0,0.0,0.0,0.0,0.0,0.0,0.0,3.651,3.6544,0.0,0.0,0.0,0.0,0.0,0.0,0.0,0.0,3.5639,0.0,0.0,0.0,0.0,0.0,0.0,0.0,0.0,0.0,0.0,0.0,0.0,0.0,0.0,0.0,0.0,0.0,0.0,0.0,0.0,0.0,0.0,0.0,0.0,0.0,0.0,0.0,0.0,0.0,0.0,0.0,0.0,0.0,0.0,0.0,0.0,0.0,0.0,0.0,0.0,0.0,0.0,0.0,0.0,0.0,0.0,0.0,0.0,0.0,0.0,0.0,0.0,0.0,0.0,0.0,4.3479,4.4849,4.5764,4.6205,4.7492,4.8007,4.7652,4.6854,4.5953,0.0,0.0,0.0,0.0,0.0,0.0,0.0,0.0,0.0,0.0,0.0,0.0,0.0,0.0,0.0,0.0,0.0,0.0,0.0,0.0,0.0,0.0,0.0,0.0,0.0,0.0,0.0,0.0,0.0,0.0,0.0,0.0,0.0,0.0,0.0,0.0,0.0,0.0,0.0,0.0,3.6585,3.6502,3.6502,0.0,0.0,0.0,0.0,0.0,0.0,3.5938,3.5458,0.0,0.0,0.0,0.0,0.0,0.0,0.0,0.0,0.0,0.0,0.0,0.0,0.0,0.0,0.0,0.0,0.0,0.0,0.0,0.0,0.0,0.0,0.0,0.0,0.0,0.0,0.0,0.0,0.0,0.0,0.0,0.0,0.0,0.0,0.0,0.0,0.0,0.0,0.0,0.0,0.0,0.0,0.0,0.0,0.0,0.0,0.0,0.0,0.0,0.0,0.0,0.0,0.0,0.0,0.0,4.312,4.425,4.5164,4.5843,4.6777,4.7233,4.7048,4.6382,4.5552,0.0,0.0,0.0,0.0,0.0,0.0,0.0,0.0,0.0,0.0,0.0,0.0,0.0,0.0,0.0,0.0,0.0,0.0,0.0,0.0,0.0,0.0,0.0,0.0,0.0,0.0,0.0,0.0,0.0,0.0,0.0,0.0,0.0,0.0,0.0,0.0,0.0,0.0,0.0,0.0,0.0,3.6444,3.6444,3.6498,0.0,0.0,0.0,0.0,3.6683,3.611,0.0,0.0,0.0,0.0,0.0,0.0,0.0,0.0,0.0,0.0,0.0,0.0,0.0,0.0,0.0,0.0,0.0,0.0,0.0,0.0,0.0,0.0,0.0,0.0,0.0,0.0,0.0,0.0,0.0,0.0,0.0,0.0,0.0,0.0,0.0,0.0,0.0,0.0,0.0,0.0,0.0,0.0,0.0,0.0,0.0,0.0,0.0,0.0,0.0,0.0,0.0,0.0,0.0,0.0,0.0,0.0,4.2368,4.3869,4.4765,4.507,4.5842,4.5969,4.53,4.5189,4.438,0.0,0.0,0.0,0.0,0.0,0.0,0.0,0.0,0.0,0.0,0.0,0.0,0.0,0.0,0.0,0.0,0.0,0.0,0.0,0.0,0.0,0.0,0.0,0.0,0.0,0.0,0.0,0.0,0.0,0.0,0.0,0.0,0.0,0.0,0.0,0.0,0.0,0.0,0.0,0.0,0.0,3.6301,3.6343,3.6818,3.7229,0.0,0.0,3.7505,3.6806,3.6468,0.0,0.0,0.0,0.0,0.0,0.0,0.0,0.0,0.0,0.0,0.0,0.0,0.0,0.0,0.0,0.0,0.0,0.0,0.0,0.0,0.0,0.0,0.0,0.0,0.0,0.0,0.0,0.0,0.0,0.0,0.0,0.0,0.0,0.0,0.0,0.0,0.0,0.0,0.0,0.0,0.0,0.0,0.0,0.0,0.0,0.0,0.0,0.0,0.0,0.0,0.0,0.0,0.0,0.0,0.0,4.1158,4.2029,4.3286,4.4162,4.471,4.5165,4.5236,4.4884,4.4936,4.4128,0.0,0.0,0.0,0.0,0.0,0.0,0.0,0.0,0.0,0.0,0.0,0.0,0.0,0.0,0.0,0.0,0.0,0.0,0.0,0.0,0.0,0.0,0.0,0.0,0.0,0.0,0.0,0.0,0.0,0.0,0.0,0.0,0.0,0.0,0.0,0.0,0.0,0.0,0.0,0.0,0.0,0.0,3.6251,3.6861,0.0,0.0,0.0,3.7872,3.7797,0.0,0.0,0.0,0.0,0.0,0.0,0.0,0.0,0.0,0.0,0.0,0.0,0.0,0.0,0.0,0.0,0.0,0.0,0.0,0.0,0.0,0.0,0.0,0.0,0.0,0.0,0.0,0.0,0.0,0.0,0.0,0.0,0.0,0.0,0.0,0.0,0.0,0.0,0.0,0.0,0.0,0.0,0.0,0.0,0.0,0.0,0.0,0.0,0.0,0.0,0.0,0.0,0.0,0.0,0.0,0.0,0.0,4.1596,4.274,4.3651,4.4272,4.4452,4.4485,4.4483,4.452,0.0,0.0,0.0,0.0,0.0,0.0,0.0,0.0,0.0,0.0,0.0,0.0,0.0,0.0,0.0,0.0,0.0,0.0,0.0,0.0,0.0,0.0,0.0,0.0,0.0,0.0,0.0,3.15,0.0,0.0,0.0,0.0,0.0,0.0,0.0,0.0,0.0,0.0,0.0,0.0,0.0,0.0,3.6216,3.6165,3.6901,3.7581,0.0,0.0,3.8402,3.8573,3.732,3.6092,0.0,0.0,0.0,0.0,0.0,0.0,0.0,0.0,0.0,0.0,0.0,0.0,0.0,0.0,0.0,0.0,0.0,0.0,0.0,0.0,0.0,0.0,0.0,0.0,0.0,0.0,0.0,0.0,0.0,0.0,0.0,0.0,0.0,0.0,0.0,0.0,0.0,0.0,0.0,0.0,0.0,0.0,0.0,0.0,0.0,0.0,0.0,0.0,0.0,0.0,0.0,0.0,0.0,0.0,0.0,4.0815,4.2323,4.3233,4.3467,4.3521,4.352,4.3571,4.3571,4.2818,0.0,0.0,0.0,0.0,0.0,0.0,0.0,0.0,0.0,0.0,0.0,0.0,0.0,0.0,0.0,0.0,0.0,0.0,0.0,0.0,0.0,0.0,0.0,0.0,0.0,0.0,0.0,0.0,0.0,0.0,0.0,0.0,0.0,0.0,0.0,0.0,0.0,0.0,0.0,0.0,0.0,3.6019,3.6036,3.7115,3.7942,0.0,0.0,3.948,3.8706,3.7719,3.6654,3.5607,0.0,0.0,0.0,0.0,0.0,0.0,0.0,0.0,0.0,0.0,0.0,0.0,0.0,0.0,0.0,0.0,0.0,0.0,0.0,0.0,0.0,0.0,0.0,0.0,0.0,0.0,0.0,0.0,0.0,0.0,0.0,0.0,0.0,0.0,0.0,0.0,0.0,0.0,0.0,0.0,0.0,0.0,0.0,0.0,0.0,0.0,0.0,0.0,0.0,0.0,0.0,0.0,0.0,3.9914,4.051,4.1651,4.2559,4.3196,4.3341,4.3429,4.3446,4.2986,4.2249,0.0,0.0,0.0,0.0,0.0,0.0,0.0,0.0,0.0,0.0,0.0,0.0,0.0,0.0,0.0,0.0,0.0,0.0,0.0,0.0,0.0,0.0,0.0,0.0,0.0,0.0,0.0,0.0,3.1112,3.1112,3.1112,0.0,0.0,0.0,0.0,0.0,0.0,0.0,0.0,0.0,0.0,3.5993,3.5905,3.6622,0.0,0.0,3.8488,3.8989,3.9035,3.7796,3.6629,3.6039,3.4723,0.0,0.0,0.0,0.0,0.0,0.0,0.0,0.0,0.0,0.0,0.0,0.0,0.0,0.0,0.0,0.0,0.0,0.0,0.0,0.0,0.0,0.0,0.0,0.0,0.0,0.0,0.0,0.0,0.0,0.0,0.0,0.0,0.0,0.0,0.0,0.0,0.0,0.0,0.0,0.0,0.0,0.0,0.0,0.0,0.0,0.0,0.0,0.0,0.0,0.0,0.0,0.0,3.9463,4.0347,4.1215,4.2103,4.3049,4.3196,4.3323,4.3322,4.2624,4.18,0.0,0.0,0.0,0.0,0.0,0.0,0.0,0.0,0.0,0.0,0.0,0.0,0.0,0.0,0.0,0.0,0.0,0.0,0.0,0.0,0.0,0.0,0.0,0.0,0.0,0.0,0.0,0.0,3.0912,3.0871,3.0831,0.0,0.0,0.0,0.0,0.0,0.0,0.0,0.0,0.0,0.0,3.5773,3.5701,3.6219,3.6767,3.7227,3.7736,3.8251,3.8894,3.762,3.6584,3.6529,0.0,0.0,0.0,0.0,0.0,0.0,0.0,0.0,0.0,0.0,0.0,0.0,0.0,0.0,0.0,0.0,0.0,0.0,0.0,0.0,0.0,0.0,0.0,0.0,0.0,0.0,0.0,0.0,0.0,0.0,3.8478,0.0,0.0,0.0,0.0,0.0,0.0,0.0,0.0,0.0,0.0,0.0,0.0,0.0,0.0,0.0,0.0,0.0,0.0,0.0,0.0,0.0,0.0,3.9299,4.02,4.1104,4.2029,4.2864,4.3049,4.3123,4.3178,4.2412,4.161,4.0789,0.0,0.0,0.0,0.0,0.0,0.0,0.0,0.0,0.0,0.0,0.0,0.0,0.0,0.0,0.0,0.0,0.0,0.0,0.0,0.0,0.0,0.0,0.0,0.0,0.0,0.0,3.0871,3.0871,3.0814,0.0,0.0,0.0,0.0,0.0,0.0,0.0,0.0,0.0,0.0,3.5291,3.5291,3.5291,3.5958,3.6393,3.646,3.682,3.7401,3.8096,3.7134,3.6395,0.0,0.0,0.0,0.0,0.0,0.0,0.0,0.0,0.0,0.0,0.0,0.0,0.0,0.0,0.0,0.0,0.0,0.0,0.0,0.0,0.0,0.0,0.0,0.0,0.0,0.0,0.0,3.8701,3.8603,0.0,0.0,0.0,0.0,0.0,0.0,0.0,0.0,0.0,0.0,0.0,3.7703,3.7613,0.0,0.0,0.0,0.0,0.0,0.0,0.0,0.0,0.0,0.0,0.0,0.0,3.8649,4.0052,4.0468,4.1279,4.2673,4.288,4.2994,4.3013,4.1849,4.0555,3.9195,0.0,0.0,0.0,0.0,0.0,0.0,0.0,0.0,0.0,0.0,0.0,0.0,0.0,0.0,0.0,0.0,0.0,0.0,0.0,0.0,0.0,0.0,0.0,0.0,0.0,3.0708,0.0,0.0,0.0,0.0,0.0,0.0,0.0,0.0,0.0,0.0,0.0,3.5198,3.5291,3.5308,3.5308,3.5308,3.5445,3.5685,0.0,0.0,0.0,0.0,0.0,0.0,0.0,0.0,0.0,0.0,0.0,0.0,0.0,0.0,3.3583,3.322,3.3191,3.3066,3.2878,0.0,0.0,0.0,0.0,0.0,0.0,0.0,0.0,0.0,0.0,0.0,0.0,0.0,0.0,0.0,0.0,3.9239,0.0,0.0,0.0,0.0,0.0,0.0,0.0,0.0,3.8435,3.836,3.8285,3.7925,3.7707,0.0,3.7421,3.7317,0.0,0.0,0.0,0.0,0.0,0.0,0.0,0.0,3.8069,3.9486,3.9884,4.073,4.2006,4.2564,4.2641,4.2352,4.098,3.9549,3.821,3.807,3.7228,0.0,0.0,0.0,0.0,0.0,0.0,0.0,0.0,0.0,0.0,0.0,0.0,0.0,0.0,0.0,0.0,0.0,0.0,0.0,0.0,0.0,0.0,0.0,3.0485,0.0,0.0,0.0,0.0,0.0,0.0,0.0,0.0,0.0,3.2713,3.3988,3.4947,3.4994,3.5041,3.4994,3.5041,0.0,0.0,0.0,0.0,0.0,0.0,0.0,3.6094,3.6669,3.6099,3.5435,3.4896,3.4437,3.4133,3.4342,0.0,0.0,3.3577,3.3489,3.341,3.3166,3.2847,3.2573,3.2325,3.1994,3.1528,0.0,0.0,0.0,0.0,0.0,0.0,0.0,0.0,4.0737,4.0737,0.0,4.0668,0.0,0.0,0.0,0.0,0.0,3.9935,0.0,0.0,3.962,3.9557,3.9487,3.8779,3.8404,3.839,3.7665,3.7273,3.7143,3.722,0.0,0.0,0.0,0.0,0.0,0.0,3.7686,3.8539,3.9498,4.0324,4.1092,4.2042,4.2178,4.1333,3.9876,3.8744,3.7953,3.7899,3.7145,3.5482,3.5325,0.0,0.0,0.0,0.0,0.0,0.0,0.0,0.0,0.0,0.0,0.0,0.0,0.0,0.0,0.0,0.0,0.0,0.0,0.0,0.0,3.0274,0.0,0.0,0.0,0.0,0.0,0.0,0.0,0.0,0.0,0.0,3.2449,3.3645,3.4497,3.4497,0.0,0.0,0.0,0.0,3.4497,3.4497,3.425,3.4603,3.5974,3.568,3.5805,3.7121,0.0,0.0,3.5604,3.5279,3.5052,3.4765,3.452,3.4414,3.437,3.4327,3.4221,3.3894,3.3339,3.2834,3.2452,3.2005,3.1436,4.1375,0.0,0.0,0.0,0.0,4.0582,4.0564,4.0582,4.0564,4.051,4.051,4.0366,0.0,0.0,0.0,0.0,0.0,0.0,3.9696,3.9656,3.9534,3.9412,3.937,3.9076,3.887,3.8751,3.8017,3.765,3.7574,3.7091,3.6886,3.693,0.0,0.0,0.0,0.0,3.7591,3.8465,3.9305,4.0068,4.089,4.1324,4.0963,3.9805,3.9337,3.8726,3.7935,3.781,3.7005,3.5415,3.5154,0.0,0.0,0.0,0.0,0.0,0.0,0.0,0.0,0.0,0.0,0.0,0.0,0.0,0.0,0.0,0.0,0.0,0.0,0.0,3.029,3.0162,3.006,0.0,0.0,0.0,0.0,0.0,0.0,0.0,0.0,0.0,3.2885,3.3843,3.448,0.0,0.0,3.448,3.448,3.448,3.4448,3.4234,0.0,0.0,0.0,3.5514,3.5634,3.6734,3.6289,3.5683,3.5504,3.5177,3.4765,3.4549,3.4346,3.4128,3.3868,3.3951,3.3965,3.373,3.338,3.3114,3.2877,3.2584,3.2124,4.1878,4.0939,4.1133,4.1227,4.1209,4.1209,4.1227,4.1227,4.1169,4.1169,4.1151,4.1056,4.0999,4.096,4.078,0.0,0.0,0.0,4.0369,4.0327,4.0182,4.0096,4.001,3.9687,3.946,3.932,3.859,3.8268,3.8208,3.7419,3.7054,3.7061,0.0,0.0,3.6886,3.6908,3.7216,3.7787,3.8624,3.9282,3.9758,3.9944,3.9697,3.8901,3.8561,3.8168,3.7703,3.7577,3.6827,3.5277,3.4995,3.4147,0.0,0.0,0.0,0.0,0.0,0.0,0.0,0.0,0.0,0.0,0.0,3.0692,3.0651,0.0,0.0,0.0,3.029,3.0189,3.0087,3.0233,0.0,0.0,0.0,0.0,0.0,0.0,0.0,3.2047,3.2481,3.2899,3.3304,3.3841,3.4184,3.4349,3.4349,3.43,3.425,0.0,3.4201,3.3949,3.3899,3.4226,3.5292,3.5291,3.5419,3.6322,3.594,3.5439,3.5294,3.4883,3.4549,3.4346,3.4059,3.3868,3.3675,3.3605,3.3521,3.3368,3.3297,3.3072,3.2846,3.2646,3.2335,4.2286,4.1648,4.2065,4.224,4.2246,4.2246,4.2228,4.2246,4.2228,4.2246,4.2246,4.2246,4.2187,4.2061,4.1987,0.0,4.1736,4.1648,4.148,4.138,4.1226,4.1163,4.1128,4.0422,4.0127,4.011,3.9328,3.8947,3.8894,3.8009,3.7577,3.7542,3.6988,3.6713,3.6643,3.6684,3.6719,3.6719,3.7673,3.8199,3.8181,3.8364,3.8447,3.8415,3.7686,3.7314,3.7297,3.7297,3.6589,3.5066,3.4798,3.3986,3.2459,0.0,0.0,0.0,0.0,0.0,0.0,0.0,0.0,0.0,0.0,0.0,0.0,0.0,0.0,0.0,3.0277,0.0,3.0152,3.0529,0.0,0.0,0.0,3.1614,3.1662,3.1678,3.1917,3.2588,0.0,0.0,3.3614,3.3694,3.3813,3.405,3.4066,3.4,3.3899,3.3899,3.3848,3.3694,3.3607,3.3911,3.4952,3.508,3.5177,3.5809,3.5668,3.5294,3.4949,3.4601,3.4332,3.4142,3.3799,3.3605,3.3605,3.3297,3.2988,3.2988,3.2988,3.2846,3.2489,3.23,3.2096,4.2552,4.1895,4.2037,4.195,4.178,4.1762,4.178,4.1762,4.1866,4.1909,4.1909,4.203,4.1927,4.1675,4.1604,4.1471,4.1346,4.13,4.1244,4.1169,4.1029,4.0935,4.0806,4.0552,4.0418,4.0371,3.9641,3.9264,3.9255,3.8425,3.8048,3.7997,3.734,3.6818,3.6419,3.6602,3.6719,3.6719,3.7498,3.7947,3.8128,3.8151,3.8007,3.7598,3.7403,3.7297,3.7297,3.7297,3.6514,3.4867,3.4742,3.3876,3.2124,3.1893,0.0,0.0,0.0,0.0,0.0,0.0,0.0,0.0,0.0,3.0526,3.0443,0.0,3.0563,0.0,3.1307,3.1494,3.1401,3.1452,0.0,0.0,3.1518,3.174,3.2135,3.2199,3.2469,3.3204,3.33,3.3415,3.3678,3.3694,3.3694,3.3797,3.3797,3.3797,3.3745,3.3745,3.371,3.3555,3.345,3.3609,3.4298,3.4845,3.5233,3.5548,3.5279,3.5016,3.475,3.4414,3.4142,3.3951,3.3744,3.3536,3.3213,3.3058,3.2846,3.2632,3.2561,3.2489,3.23,3.2096,3.189,4.2791,4.2108,4.1817,4.1621,4.1479,4.1337,4.1335,4.1398,4.1443,4.1515,4.1525,4.1604,4.156,4.1426,4.129,4.1198,4.1088,4.0995,4.0918,4.084,4.0776,4.068,4.0583,4.0514,4.0514,4.0468,4.0063,3.9859,3.9836,3.9054,3.8666,3.8632,3.7882,3.7331,3.7065,3.662,3.6377,3.6395,3.6901,3.7234,3.7458,3.7475,3.7346,3.7062,3.7044,3.7044,3.7044,3.7044,3.6404,3.5098,3.4676,3.3813,3.2446,3.1898,3.1576,0.0,0.0,0.0,0.0,0.0,0.0,0.0,0.0,0.0,0.0,0.0,3.0991,3.1469,3.1722,3.1854,3.1822,3.1951,3.2029,3.198,3.2117,3.2364,3.2677,3.2656,3.2814,3.3245,3.3293,3.3346,3.3503,3.3519,3.3503,3.3503,3.3503,3.3555,3.3607,3.3607,3.3555,3.3361,3.3256,3.3442,3.4145,3.4662,3.5137,3.5389,3.5148,3.4802,3.4616,3.4293,3.3937,3.3813,3.3536,3.3297,3.3058,3.2846,3.2632,3.2489,3.2286,3.2155,3.2109,3.1817,3.1508,4.3094,4.2368,4.1608,4.1305,4.1256,4.0908,4.084,4.1047,4.1064,4.1059,4.1163,4.1163,4.11,4.1117,4.1076,4.0935,4.0823,4.0697,4.06,4.0419,4.0419,4.0436,4.037,4.0368,4.0417,4.0387,4.0423,4.0423,4.0353,3.9659,3.9255,3.9205,3.8458,3.8051,3.8048,3.6814,3.6171,3.6129,3.6311,3.6464,3.6643,3.6661,3.6661,3.6702,3.6719,3.6719,3.6719,3.6719,3.6319,3.5514,3.474,3.393,3.3055,3.2124,3.1611,0.0,3.128,0.0,0.0,0.0,0.0,0.0,0.0,0.0,0.0,3.1544,3.1691,3.2093,3.2079,3.2048,3.2048,3.2331,3.253,3.2495,3.2825,3.3043,3.3043,3.2951,3.2951,3.3058,3.3043,3.3096,3.3256,3.324,3.3256,3.3256,3.3256,3.3309,3.3414,3.3466,3.3346,3.3112,3.3058,3.3232,3.3937,3.4379,3.4706,3.5111,3.5037,3.4735,3.4414,3.4088,3.3813,3.3605,3.3283,3.2988,3.2988,3.2632,3.2417,3.2345,3.2096,3.189,3.1817,3.1582,3.1198,4.3518,4.2836,4.2059,4.146,4.0838,4.0204,4.0188,4.0631,4.0745,4.084,4.0965,4.0823,4.0793,4.0776,4.068,4.0583,4.0583,4.0436,4.0305,4.0171,4.0037,3.9935,3.9867,3.9868,3.9868,3.9833,3.9865,3.9865,3.9884,3.9681,3.9631,3.9597,3.8841,3.8489,3.8438,0.0,0.0,0.0,3.696,3.6766,3.6377,3.6385,3.6502,3.6702,3.6719,0.0,3.6719,3.6719,3.6313,3.5469,3.514,0.0,0.0,0.0,0.0,0.0,0.0,0.0,0.0,0.0,0.0,0.0,3.226,3.2171,3.2233,3.2525,3.274,3.2692,3.3158,3.3411,3.3224,3.3113,3.3103,3.2961,3.2911,3.2951,3.2966,3.2897,3.2912,3.2951,3.2951,3.2951,3.3005,3.2966,3.2966,3.3005,3.2951,3.2989,3.3005,3.3112,3.3096,3.2935,3.2703,3.2705,3.3218,3.3502,3.3841,3.4228,3.4574,3.4572,3.4278,3.402,3.3827,3.3605,3.3283,3.2917,3.2775,3.2561,3.2286,3.2009,3.1817,3.1683,3.1683,3.1373,3.0986,4.338,0.0,4.1889,4.1299,0.0,3.9934,3.9677,4.0037,4.0188,4.0387,4.0485,4.0453,4.0404,4.0404,4.0288,4.0188,4.0188,4.0087,3.9986,3.9867,3.9833,3.9781,3.9677,3.9694,3.9694,3.9677,3.9726,3.9709,3.9677,3.9677,3.9677,3.9677,3.9309,3.9125,3.9108,3.8858,3.8316,3.7558,3.72,3.6915,3.6671,3.632,3.6216,3.6335,0.0,0.0,0.0,0.0,0.0,0.0,0.0,0.0,0.0,0.0,0.0,3.3372,3.2858,3.267,3.2961,3.2785,3.2829,3.3119,3.328,3.3205,3.2831,3.3226,3.3433,3.3367,3.3604,3.3607,3.3398,3.3256,3.315,3.2989,3.2827,3.2773,3.2718,3.2703,3.2648,3.2718,3.2773,3.2773,3.2912,3.2912,3.2912,3.2912,3.2912,3.2843,3.2773,3.2897,3.2951,3.2718,3.2318,3.2281,3.2672,3.2826,3.3134,3.3662,3.3966,3.4051,3.4031,3.3882,3.3675,3.3382,3.3058,3.2775,3.2561,3.2345,3.2082,3.189,3.1656,3.1447,3.1299,3.1075,3.0773,4.3096,4.2982,4.1573,4.1041,4.1058,3.9776,3.9272,3.9379,0.0,0.0,0.0,4.002,4.0037,4.0037,3.9901,3.9849,3.9833,3.9729,3.9677,3.9625,3.9573,3.9573,3.9573,3.9587,3.9587,3.9642,3.9656,3.964,3.9625,3.9625,3.9625,3.9625,3.9625,3.9625,3.9677,3.9677,3.9211,3.8292,3.7594,3.7194,3.7075,3.6444,3.6112,3.6036,3.6036,3.6036,3.6036,3.6036,3.6036,3.6019,3.5395,3.5028,3.4865,3.416,3.366,3.3607,3.3409,3.3261,3.329,3.3184,3.328,3.3752,3.4088,3.4039,3.3405,3.3711,3.3899,3.3848,3.3607,3.3398,3.3309,3.3096,3.2935,3.2843,3.2648,3.2523,3.2484,3.2398,3.2404,3.2607,3.2576,3.26,3.2865,3.2827,3.2734,3.2734,3.2679,3.2664,3.2539,3.2664,3.2664,3.2358,3.2038,3.1908,3.2183,3.2303,3.2535,3.3123,3.3303,3.3431,3.3622,3.3604,3.3452,3.3072,3.2846,3.2632,3.2431,3.2169,3.189,3.1817,3.1495,3.1198,3.0911,3.0761,3.047,4.3096,4.2982,4.1589,4.1,4.0927,3.9483,3.886,3.8969,3.9451,3.9729,3.9781,3.9781,3.9781,3.9729,3.9729,3.9746,3.9729,3.959,3.9484,0.0,3.9185,3.9077,3.9077,3.9094,3.9202,3.9379,3.9342,3.9342,3.9379,3.9379,3.9325,3.9362,3.9379,3.9448,3.9501,3.9554,3.9489,3.9445,3.8874,3.801,3.6939,3.6803,3.6536,3.601,3.6036,3.6036,3.6036,3.6019,3.6036,3.6019,3.5803,3.5647,3.563,3.4742,3.4509,3.5071,3.4359,3.4139,3.4738,3.4678,3.4539,3.4382,3.4333,3.4202,3.4021,3.3935,3.3848,3.3745,3.3503,3.3256,3.315,3.2881,3.2695,3.2499,3.2373,3.2206,3.2185,3.217,3.2383,3.2886,3.2444,3.2383,3.2883,3.2577,3.2272,3.2196,3.2252,3.2165,3.215,3.2206,3.2206,3.2038,3.1796,3.1597,3.1676,3.1812,3.1953,3.2006,3.273,3.312,3.3097,3.3237,3.3171,3.2988,3.2704,3.2431,3.2241,3.2036,3.1743,3.1508,3.1211,3.0898,3.0596,3.0305,3.0075,4.2639,4.2183,4.1173,4.0522,4.0098,3.9112,3.875,3.8805,3.9077,3.9222,3.9239,3.9239,3.9239,3.9239,3.9185,3.9239,3.9239,3.9148,3.9094,3.904,3.8914,3.8898,3.8914,3.8914,3.8914,3.904,3.9023,3.9023,3.904,3.9094,3.9148,3.9148,3.9272,3.9325,3.9379,3.9395,3.9448,3.959,3.8974,3.8421,3.7908,3.7114,3.6598,3.6429,3.6021,3.58,3.58,3.58,3.58,3.5783,3.5728,3.5684,3.5656,3.5183,3.5059,3.5258,3.4851,3.4708,3.4961,3.4787,3.4611,3.4382,3.4201,3.405,3.4,3.3848,3.371,3.3503,3.3309,3.3096,3.2897,3.2918,3.2967,3.2839,3.2974,3.3087,3.3044,3.3044,3.315,3.3423,3.3226,3.3165,3.3454,3.3226,3.2877,3.2604,3.227,3.194,3.1754,3.1781,3.1781,3.1739,3.1495,3.1321,3.1161,3.122,3.1331,3.1467,3.1766,3.2233,3.2577,3.2762,3.2709,3.2777,3.2503,3.2228,3.2036,3.1803,3.1508,3.1211,3.0986,3.0685,3.0305,2.9908,2.9534,4.2083,4.15,4.0626,3.9865,3.9201,3.8748,3.8616,3.8711,3.8711,3.8711,3.8711,3.875,3.8805,3.8805,3.8805,3.8805,3.8805,3.8805,3.8805,3.875,3.8766,3.875,3.875,3.875,3.875,3.8805,3.8805,3.8805,3.8805,3.8914,3.8969,3.9023,3.9202,3.9288,3.9288,3.9288,3.9325,3.9398,3.897,3.8773,3.8723,3.7597,3.6989,3.6928,3.6236,3.583,3.5876,3.5707,3.5639,3.5622,3.5577,3.5549,3.5475,3.5446,3.5291,3.5105,3.5058,3.4994,3.4835,3.4659,3.4448,3.43,3.405,3.3979,3.4073,3.3934,3.3741,3.353,3.3417,3.3248,3.3119,3.3352,3.3487,3.3386,3.3621,3.3728,3.3744,3.3744,3.3834,3.3864,3.3789,3.3698,3.3849,3.3774,3.3397,3.2779,3.2282,3.185,3.1497,3.1379,3.1379,3.1321,3.1278,3.1117,3.0821,3.0702,3.08,3.1046,3.1045,3.1454,3.2051,3.219,3.2236,3.2481,3.2372,3.2023,3.1817,3.1508,3.1211,3.0986,3.0761,3.0381,2.9998,2.9443,2.9052,4.163,4.1371,4.014,3.9153,3.8537,3.8424,3.8464,3.8448,3.8448,3.8464,3.8448,3.8694,3.8805,3.8805,3.8805,3.8805,3.8805,3.8805,3.8694,3.8616,3.8616,3.8616,3.8616,3.8632,3.8655,3.875,3.8805,3.8733,3.875,3.8805,3.886,3.9023,3.9218,3.9272,3.9288,3.9288,3.9325,3.9342,3.9259,3.9016,3.8639,3.8472,3.8186,3.7612,3.6855,3.6514,3.6654,3.5994,3.5639,3.5577,3.5537,3.5508,3.5492,3.5291,3.5152,3.5088,3.4994,3.4851,3.4739,3.4594,3.4464,3.43,3.4083,3.4169,3.4574,3.4387,3.4241,3.4164,3.4015,3.3939,3.421,3.4173,3.3998,3.3683,3.3743,3.3592,3.3436,3.327,3.3446,3.3942,3.3636,3.3273,3.3902,3.3606,3.2951,3.2524,3.2257,3.1915,3.1442,3.1205,3.1102,3.0939,3.0836,3.0821,3.0762,3.0507,3.0444,3.0438,3.0668,3.1041,3.1429,3.1762,3.1943,3.2208,3.2096,3.1817,3.1495,3.1198,3.0973,3.0685,3.0381,2.9985,2.9586,2.9106,2.8882,4.114,4.0286,3.9719,3.9055,3.844,3.8391,3.8391,3.8391,3.8391,3.8391,3.8408,3.8504,3.8544,3.8544,3.8544,3.856,3.8544,3.8544,3.856,3.8504,3.8464,3.8504,3.8464,3.8504,3.8504,3.8544,3.856,3.856,3.86,3.8655,3.8766,3.8969,3.9077,3.9164,3.9288,3.9288,3.9288,3.9288,3.9288,3.9229,3.8983,3.8653,3.8421,3.817,3.7483,3.7097,3.7194,3.6891,3.6538,3.6135,3.6055,3.5807,3.5261,3.5152,3.5041,3.5011,3.4851,3.4707,3.4594,3.4448,3.4495,3.4681,3.4491,3.4553,3.5006,3.4865,3.4798,3.4841,3.4492,3.421,3.4312,3.444,3.4378,3.4237,3.4397,3.4446,3.4253,3.4174,3.4322,3.4493,3.4316,3.4212,3.4389,3.3977,3.3505,3.3151,3.2761,3.2211,3.1915,3.1547,3.1177,3.0921,3.0614,3.0416,3.0462,3.0326,3.0144,3.0064,3.0035,3.0249,3.1048,3.11,3.1281,3.2064,3.1863,3.1596,3.1198,3.0986,3.0685,3.0381,2.9985,2.9586,2.9106,2.8949,2.8724,4.0415,3.9525,3.9266,3.8893,3.8408,3.8391,3.8391,3.8391,3.8391,3.8391,3.8391,3.8391,3.8391,3.8391,3.8391,3.8391,3.8391,3.8391,3.8391,3.8391,3.8391,3.8391,3.8391,3.8391,3.8391,3.8391,3.8391,3.8391,3.8408,3.8504,3.8727,3.8914,3.8969,3.9077,3.9272,3.9288,3.9288,3.9288,3.9288,3.9288,3.9259,3.8864,3.8685,3.8789,3.8137,3.7769,3.7819,3.7635,3.7234,3.6748,3.6666,3.6367,3.5754,3.5656,3.5608,3.5447,3.5284,3.5169,3.5037,3.4903,3.4978,3.5202,3.5038,3.5054,3.5458,3.5404,3.5428,3.5613,3.514,3.4834,3.4683,3.4785,3.4805,3.4658,3.4961,3.5067,3.4839,3.4868,3.4773,3.4802,3.4647,3.4735,3.461,3.4244,3.3893,3.355,3.3071,3.2629,3.2384,3.1838,3.1424,3.1219,3.0834,3.0525,3.0319,3.0083,2.996,2.9893,2.9791,3.0141,3.0957,3.0828,3.0909,3.1761,3.1603,3.1373,3.0986,3.0685,3.0381,2.9985,2.9586,2.9184,2.8949,2.8803,2.8566,3.9541,3.9379,3.8732,3.8456,3.8391,3.8391,3.8391,3.8391,3.8391,3.8391,3.8391,3.8391,3.8391,3.8391,3.8391,3.8391,3.8391,3.8391,3.8391,3.8391,3.8391,3.8391,3.8391,3.8391,3.8391,3.8391,3.8391,3.8391,3.8408,3.8504,3.8655,3.8805,3.8914,3.9094,3.9272,3.9288,3.9288,3.9272,3.9272,3.9272,3.9272,3.9222,3.9242,3.9265,3.8735,3.8387,3.8455,3.7853,3.7485,3.7435,3.7319,3.7236,3.712,3.7003,3.6869,3.6701,3.653,3.6427,3.6254,3.608,3.5986,3.5921,3.5522,3.56,3.6148,3.5892,3.5873,3.6338,3.5965,3.573,3.5525,3.5379,3.529,3.5094,3.4957,3.4883,3.4765,3.4683,3.4616,3.4481,3.4481,3.4414,3.4196,3.4113,3.3782,3.3288,3.2978,3.2711,3.2282,3.196,3.1809,3.1781,3.1574,3.1275,3.0378,3.0211,3.0049,2.9995,3.0233,3.0322,3.0703,3.1034,3.1294,3.1402,3.1281,3.1061,3.0761,3.0381,2.9985,2.9599,2.9197,2.8882,2.8724,2.8578,2.8431,3.9217,3.878,3.8521,3.8391,3.8391,3.8391,3.8391,3.8391,3.8391,3.8391,3.8391,3.8391,3.8391,3.8391,3.8391,3.8391,3.8391,3.8391,3.8391,3.8391,3.8391,3.8391,3.8391,3.8391,3.8391,3.8391,3.8391,3.8391,3.8391,3.8448,3.856,3.8655,3.8821,3.8969,3.9094,3.9202,3.9272,3.9131,3.9077,3.9094,3.8985,3.8969,3.904,3.9077,3.9023,3.8997,3.9049,3.88,3.845,3.795,3.7934,3.765,3.7219,3.7051,3.6882,3.6727,3.6538,3.6397,3.6291,3.6131,3.6123,3.6222,3.6099,3.6137,3.6422,3.6367,3.6245,3.618,3.5958,3.5703,3.5459,3.5344,3.5228,3.4964,3.4831,3.4683,3.4549,3.4481,3.4481,3.4414,3.4278,3.4142,3.4005,3.3951,3.3851,3.3596,3.3388,3.3109,3.2788,3.2396,3.1979,3.1814,3.1481,3.1104,3.0769,3.0681,3.0681,3.0643,3.0696,3.0746,3.0937,3.1056,3.1227,3.1249,3.1048,3.0748,3.0444,2.9908,2.9509,2.9197,2.8882,2.8736,2.8657,2.8498,2.8271,3.8845,3.844,3.8391,3.8391,3.8391,3.8391,3.8391,3.8391,3.8391,3.8391,3.8391,3.8391,3.8391,3.8391,3.8391,3.8391,3.8391,3.8391,3.8391,3.8391,3.8391,3.8391,3.8391,3.8391,3.8391,3.8391,3.8391,3.8391,3.8391,3.8391,3.8448,3.8632,3.8711,3.8821,3.8914,3.9094,3.9094,3.8985,3.8914,3.8898,3.8805,3.8805,3.8805,3.8805,3.904,3.9148,3.9148,3.9148,3.8912,3.8451,3.8385,3.817,3.7708,3.7538,3.738,3.7257,3.7129,3.6934,3.6841,3.666,3.6589,3.669,3.6636,3.6635,3.6631,3.6476,3.6226,3.5973,3.5733,3.5524,3.5198,3.5082,3.4964,3.4698,3.4631,3.4563,3.4414,3.4346,3.4278,3.421,3.4142,3.3951,3.3799,3.3744,3.366,3.3591,3.3437,3.3227,3.3017,3.2695,3.225,3.2055,3.1861,3.1681,3.1543,3.1611,3.1126,3.0989,3.0979,3.1046,3.1081,3.1083,3.105,3.0979,3.0748,3.0444,3.005,2.9509,2.9197,2.8882,2.8724,2.8657,2.8498,2.8327,2.8179,3.8408,3.8391,3.8391,3.8391,3.8391,3.8391,3.8391,3.8391,3.8391,3.8391,3.8391,3.8391,3.8391,3.8391,3.8391,3.8391,3.8391,3.8391,3.8391,3.8391,3.8391,3.8391,3.8391,3.8391,3.8391,3.8391,3.8391,3.8391,3.8391,3.8408,3.8448,3.856,3.8632,3.8672,3.8805,3.8805,3.8805,3.8805,3.8805,3.8805,3.8805,3.875,3.875,3.875,3.8805,3.8805,3.8788,3.8805,3.8827,3.8756,3.8739,3.8772,3.8641,3.8492,3.8479,3.8381,3.8254,3.8173,3.8067,3.7716,3.7404,3.7263,3.7103,3.6784,3.6507,3.6274,3.6022,3.5767,3.5524,3.5359,3.5001,3.4817,3.4698,3.4698,3.4549,3.4414,3.4346,3.4196,3.4074,3.3951,3.3882,3.3813,3.3605,3.3452,3.3297,3.3072,3.2917,3.2775,3.2775,3.2607,3.2662,3.2648,3.2384,3.2121,3.2327,3.2451,3.1763,3.1268,3.1237,3.1311,3.1218,3.1248,3.0982,3.0898,3.0444,3.005,2.9664,2.9197,2.8949,2.8712,2.8657,2.851,2.8419,2.8259,2.8018,3.8391,3.8391,3.8391,3.8391,3.8391,3.8391,3.8391,3.8391,3.8391,3.8391,3.8391,3.8391,3.8391,3.8391,3.8391,3.8391,3.8391,3.8391,3.8391,3.8391,3.8391,3.8391,3.8391,3.8391,3.8391,3.8391,3.8391,3.8408,3.844,3.844,3.8464,3.8448,3.8593,3.8616,3.8704,3.875,3.875,3.8655,3.8672,3.8616,3.8544,3.8504,3.8488,3.8488,3.8448,3.8391,3.8375,3.8639,3.8788,3.8805,3.8805,3.875,3.8655,3.856,3.8408,3.8335,3.8107,3.7934,3.7817,3.7626,3.7389,3.7165,3.6862,3.6554,3.6274,3.6006,3.5767,3.5589,3.5424,3.5148,3.4817,3.4765,3.4631,3.4481,3.4414,3.4346,3.421,3.4074,3.3868,3.3758,3.3675,3.3521,3.3283,3.3143,3.3002,3.2846,3.2704,3.2632,3.2561,3.2489,3.2431,3.2372,3.2372,3.2359,3.23,3.2228,3.1816,3.1436,3.1442,3.132,3.1296,3.1169,3.097,3.0596,3.0126,2.9664,2.9275,2.8961,2.8803,2.8645,2.859,2.8431,2.8339,2.8179,2.795,3.8391,3.8391,3.8391,3.8391,3.8391,3.8391,3.8391,3.8391,3.8391,3.8391,3.8391,3.8391,3.8391,3.8391,3.8391,3.8391,3.8391,3.8391,3.8391,3.8391,3.8391,3.8391,3.8391,3.8391,3.8586,3.878,3.8796,3.8942,3.9169,3.9169,3.9185,3.9169,3.904,3.8926,3.8878,3.873,3.8616,3.852,3.8448,3.8391,3.8351,3.8278,3.8221,3.8221,3.8107,3.8107,3.8107,3.8303,3.8472,3.8472,3.8472,3.8432,3.8335,3.8278,3.8164,3.8049,3.786,3.7685,3.7567,3.7389,3.715,3.6862,3.6616,3.6352,3.6085,3.5767,3.5539,3.5424,3.5162,3.4949,3.4765,3.4549,3.4414,3.4278,3.4278,3.421,3.4005,3.3882,3.3675,3.3536,3.3452,3.3283,3.3058,3.2846,3.2775,3.2632,3.2489,3.2359,3.2214,3.2141,3.2096,3.2036,3.195,3.195,3.1963,3.189,3.1817,3.1709,3.1609,3.1375,3.1254,3.1031,3.0761,3.0228,2.9767,2.9431,2.904,2.8816,2.8657,2.859,2.851,2.8419,2.8259,2.8042,2.7881,3.8391,3.8391,3.8391,3.8391,3.8391,3.8391,3.8391,3.8391,3.8391,3.8391,3.8391,3.8391,3.8391,3.8391,3.8391,3.8391,3.8391,3.8391,3.8391,3.8391,3.8408,3.844,3.857,3.8586,3.8926,3.946,3.9525,3.9833,4.0221,4.0254,4.048,4.027,3.9768,3.9525,3.9502,3.8861,3.8634,3.8586,3.8423,3.8293,3.8196,3.7992,3.7934,3.7934,3.7876,3.786,3.786,3.786,3.786,3.7918,3.7976,3.7992,3.7934,3.786,3.786,3.786,3.7551,3.7433,3.7314,3.7089,3.6877,3.6554,3.6429,3.6289,3.5816,3.5604,3.5409,3.5228,3.4898,3.4683,3.4563,3.4346,3.4128,3.4059,3.4059,3.3937,3.3675,3.3605,3.3466,3.3312,3.3143,3.2988,3.2917,3.2632,3.2417,3.2286,3.2082,3.195,3.189,3.1803,3.1669,3.1669,3.1743,3.1743,3.1743,3.1656,3.1596,3.1508,3.1447,3.1224,3.1061,3.0836,3.0444,2.9921,2.9546,2.9131,2.8882,2.8657,2.8578,2.851,2.8431,2.8339,2.8191,2.7962,2.7719,3.8391,3.8391,3.8391,3.8391,3.8391,3.8391,3.8391,3.8391,3.8391,3.8391,3.8391,3.8391,3.8391,3.8391,3.8391,3.8391,3.8391,3.8391,3.8391,3.8391,3.8391,3.8732,3.9088,3.9201,3.9557,4.014,4.0237,4.0318,4.048,4.061,4.0577,4.048,4.0383,4.0221,4.0156,3.9893,3.9479,3.9059,3.8836,3.8504,3.8072,3.7966,3.7876,3.7876,3.7669,3.7551,3.7492,3.7345,3.7464,3.7876,3.7876,3.7876,3.7876,3.7669,3.7551,3.7492,3.7285,3.7105,3.7044,3.68,3.6616,3.6492,3.6163,3.5894,3.5752,3.5459,3.5213,3.5016,3.4817,3.4563,3.4346,3.4128,3.3991,3.3799,3.373,3.366,3.3591,3.3368,3.3143,3.3058,3.2917,3.2761,3.2561,3.2431,3.2155,3.2023,3.1877,3.1669,3.1669,3.1596,3.1522,3.1596,3.1596,3.1609,3.1596,3.1434,3.136,3.1272,3.1136,3.0924,3.0761,3.0533,3.0139,2.9586,2.9378,2.9052,2.8816,2.8657,2.859,2.851,2.8339,2.8259,2.8018,2.7788,2.7545,3.8391,3.8391,3.8391,3.8391,3.8391,3.8391,3.8391,3.8391,3.8391,3.8391,3.8391,3.8391,3.8391,3.8391,3.8391,3.8391,3.8391,3.8391,3.8391,3.8456,3.8732,3.9088,3.9444,3.9703,4.027,4.0885,4.095,4.1144,4.1371,4.1387,4.1387,4.1371,4.1019,4.0829,4.078,4.0385,4.0007,3.9606,3.9406,3.8982,3.8209,3.8086,3.7821,3.7619,3.7329,3.7194,3.721,3.7044,3.7181,3.7464,3.7524,3.7524,3.7524,3.7345,3.727,3.721,3.6984,3.6862,3.6739,3.6554,3.6274,3.6148,3.5831,3.5638,3.5444,3.5198,3.5001,3.4817,3.4616,3.4346,3.4128,3.3991,3.3716,3.3437,3.3368,3.3368,3.3368,3.3129,3.2988,3.2846,3.2704,3.2489,3.2359,3.2155,3.1963,3.183,3.1582,3.1508,3.1434,3.1434,3.1373,3.1373,3.1373,3.1299,3.1224,3.1136,3.1061,3.0986,3.0823,3.0609,3.0457,3.0228,2.9844,2.9443,2.9221,2.9064,2.8816,2.8578,2.859,2.8431,2.8339,2.8099,2.795,2.7626,2.7371,3.8391,3.8391,3.8391,3.8391,3.8391,3.8391,3.8391,3.8391,3.8391,3.8391,3.8391,3.8391,3.8391,3.8391,3.8391,3.8391,3.8391,3.8335,3.8448,3.8707,3.9159,3.9645,3.9919,4.0399,4.0998,4.1581,4.1678,4.1986,4.2261,4.2409,4.2506,4.2201,4.1703,4.1464,4.1289,4.07,4.0224,4.005,3.9895,3.9359,3.8683,3.8402,3.8089,3.7433,3.703,3.6877,3.6877,3.6816,3.6877,3.6877,3.6954,3.706,3.6999,3.7015,3.6954,3.6877,3.6723,3.6538,3.6414,3.6211,3.6006,3.5831,3.5688,3.5574,3.5264,3.5016,3.4802,3.4698,3.4346,3.4128,3.3991,3.373,3.3437,3.3129,3.3058,3.2988,3.2917,3.2903,3.2832,3.2704,3.2489,3.2286,3.2169,3.1963,3.1743,3.1582,3.136,3.1211,3.1136,3.1048,3.0986,3.0911,3.0911,3.0898,3.0836,3.0761,3.0685,3.0609,3.0457,3.0228,3.0075,2.9844,2.9534,2.93,2.9131,2.8895,2.859,2.851,2.851,2.8431,2.8271,2.8111,2.7869,2.7545,2.729,3.8391,3.8391,3.8391,3.8391,3.8391,3.8391,3.8391,3.8391,3.8391,3.8408,3.8391,3.8391,3.8391,3.8391,3.8335,3.8391,3.8335,3.831,3.8438,3.898,3.959,4.0248,4.0694,4.1168,4.1711,4.2151,4.2375,4.2472,4.2555,4.2508,4.2445,4.2396,4.2077,4.1933,4.1789,4.1502,4.1071,4.0594,4.0276,3.9786,3.9061,3.8841,3.8481,3.7717,3.7064,3.6538,3.6241,3.6226,3.6226,3.6289,3.6677,3.6877,3.6877,3.6754,3.6616,3.6554,3.6367,3.6163,3.61,3.5958,3.5816,3.5688,3.5459,3.5279,3.5213,3.4898,3.4683,3.4481,3.4196,3.4005,3.373,3.3368,3.3143,3.2988,3.2846,3.2646,3.2444,3.2503,3.2489,3.23,3.2155,3.195,3.1757,3.1582,3.1421,3.1347,3.1123,3.0911,3.0761,3.0672,3.0672,3.0685,3.0672,3.0672,3.0672,3.0533,3.0457,3.0305,3.0075,2.9908,2.9754,2.9521,2.9287,2.9131,2.8961,2.8736,2.851,2.851,2.851,2.8351,2.8191,2.803,2.7788,2.7464,2.7219,3.8391,3.8391,3.8391,3.8391,3.8391,3.8391,3.8335,3.8294,3.8278,3.8221,3.8164,3.8164,3.8164,3.8164,3.8164,3.8164,3.8164,3.8139,3.8568,3.931,3.9902,4.0574,4.1421,4.1708,4.2043,4.2349,4.2349,4.2365,4.2302,4.2302,4.2238,4.2254,4.2077,4.1884,4.1851,4.1736,4.1333,4.0965,4.0739,4.0263,3.9554,3.9284,3.8778,3.7984,3.7162,3.6651,3.6539,3.6174,3.6082,3.6115,3.6304,3.6554,3.6476,3.6352,3.6304,3.6226,3.61,3.5973,3.5831,3.5752,3.5623,3.5444,3.5264,3.5148,3.5016,3.4765,3.4549,3.4278,3.4074,3.3785,3.3368,3.3143,3.2988,3.2704,3.2574,3.2372,3.2169,3.2155,3.2155,3.195,3.1817,3.1669,3.1508,3.1272,3.1136,3.0986,3.081,3.0596,3.0609,3.052,3.052,3.0444,3.0444,3.0444,3.0444,3.0305,3.0164,2.9998,2.9831,2.9677,2.9509,2.9275,2.9028,2.8949,2.8882,2.8736,2.859,2.851,2.8431,2.8271,2.8111,2.795,2.7626,2.7301,2.7056,3.8335,3.8335,3.8335,3.8335,3.8335,3.8278,3.8221,3.818,3.818,3.8049,3.7934,3.7876,3.7934,3.7876,3.7876,3.786,3.7801,3.7881,3.8396,3.9545,3.9688,4.0547,4.1469,4.1771,4.1836,4.1916,4.2109,4.2109,4.2109,4.2029,4.198,4.198,4.1817,4.1702,4.1538,4.139,4.1158,4.0992,4.0909,4.0588,3.9972,3.9662,3.9054,3.8211,3.7506,3.7107,3.692,3.6587,3.6258,3.6091,3.6061,3.5937,3.5846,3.5894,3.5973,3.5973,3.591,3.5782,3.5638,3.5574,3.5459,3.5148,3.5082,3.5016,3.4765,3.4631,3.4414,3.4128,3.3854,3.3507,3.3058,3.286,3.2704,3.2431,3.2241,3.2036,3.189,3.195,3.1803,3.1669,3.1522,3.1373,3.1211,3.0986,3.0849,3.0711,3.047,3.0381,3.0394,3.0318,3.0241,3.0228,3.0152,3.0062,2.9973,2.9985,2.9844,2.9689,2.9521,2.9431,2.9275,2.9106,2.8949,2.8882,2.8724,2.8657,2.8498,2.8419,2.8339,2.8179,2.8018,2.7777,2.7452,2.7126,2.6891,3.7992,3.7992,3.7976,3.7992,3.7976,3.7992,3.7992,3.7934,3.7934,3.7934,3.786,3.7876,3.7817,3.7759,3.77,3.7567,3.7373,3.7377,3.7946,3.9,3.9187,3.994,4.0943,4.1307,4.1256,4.1406,4.1736,4.198,4.1916,4.1851,4.1654,4.1604,4.1421,4.1236,4.1169,4.1102,4.1018,4.0814,4.0677,4.0401,4.0186,3.9902,3.9464,3.859,3.7903,3.7534,3.7391,3.7188,3.6836,3.6239,3.6164,3.58,3.5517,3.5629,3.5793,3.5703,3.5589,3.5489,3.5344,3.5279,3.5198,3.5016,3.4883,3.4831,3.4631,3.4414,3.4128,3.3868,3.3507,3.3143,3.2988,3.266,3.2386,3.2169,3.189,3.1669,3.1434,3.1413,3.1365,3.1329,3.1215,3.114,3.0992,3.0905,3.0829,3.0753,3.0714,3.0444,3.0342,3.0137,3.0009,2.9907,2.9869,2.9689,2.9586,2.9509,2.9521,2.9365,2.9209,2.9118,2.904,2.8882,2.8803,2.8724,2.8657,2.859,2.8431,2.8339,2.8179,2.8099,2.7846,2.7522,2.729,2.7056,2.6809,3.7876,3.7876,3.7876,3.7876,3.7817,3.7817,3.7685,3.7567,3.7551,3.7476,3.7492,3.7449,3.7389,3.7314,3.721,3.7029,3.6892,3.6846,3.7359,3.8103,3.8614,3.9249,4.0287,4.0619,4.0737,4.0851,4.1138,4.139,4.1538,4.1406,4.1339,4.1272,4.1169,4.1034,4.0814,4.0814,4.0624,4.047,4.0261,4.0207,4.0137,3.9925,3.9541,3.9013,3.8332,3.7918,3.7729,3.7248,3.6941,3.6606,3.6532,3.6286,3.6064,3.594,3.5919,3.5428,3.5323,3.5177,3.5082,3.5067,3.4935,3.4802,3.4683,3.4616,3.4414,3.4196,3.3937,3.3591,3.3297,3.2846,3.2588,3.2314,3.2096,3.189,3.1548,3.1312,3.1202,3.1096,3.1213,3.1213,3.0981,3.088,3.1023,3.0945,3.0931,3.0851,3.0782,3.0577,3.0388,3.0193,3.0011,2.9836,2.9733,2.958,2.9361,2.9312,2.9209,2.9052,2.8973,2.8803,2.8724,2.8645,2.8566,2.8419,2.8431,2.8443,2.8339,2.8259,2.8087,2.7926,2.7684,2.7441,2.7208,2.6974,2.6738,3.77,3.77,3.77,3.7642,3.7599,3.7583,3.7389,3.7134,3.7134,3.7027,3.6935,3.6876,3.6876,3.6768,3.6616,3.6414,3.6352,3.6274,3.6702,3.7345,3.8019,3.8744,3.9342,4.0001,4.0401,4.0385,4.0501,4.0608,4.095,4.095,4.0882,4.0882,4.0898,4.0761,4.047,4.0401,4.0207,4.0066,3.9925,3.994,3.9854,3.9711,3.9553,3.9337,3.8656,3.8332,3.8201,3.7718,3.7308,3.7061,3.6972,3.6843,3.6726,3.6711,3.6241,3.5404,3.5266,3.5192,3.5074,3.5089,3.5022,3.466,3.4631,3.4414,3.4196,3.3991,3.373,3.3312,3.3002,3.2704,3.23,3.2096,3.189,3.1562,3.1254,3.112,3.1137,3.1216,3.1329,3.1201,3.079,3.0828,3.1197,3.1077,3.1019,3.0977,3.0904,3.0785,3.0543,3.0437,3.0258,2.9935,2.9695,2.9438,2.926,2.9126,2.8931,2.8736,2.8657,2.8578,2.8498,2.8431,2.8375,2.8274,2.8191,2.8203,2.8179,2.8099,2.7846,2.7672,2.751,2.7278,2.7056,2.6772,2.6568,3.7121,3.7121,3.7136,3.7121,3.706,3.706,3.6984,3.6769,3.6708,3.6662,3.6507,3.6554,3.6415,3.6244,3.5976,3.5816,3.5752,3.5653,3.5939,3.6541,3.7285,3.7956,3.8788,3.9695,3.9808,3.9874,3.9925,4.0237,4.0401,4.037,4.0355,4.037,4.0261,4.0137,4.0121,4.0066,4.0066,3.9925,3.9839,3.9625,3.9496,3.9496,3.9337,3.9147,3.8913,3.8751,3.8634,3.8282,3.8032,3.7549,3.752,3.7083,3.6503,3.6372,3.6357,3.6268,3.6307,3.6241,3.5703,3.5502,3.5185,3.4743,3.4419,3.421,3.3922,3.3646,3.3368,3.3058,3.2704,3.2431,3.2096,3.1917,3.1535,3.1386,3.1343,3.1281,3.1292,3.1427,3.1584,3.1536,3.1241,3.1372,3.1587,3.1279,3.1091,3.1046,3.0989,3.0906,3.0725,3.0651,3.04,3.0012,2.9736,2.9557,2.9346,2.9165,2.8976,2.867,2.8578,2.8497,2.8524,2.8607,2.8231,2.8174,2.8127,2.8174,2.8105,2.7976,2.7696,2.7476,2.7311,2.7113,2.6891,2.6651,2.655,3.626,3.6862,3.68,3.6739,3.6538,3.6538,3.6476,3.6274,3.6196,3.6072,3.6011,3.5882,3.58,3.5657,3.5429,3.5329,3.5133,3.5052,3.5119,3.5585,3.623,3.6758,3.7312,3.8232,3.8799,3.899,3.9143,3.9337,3.9595,3.9895,4.0121,4.0036,3.998,3.9996,3.9768,3.9839,3.9768,3.9625,3.9553,3.9394,3.9265,3.9192,3.9104,3.8929,3.8811,3.8738,3.8649,3.8501,3.8324,3.7944,3.7944,3.7783,3.7462,3.7404,3.7389,3.7389,3.7521,3.704,3.621,3.605,3.5532,3.5056,3.4617,3.4393,3.3858,3.3368,3.3002,3.2704,3.2431,3.2182,3.2011,3.1766,3.1583,3.1486,3.1538,3.1493,3.1576,3.1682,3.1818,3.1847,3.1851,3.1838,3.1801,3.1534,3.1415,3.16,3.1515,3.1466,3.1099,3.0685,3.0349,2.9977,2.9845,2.9666,2.9487,2.932,2.9285,2.9023,2.9023,2.894,2.894,2.8821,2.8444,2.8396,2.857,2.8463,2.8168,2.7856,2.7661,2.7415,2.7201,2.7137,2.7094,2.7283,2.7052,3.5232,3.6091,3.6384,3.6336,3.6085,3.6085,3.5958,3.5782,3.5638,3.5544,3.54,3.5249,3.5082,3.5001,3.4935,3.475,3.4549,3.4496,3.4496,3.47,3.5117,3.5565,3.6212,3.696,3.7634,3.7709,3.8223,3.8532,3.8841,3.9162,3.9466,3.9711,3.9625,3.9538,3.9466,3.9466,3.9394,3.925,3.925,3.9177,3.9031,3.9031,3.887,3.8723,3.8575,3.8441,3.8441,3.8292,3.8188,3.8159,3.813,3.8086,3.8043,3.7939,3.7953,3.7878,3.7864,3.756,3.6881,3.6519,3.6028,3.5496,3.4895,3.4398,3.3396,3.3072,3.2789,3.2431,3.2459,3.2119,3.1854,3.1885,3.1902,3.1849,3.1771,3.18,3.1782,3.1934,3.198,3.2091,3.2031,3.2019,3.1945,3.1625,3.1711,3.2091,3.2115,3.1906,3.1454,3.0822,3.0639,3.0272,2.9972,2.9877,2.9756,2.9574,2.9476,2.9355,2.9355,2.9188,2.8986,2.8854,2.8653,2.8706,2.8879,2.8534,2.8111,2.7859,2.7587,2.7599,2.7561,2.7424,2.742,2.7536,2.7401,3.3903,3.4435,3.5558,3.5879,3.5752,3.5752,3.5589,3.5294,3.5213,3.506,3.4771,3.4559,3.4501,3.4443,3.4264,3.4196,3.4128,3.402,3.3951,3.422,3.4663,3.492,3.5319,3.5936,3.6689,3.7085,3.7302,3.7651,3.8043,3.8103,3.8561,3.887,3.9031,3.8943,3.8943,3.9017,3.9002,3.8943,3.8929,3.8855,3.887,3.8797,3.8723,3.859,3.8516,3.8441,3.8277,3.8202,3.8202,3.8202,3.8127,3.8127,3.8052,3.7991,3.7929,3.7929,3.7839,3.7577,3.7229,3.702,3.6472,3.5753,3.4981,3.4284,3.3491,3.2985,3.2629,3.2486,3.2644,3.2506,3.2312,3.2319,3.2356,3.2162,3.2117,3.2064,3.2122,3.2068,3.2167,3.2302,3.2189,3.1937,3.1773,3.1468,3.1408,3.1737,3.1673,3.1464,3.1323,3.0937,3.0944,3.0708,3.0326,3.0185,3.0102,2.9881,2.9514,2.9369,2.9259,2.9045,2.8722,2.8635,2.8904,2.8683,2.8786,2.833,2.813,2.8181,2.8189,2.7951,2.7832,2.7778,2.7557,2.7605,2.7393,3.2877,3.3402,3.4258,3.4812,3.5184,3.5133,3.5001,3.4883,3.4601,3.4361,3.4008,3.3913,3.3815,3.373,3.3632,3.3563,3.3423,3.3353,3.3353,3.3396,3.3663,3.3832,3.4199,3.4625,3.5167,3.5539,3.5809,3.6336,3.6803,3.7025,3.7415,3.7846,3.8294,3.8575,3.8649,3.8649,3.8708,3.8782,3.8782,3.8708,3.8649,3.8575,3.8501,3.8352,3.8292,3.8277,3.8202,3.8202,3.8127,3.8066,3.7991,3.7991,3.7915,3.7777,3.7701,3.7701,3.7625,3.7534,3.7457,3.7339,3.6982,3.6145,3.5254,3.444,3.39,3.3735,3.3465,3.3301,3.3024,3.2877,3.2581,3.2629,3.2705,3.2492,3.2361,3.2409,3.2253,3.219,3.2077,3.2013,3.1749,3.1484,3.1318,3.1217,3.1205,3.133,3.1151,3.105,3.0972,3.0804,3.0793,3.0601,3.0232,3.0062,2.9993,2.9722,2.9429,2.9384,2.9249,2.9103,2.8868,2.9116,2.924,2.8948,2.8768,2.8656,2.8667,2.8745,2.8611,2.8088,2.8032,2.8197,2.793,2.7747,2.7408,3.1798,3.2285,3.2751,3.3485,3.4347,3.4476,3.4481,3.4428,3.4142,3.3785,3.3382,3.3283,3.3199,3.3072,3.2988,3.2846,3.2775,3.2704,3.2704,3.2717,3.2803,3.2846,3.3071,3.3338,3.3758,3.3907,3.4357,3.5004,3.5619,3.5784,3.6212,3.6793,3.7415,3.7731,3.8217,3.8441,3.8501,3.8501,3.8575,3.8575,3.8441,3.8441,3.8352,3.8202,3.8202,3.8142,3.8142,3.8066,3.8005,3.7853,3.7777,3.7777,3.761,3.7534,3.7534,3.7471,3.7471,3.738,3.7303,3.7246,3.7005,3.6127,3.5653,3.5002,3.4561,3.4265,3.377,3.3467,3.3381,3.3331,3.2906,3.3049,3.3053,3.2832,3.2509,3.2401,3.2153,3.2013,3.1837,3.1584,3.1407,3.1139,3.0859,3.0781,3.0781,3.0871,3.0859,3.0679,3.0522,3.0432,3.0329,3.0227,2.9977,2.9897,2.9749,2.9579,2.9432,2.9466,2.9364,2.9364,2.9237,2.9393,2.9209,2.8837,2.8723,2.8991,2.8855,2.8517,2.8265,2.8061,2.8123,2.8137,2.7957,2.763,2.7495,3.0573,3.1103,3.1189,3.1954,3.3177,3.3869,3.3962,3.3796,3.366,3.3368,3.3002,3.266,3.2516,3.2417,3.2273,3.22,3.2128,3.2128,3.2055,3.2055,3.2055,3.2128,3.2141,3.2323,3.2586,3.3077,3.3342,3.3737,3.4341,3.4568,3.5003,3.5586,3.6206,3.6855,3.7567,3.7853,3.7929,3.7929,3.8127,3.8202,3.8202,3.8127,3.8127,3.8127,3.8127,3.7991,3.7915,3.7929,3.7777,3.7625,3.761,3.7548,3.7548,3.738,3.7303,3.7303,3.7148,3.6993,3.6993,3.6993,3.6648,3.6116,3.5753,3.5328,3.4511,3.4131,3.3958,3.3859,3.3781,3.359,3.3485,3.3373,3.3267,3.2955,3.2612,3.23,3.2025,3.1749,3.1572,3.1306,3.105,3.0883,3.0601,3.0318,3.0318,3.0408,3.0566,3.0397,3.0148,3.0057,2.9954,2.9863,2.976,2.9588,2.9497,2.9497,2.9452,2.9485,2.9393,2.922,2.9035,2.8932,2.8746,2.8571,2.8477,2.856,2.8279,2.807,2.7939,2.7871,2.7929,2.7902,2.7704,2.7547,2.7357,2.9874,2.9912,3.0411,3.0755,3.1274,3.2475,3.2899,3.2764,3.2863,3.2789,3.2516,3.23,3.2082,3.1877,3.1716,3.1556,3.1556,3.1421,3.1347,3.1421,3.1408,3.1347,3.1421,3.1582,3.1689,3.1896,3.2152,3.2522,3.3136,3.3424,3.3929,3.4519,3.5308,3.6388,3.7286,3.7701,3.7701,3.7701,3.7763,3.7763,3.7839,3.7839,3.7839,3.7825,3.7839,3.7763,3.7701,3.7701,3.7625,3.738,3.738,3.7303,3.724,3.7148,3.707,3.6929,3.6772,3.6693,3.6628,3.6615,3.648,3.6207,3.6018,3.5672,3.5206,3.5047,3.4727,3.4352,3.4133,3.3975,3.3701,3.3487,3.3262,3.2846,3.2463,3.2213,3.1937,3.1572,3.1306,3.0937,3.0769,3.051,3.0148,2.9954,2.9863,2.9863,2.9932,2.9943,2.968,2.968,2.9669,2.9588,2.9485,2.9312,2.922,2.9128,2.9035,2.9024,2.885,2.8675,2.8581,2.8571,2.8373,2.8186,2.8186,2.8092,2.7904,2.7726,2.7641,2.762,2.7631,2.762,2.7536,2.7262,2.7092,2.9449,2.9303,2.9706,2.9744,2.9807,3.1207,3.1819,3.1847,3.2107,3.2096,3.1996,3.189,3.1743,3.1434,3.1211,3.1048,3.0973,3.0898,3.0748,3.0823,3.0823,3.0823,3.0898,3.0911,3.0999,3.1048,3.125,3.1563,3.1991,3.2305,3.2941,3.371,3.4525,3.5357,3.629,3.6816,3.738,3.7457,3.7534,3.761,3.761,3.761,3.761,3.761,3.761,3.761,3.7548,3.7471,3.7394,3.7226,3.7148,3.707,3.6929,3.685,3.6786,3.6628,3.6563,3.6484,3.6405,3.6312,3.6204,3.5937,3.5992,3.5817,3.5562,3.5197,3.4966,3.4746,3.4494,3.4147,3.37,3.3471,3.3142,3.2711,3.2463,3.2125,3.1673,3.1306,3.1038,3.0758,3.0397,3.0136,2.9874,2.9588,2.9393,2.9393,2.9301,2.9312,2.9405,2.9393,2.9301,2.922,2.9128,2.9035,2.885,2.8768,2.8664,2.856,2.8384,2.8301,2.8301,2.8279,2.8092,2.7904,2.7809,2.7715,2.7536,2.7452,2.7293,2.7197,2.7061,2.7156,2.7251,2.7071,2.6805,2.9008,2.9099,2.9035,2.8999,2.9063,3.0209,3.0884,3.1232,3.13,3.1411,3.1542,3.1381,3.1211,3.0986,3.0773,3.0622,3.0444,3.0368,3.0279,3.0279,3.0203,3.0279,3.0279,3.0368,3.0444,3.0457,3.0622,3.095,3.1026,3.1431,3.2097,3.2887,3.3634,3.4314,3.5017,3.585,3.6599,3.688,3.726,3.7366,3.7394,3.7471,3.7457,3.7457,3.7457,3.738,3.7317,3.7162,3.707,3.6993,3.6772,3.6707,3.6642,3.6484,3.6405,3.6405,3.6405,3.6246,3.6152,3.6072,3.5898,3.5656,3.5562,3.5562,3.5318,3.5072,3.4839,3.459,3.4327,3.3979,3.3725,3.3386,3.3056,3.2723,3.2388,3.195,3.1407,3.1139,3.0859,3.0589,3.0136,2.9783,2.9497,2.9312,2.9117,2.9117,2.9024,2.9024,2.9128,2.9128,2.9035,2.885,2.8757,2.8664,2.8571,2.8384,2.8384,2.8279,2.8092,2.8008,2.7998,2.7925,2.7726,2.7631,2.7536,2.7441,2.7156,2.6921,2.68,2.6703,2.6835,2.679,2.6916,2.6709,2.6506,2.8143,2.8392,2.8406,2.8341,2.8381,2.8704,2.9403,3.0261,3.069,3.0836,3.0752,3.0966,3.0947,3.0773,3.047,3.0177,2.9998,2.9754,2.9586,2.9586,2.9599,2.9521,2.9599,2.9831,2.9934,3.0075,3.0305,3.0444,3.0685,3.0898,3.1312,3.2064,3.2675,3.3103,3.3717,3.4451,3.5203,3.5997,3.6501,3.688,3.695,3.7056,3.7134,3.7134,3.7084,3.7007,3.6943,3.6786,3.6693,3.6628,3.6563,3.6484,3.647,3.6391,3.6391,3.6152,3.6072,3.5884,3.5804,3.5723,3.5562,3.5331,3.5236,3.5086,3.4921,3.4839,3.459,3.4327,3.4063,3.3725,3.3471,3.3227,3.2896,3.2562,3.23,3.1862,3.133,3.1062,3.0781,3.0306,2.9863,2.9588,2.9312,2.9128,2.8943,2.8943,2.8839,2.885,2.885,2.885,2.885,2.8675,2.8488,2.8384,2.8279,2.8092,2.8092,2.7998,2.7862,2.7799,2.7725,2.7641,2.7388,2.7365,2.7318,2.7033,2.6688,2.654,2.6655,2.6695,2.6794,2.6655,2.6563,2.6446,2.6201,2.7514,2.7798,2.7999,2.8079,2.8,2.8,2.8385,2.9035,2.9618,2.9998,3.021,3.0403,3.0465,3.0457,3.0164,2.9856,2.9599,2.9431,2.9275,2.9209,2.9064,2.9143,2.93,2.9378,2.9456,2.9689,2.9831,2.9973,3.0216,3.0596,3.0999,3.1426,3.1796,3.2088,3.2616,3.3171,3.3742,3.4607,3.5424,3.6036,3.6337,3.6554,3.6744,3.6758,3.6628,3.6642,3.6563,3.6405,3.6405,3.6405,3.6325,3.6325,3.6232,3.6232,3.6058,3.5898,3.5723,3.5642,3.5562,3.5399,3.5236,3.5154,3.4921,3.4839,3.4673,3.4494,3.4327,3.416,3.381,3.3471,3.3215,3.297,3.2723,3.2388,3.2038,3.1685,3.1419,3.1074,3.0601,3.0034,2.9669,2.9393,2.9117,2.8943,2.885,2.885,2.8757,2.8757,2.8664,2.8571,2.8581,2.8499,2.8301,2.8196,2.8019,2.7894,2.7926,2.7905,2.7819,2.7744,2.7617,2.761,2.7698,2.7415,2.7198,2.6921,2.6685,2.6685,2.6731,2.6748,2.6715,2.6468,2.6423,2.6265,2.6106,2.699,2.7083,2.7681,2.7868,2.7789,2.7776,2.7683,2.7575,2.8313,2.8935,2.9494,2.9706,2.9905,2.9923,2.9768,2.9599,2.9365,2.9209,2.904,2.9064,2.8986,2.8986,2.8986,2.9052,2.9131,2.9209,2.9353,2.9677,2.9856,3.0164,3.0533,3.0911,3.1039,3.1343,3.1761,3.2155,3.2702,3.313,3.4257,3.5118,3.5631,3.5977,3.635,3.6391,3.6391,3.6391,3.6391,3.6312,3.6312,3.6232,3.6152,3.6086,3.5992,3.5898,3.5723,3.5642,3.548,3.5399,3.5318,3.5154,3.5003,3.4921,3.4756,3.4577,3.441,3.4327,3.416,3.3992,3.3641,3.3386,3.3142,3.281,3.2562,3.2213,3.1937,3.1596,3.1252,3.0883,3.0329,2.9852,2.9577,2.9301,2.9035,2.885,2.885,2.885,2.8757,2.8675,2.8553,2.8459,2.8387,2.8398,2.8295,2.8148,2.7978,2.784,2.7744,2.772,2.781,2.7729,2.7693,2.776,2.7985,2.7523,2.7042,2.6989,2.6836,2.6759,2.6734,2.6596,2.6437,2.6333,2.6173,2.6135,2.6049,2.5366,2.5793,2.6492,2.7105,2.7577,2.7456,2.7403,2.7348,2.7343,2.7834,2.8531,2.9074,2.9351,2.9403,2.9476,2.9291,2.9209,2.8973,2.8803,2.8736,2.8657,2.8669,2.8669,2.8736,2.8803,2.8961,2.9118,2.9365,2.9702,2.9934,3.0152,3.052,3.0685,3.0911,3.1136,3.1563,3.1752,3.2057,3.2818,3.4104,3.4977,3.5471,3.5825,3.6091,3.6284,3.6125,3.6125,3.5978,3.5884,3.5804,3.5804,3.5804,3.5804,3.5575,3.548,3.5399,3.5331,3.5236,3.5072,3.499,3.4839,3.4756,3.459,3.441,3.4243,3.4147,3.3979,3.3823,3.3569,3.3227,3.297,3.2636,3.2388,3.2025,3.1761,3.1419,3.1074,3.0601,3.0125,2.9852,2.9577,2.9301,2.8943,2.885,2.885,2.885,2.885,2.8707,2.8589,2.8464,2.8232,2.8275,2.8327,2.8187,2.8015,2.7893,2.7945,2.7914,2.8041,2.7913,2.7774,2.7793,2.7819,2.7294,2.6973,2.6859,2.6806,2.675,2.6608,2.6464,2.6452,2.6393,2.6282,2.6291,2.6092,2.4504,2.4937,2.5871,2.6517,2.6906,2.7098,2.7146,2.7146,2.693,2.7109,2.7536,2.8155,2.8657,2.88,2.8946,2.9036,2.89,2.8724,2.8578,2.8419,2.8351,2.8271,2.8351,2.8431,2.8419,2.8566,2.8882,2.9143,2.9468,2.9624,2.9831,3.0152,3.0305,3.0533,3.0748,3.0898,3.1136,3.1338,3.1819,3.2747,3.4045,3.4494,3.5032,3.5405,3.5609,3.5612,3.5871,3.5723,3.5723,3.5629,3.5629,3.548,3.5413,3.5318,3.5236,3.5249,3.5086,3.5003,3.4908,3.4825,3.466,3.4577,3.441,3.416,3.4076,3.3992,3.3725,3.3471,3.3227,3.2884,3.2711,3.2463,3.2288,3.2025,3.1572,3.1217,3.0871,3.0499,3.0034,2.9669,2.9485,2.9301,2.9035,2.885,2.8757,2.8757,2.8757,2.8777,2.8645,2.8636,2.8347,2.8247,2.8369,2.8432,2.8354,2.8239,2.8143,2.8237,2.8249,2.8226,2.8131,2.787,2.7588,2.7302,2.7093,2.6921,2.693,2.6717,2.6472,2.6332,2.6353,2.6463,2.6336,2.6227,2.5937,2.4052,2.4342,2.5396,2.6063,2.6242,2.6691,2.6879,2.693,2.6794,2.6658,2.6746,2.7227,2.7808,2.8114,2.8408,2.8497,2.8597,2.8597,2.8407,2.8259,2.8259,2.8111,2.8042,2.7962,2.8111,2.8339,2.8566,2.8816,2.9143,2.9287,2.9443,2.9702,2.9934,3.0152,3.0368,3.052,3.0761,3.0986,3.1307,3.1691,3.2408,3.3145,3.389,3.4359,3.4749,3.5033,3.5372,3.5602,3.5602,3.5548,3.548,3.5331,3.5168,3.5072,3.5072,3.5003,3.4839,3.4743,3.466,3.4564,3.4481,3.4314,3.416,3.4076,3.392,3.3751,3.3484,3.3142,3.2884,3.2636,3.2463,3.2288,3.2113,3.1849,3.1395,3.1026,3.0668,3.0306,2.9943,2.9577,2.9393,2.9301,2.9024,2.885,2.8768,2.8768,2.8733,2.8666,2.8743,2.8845,2.876,2.8717,2.8724,2.8734,2.8641,2.8563,2.8493,2.84,2.8518,2.858,2.8423,2.7892,2.7564,2.7573,2.7397,2.6999,2.6812,2.6615,2.6381,2.6182,2.6091,2.6118,2.6008,2.5898,2.567,2.3245,2.4091,2.4318,2.5039,2.6036,2.6161,2.6375,2.6688,2.6589,2.6521,2.649,2.6439,2.6818,2.7356,2.8075,2.8301,2.8215,2.8361,2.8315,2.8259,2.8099,2.803,2.7881,2.78,2.803,2.8179,2.8327,2.8486,2.8816,2.8882,2.9106,2.9431,2.9702,2.9934,3.0152,3.0381,3.0533,3.0685,3.0836,3.1117,3.1625,3.2279,3.2991,3.3577,3.4046,3.426,3.454,3.4927,3.5169,3.5154,3.5154,3.5168,3.5003,3.4908,3.4839,3.4825,3.466,3.4577,3.4481,3.4397,3.4314,3.4243,3.4076,3.3823,3.3666,3.3338,3.3068,3.2797,3.255,3.2463,3.2288,3.2113,3.1849,3.1484,3.1026,3.0668,3.0397,3.0216,3.0034,2.9669,2.9485,2.9209,2.8943,2.8861,2.8894,2.8794,2.8877,2.8913,2.8945,2.9073,2.9213,2.9116,2.9096,2.9075,2.8973,2.8857,2.878,2.866,2.848,2.8367,2.8116,2.7716,2.753,2.7422,2.7098,2.6825,2.6663,2.6445,2.6118,2.5881,2.578,2.5789,2.5569,2.5467,2.5348]},{"header":{"parameterUnit":"m.s-1","parameterCategory":1,"la1":31.0,"la2":29.5877,"lo1":-88.7671,"lo2":-86.6584,"dy":0.0162,"dx":0.0185,"nx":115,"ny":88,"refTime":"2023-03-10T06:00:00:Z","depth":0,"parameterNumber":3,"parameterNumberName":"V-component_of_WINDS"},"data":[0.0,0.0,0.0,0.0,0.0,0.0,0.0,0.0,0.0,0.0,0.0,0.0,0.0,0.0,0.0,0.0,0.0,0.0,0.0,0.0,0.0,0.0,0.0,0.0,0.0,0.0,0.0,0.0,0.0,0.0,0.0,0.0,0.0,0.0,0.0,0.0,0.0,0.0,0.0,0.0,0.0,0.0,0.0,0.0,0.0,0.0,0.0,0.0,0.0,0.0,0.0,0.0,0.0,0.0,0.0,0.0,0.0,0.0,0.0,0.0,0.0,0.0,0.0,0.0,0.0,0.0,0.0,0.0,0.0,0.0,0.0,0.0,0.0,0.0,0.0,0.0,0.0,0.0,0.0,0.0,0.0,0.0,0.0,0.0,0.0,0.0,0.0,0.0,0.0,0.0,0.0,0.0,0.0,0.0,0.0,0.0,0.0,0.0,0.0,0.0,0.0,0.0,0.0,0.0,0.0,0.0,0.0,0.0,0.0,0.0,0.0,0.0,0.0,0.0,0.0,0.0,0.0,0.0,0.0,0.0,0.0,0.0,0.0,0.0,0.0,0.0,0.0,0.0,0.0,0.0,0.0,0.0,0.0,0.0,0.0,0.0,0.0,0.0,0.0,0.0,0.0,0.0,0.0,0.0,0.0,0.0,0.0,0.0,0.0,0.0,0.0,0.0,0.0,0.0,0.0,0.0,0.0,0.0,0.0,0.0,0.0,0.0,0.0,0.0,0.0,0.0,0.0,0.0,0.0,0.0,0.0,0.0,0.0,0.0,0.0,0.0,0.0,0.0,0.0,0.0,0.0,0.0,0.0,0.0,0.0,0.0,0.0,0.0,0.0,0.0,0.0,0.0,0.0,0.0,0.0,0.0,0.0,0.0,0.0,0.0,0.0,0.0,0.0,0.0,0.0,0.0,0.0,0.0,0.0,0.0,0.0,0.0,0.0,0.0,0.0,0.0,0.0,0.0,0.0,0.0,0.0,0.0,0.0,0.0,0.0,0.0,0.0,0.0,0.0,0.0,0.0,0.0,0.0,0.0,0.0,0.0,0.0,0.0,0.0,0.0,0.0,0.0,0.0,0.0,0.0,0.0,0.0,0.0,0.0,0.0,0.0,0.0,0.0,0.0,0.0,0.0,0.0,0.0,0.0,0.0,0.0,0.0,0.0,0.0,0.0,0.0,0.0,0.0,0.0,0.0,0.0,0.0,0.0,0.0,0.0,0.0,0.0,0.0,0.0,0.0,0.0,0.0,0.0,0.0,0.0,0.0,0.0,0.0,0.0,0.0,0.0,0.0,0.0,0.0,0.0,0.0,0.0,0.0,0.0,0.0,0.0,0.0,0.0,0.0,0.0,0.0,0.0,0.0,0.0,0.0,0.0,0.0,0.0,0.0,0.0,0.0,0.0,0.0,0.0,0.0,0.0,0.0,0.0,0.0,0.0,0.0,0.0,0.0,0.0,0.0,0.0,0.0,0.0,0.0,0.0,0.0,0.0,0.0,0.0,0.0,0.0,0.0,0.0,0.0,0.0,0.0,0.0,0.0,0.0,0.0,0.0,0.0,0.0,0.0,0.0,0.0,0.0,0.0,0.0,0.0,0.0,0.0,0.0,0.0,0.0,0.0,0.0,0.0,0.0,0.0,0.0,0.0,0.0,0.0,0.0,0.0,0.0,0.0,0.0,0.0,0.0,0.0,0.0,0.0,0.0,0.0,0.0,0.0,0.0,0.0,0.0,0.0,0.0,0.0,0.0,0.0,0.0,0.0,0.0,0.0,0.0,0.0,0.0,0.0,0.0,0.0,0.0,0.0,0.0,0.0,0.0,0.0,0.0,0.0,0.0,0.0,0.0,0.0,0.0,0.0,0.0,0.0,0.0,0.0,0.0,0.0,0.0,0.0,0.0,0.0,0.0,0.0,0.0,0.0,0.0,0.0,0.0,0.0,0.0,0.0,0.0,0.0,0.0,0.0,0.0,0.0,0.0,0.0,0.0,0.0,0.0,0.0,0.0,0.0,0.0,0.0,0.0,0.0,0.0,0.0,0.0,0.0,0.0,0.0,0.0,0.0,0.0,0.0,0.0,0.0,0.0,0.0,0.0,0.0,0.0,0.0,0.0,0.0,0.0,0.0,0.0,0.0,0.0,0.0,0.0,0.0,0.0,0.0,0.0,0.0,0.0,0.0,0.0,0.0,0.0,0.0,0.0,0.0,0.0,0.0,0.0,0.0,0.0,0.0,0.0,0.0,0.0,0.0,0.0,0.0,0.0,0.0,0.0,0.0,0.0,0.0,0.0,0.0,0.0,0.0,0.0,0.0,0.0,0.0,0.0,0.0,0.0,0.0,0.0,0.0,0.0,0.0,0.0,0.0,0.0,0.0,0.0,0.0,0.0,0.0,0.0,0.0,0.0,0.0,0.0,0.0,0.0,0.0,0.0,0.0,0.0,0.0,0.0,0.0,0.0,0.0,0.0,0.0,0.0,0.0,0.0,0.0,0.0,0.0,0.0,0.0,0.0,0.0,0.0,0.0,0.0,0.0,0.0,0.0,0.0,0.0,0.0,0.0,0.0,0.0,0.0,0.0,0.0,0.0,0.0,0.0,0.0,0.0,0.0,0.0,0.0,0.0,0.0,0.0,0.0,0.0,0.0,0.0,0.0,0.0,0.0,0.0,0.0,0.0,0.0,0.0,0.0,0.0,0.0,0.0,0.0,0.0,0.0,0.0,0.0,0.0,0.0,0.0,0.0,0.0,0.0,0.0,0.0,0.0,0.0,0.0,0.0,0.0,0.0,0.0,0.0,0.0,0.0,0.0,0.0,0.0,0.0,0.0,0.0,0.0,0.0,0.0,0.0,0.0,0.0,0.0,0.0,0.0,0.0,0.0,0.0,0.0,0.0,0.0,0.0,0.0,0.0,0.0,0.0,0.0,0.0,0.0,0.0,0.0,0.0,0.0,0.0,0.0,0.0,0.0,0.0,0.0,0.0,0.0,0.0,0.0,0.0,0.0,0.0,0.0,0.0,0.0,0.0,0.0,0.0,0.0,0.0,0.0,0.0,0.0,0.0,0.0,0.0,0.0,0.0,0.0,0.0,0.0,0.0,0.0,0.0,0.0,0.0,0.0,0.0,0.0,0.0,0.0,0.0,0.0,0.0,0.0,0.0,0.0,0.0,0.0,0.0,0.0,0.0,0.0,0.0,0.0,0.0,0.0,0.0,0.0,0.0,0.0,0.0,0.0,0.0,0.0,0.0,0.0,0.0,0.0,0.0,0.0,0.0,0.0,0.0,0.0,0.0,0.0,0.0,0.0,0.0,0.0,0.0,0.0,0.0,0.0,0.0,0.0,0.0,0.0,0.0,0.0,0.0,0.0,0.0,0.0,0.0,0.0,0.0,0.0,0.0,0.0,0.0,0.0,0.0,0.0,0.0,0.0,0.0,0.0,0.0,0.0,0.0,0.0,0.0,0.0,0.0,0.0,0.0,0.0,0.0,0.0,0.0,0.0,0.0,0.0,0.0,0.0,0.0,0.0,0.0,0.0,0.0,0.0,0.0,0.0,0.0,0.0,0.0,0.0,0.0,0.0,0.0,0.0,0.0,0.0,0.0,0.0,0.0,0.0,0.0,0.0,0.0,0.0,0.0,0.0,0.0,0.0,0.0,0.0,0.0,0.0,0.0,0.0,0.0,0.0,0.0,0.0,0.0,0.0,0.0,0.0,0.0,0.0,0.0,0.0,0.0,0.0,0.0,0.0,0.0,0.0,0.0,0.0,0.0,0.0,0.0,0.0,0.0,0.0,0.0,0.0,0.0,0.0,0.0,0.0,0.0,0.0,0.0,0.0,0.0,0.0,0.0,0.0,0.0,0.0,0.0,0.0,0.0,0.0,0.0,0.0,0.0,0.0,0.0,0.0,0.0,0.0,0.0,0.0,0.0,0.0,0.0,0.0,0.0,0.0,0.0,0.0,0.0,0.0,0.0,0.0,0.0,0.0,0.0,0.0,0.0,0.0,0.0,0.0,0.0,0.0,0.0,0.0,0.0,0.0,0.0,0.0,0.0,0.0,0.0,0.0,0.0,0.0,0.0,0.0,0.0,0.0,0.0,0.0,0.0,0.0,0.0,0.0,0.0,0.0,0.0,0.0,0.0,0.0,0.0,0.0,0.0,0.0,0.0,0.0,0.0,0.0,0.0,0.0,0.0,0.0,0.0,0.0,0.0,0.0,0.0,0.0,0.0,0.0,0.0,0.0,0.0,0.0,0.0,0.0,0.0,0.0,0.0,0.0,-1.3398,0.0,0.0,0.0,0.0,0.0,0.0,0.0,0.0,0.0,0.0,0.0,0.0,0.0,0.0,0.0,0.0,0.0,0.0,0.0,0.0,0.0,0.0,0.0,0.0,0.0,0.0,0.0,0.0,0.0,0.0,0.0,0.0,0.0,0.0,0.0,0.0,0.0,0.0,0.0,0.0,0.0,0.0,0.0,0.0,0.0,0.0,0.0,0.0,0.0,0.0,0.0,0.0,0.0,0.0,0.0,0.0,0.0,0.0,0.0,0.0,0.0,0.0,0.0,0.0,0.0,0.0,0.0,0.0,0.0,0.0,0.0,0.0,0.0,0.0,0.0,0.0,0.0,0.0,0.0,0.0,0.0,0.0,0.0,0.0,0.0,0.0,0.0,0.0,0.0,0.0,0.0,0.0,0.0,0.0,0.0,0.0,0.0,0.0,0.0,0.0,0.0,0.0,0.0,0.0,0.0,0.0,0.0,0.0,0.0,0.0,-1.2705,-1.2705,-1.2705,-1.2881,-1.3228,0.0,0.0,0.0,0.0,0.0,0.0,0.0,0.0,0.0,0.0,0.0,0.0,0.0,0.0,0.0,0.0,0.0,0.0,0.0,0.0,0.0,0.0,0.0,0.0,0.0,0.0,0.0,0.0,0.0,0.0,0.0,0.0,0.0,0.0,0.0,0.0,0.0,0.0,0.0,0.0,0.0,0.0,0.0,0.0,0.0,0.0,0.0,0.0,0.0,0.0,0.0,0.0,0.0,0.0,0.0,0.0,0.0,0.0,0.0,0.0,0.0,0.0,0.0,0.0,0.0,0.0,0.0,0.0,0.0,0.0,0.0,0.0,0.0,0.0,0.0,0.0,0.0,0.0,0.0,0.0,0.0,0.0,0.0,0.0,0.0,0.0,0.0,0.0,0.0,0.0,0.0,0.0,0.0,0.0,0.0,0.0,0.0,0.0,0.0,0.0,0.0,0.0,0.0,0.0,0.0,0.0,0.0,0.0,0.0,0.0,0.0,0.0,-1.2705,-1.2875,-1.3143,0.0,0.0,0.0,0.0,0.0,0.0,0.0,0.0,0.0,0.0,0.0,0.0,0.0,0.0,0.0,0.0,0.0,0.0,0.0,0.0,0.0,0.0,0.0,0.0,0.0,0.0,0.0,0.0,0.0,0.0,0.0,0.0,0.0,0.0,0.0,0.0,0.0,0.0,0.0,0.0,0.0,0.0,0.0,0.0,0.0,0.0,0.0,0.0,0.0,0.0,0.0,0.0,0.0,0.0,0.0,0.0,0.0,0.0,0.0,0.0,0.0,0.0,0.0,0.0,0.0,0.0,0.0,0.0,0.0,0.0,0.0,0.0,0.0,0.0,0.0,0.0,0.0,0.0,0.0,0.0,0.0,0.0,0.0,0.0,0.0,0.0,0.0,0.0,0.0,0.0,0.0,0.0,0.0,0.0,0.0,0.0,0.0,0.0,0.0,0.0,0.0,0.0,0.0,0.0,0.0,0.0,0.0,0.0,0.0,0.0,-1.2448,-1.2448,-1.2619,0.0,-1.3392,0.0,0.0,0.0,0.0,0.0,0.0,0.0,0.0,0.0,0.0,0.0,0.0,0.0,0.0,0.0,0.0,0.0,0.0,0.0,0.0,0.0,0.0,0.0,0.0,0.0,0.0,0.0,0.0,0.0,0.0,0.0,0.0,0.0,0.0,0.0,0.0,0.0,0.0,0.0,0.0,0.0,0.0,0.0,0.0,0.0,0.0,0.0,0.0,0.0,0.0,0.0,0.0,0.0,0.0,0.0,0.0,0.0,0.0,0.0,0.0,0.0,0.0,0.0,0.0,0.0,0.0,0.0,0.0,0.0,0.0,0.0,0.0,0.0,0.0,0.0,0.0,0.0,0.0,0.0,0.0,0.0,0.0,0.0,0.0,0.0,0.0,0.0,0.0,0.0,0.0,0.0,0.0,0.0,0.0,0.0,0.0,0.0,0.0,0.0,0.0,0.0,0.0,0.0,0.0,0.0,0.0,0.0,0.0,0.0,0.0,-1.2203,-1.2357,-1.2619,-1.2966,0.0,0.0,0.0,0.0,0.0,0.0,0.0,0.0,0.0,0.0,0.0,0.0,0.0,0.0,0.0,0.0,0.0,0.0,0.0,0.0,0.0,0.0,0.0,0.0,0.0,0.0,0.0,0.0,0.0,0.0,0.0,0.0,0.0,0.0,0.0,0.0,0.0,0.0,0.0,0.0,0.0,0.0,0.0,0.0,0.0,0.0,0.0,0.0,0.0,0.0,0.0,0.0,0.0,0.0,0.0,0.0,0.0,0.0,0.0,0.0,0.0,0.0,0.0,0.0,0.0,0.0,0.0,0.0,0.0,0.0,0.0,0.0,0.0,0.0,0.0,0.0,0.0,0.0,0.0,0.0,0.0,0.0,0.0,0.0,0.0,0.0,0.0,0.0,0.0,0.0,0.0,0.0,0.0,0.0,0.0,0.0,0.0,0.0,0.0,0.0,0.0,0.0,0.0,0.0,0.0,0.0,0.0,0.0,0.0,0.0,-1.1871,-1.2037,-1.2363,-1.2619,-1.2875,-1.3398,0.0,0.0,0.0,0.0,0.0,0.0,0.0,0.0,0.0,0.0,0.0,0.0,0.0,0.0,0.0,0.0,0.0,0.0,0.0,0.0,0.0,0.0,0.0,0.0,0.0,0.0,0.0,0.0,0.0,0.0,0.0,0.0,0.0,0.0,0.0,0.0,0.0,0.0,0.0,0.0,0.0,0.0,0.0,0.0,0.0,0.0,0.0,0.0,0.0,0.0,0.0,0.0,0.0,0.0,0.0,0.0,0.0,0.0,0.0,0.0,0.0,0.0,0.0,0.0,0.0,0.0,0.0,0.0,0.0,0.0,0.0,0.0,0.0,0.0,0.0,0.0,0.0,0.0,0.0,0.0,0.0,0.0,0.0,0.0,0.0,0.0,0.0,0.0,0.0,0.0,0.0,0.0,0.0,0.0,0.0,0.0,0.0,0.0,0.0,0.0,0.0,0.0,0.0,0.0,0.0,0.0,0.0,0.0,-1.1348,-1.1613,-1.1952,-1.2363,-1.2619,-1.2966,0.0,0.0,0.0,0.0,0.0,0.0,0.0,0.0,0.0,0.0,0.0,0.0,0.0,0.0,0.0,0.0,0.0,0.0,0.0,0.0,0.0,0.0,0.0,0.0,0.0,0.0,0.0,0.0,0.0,0.0,0.0,0.0,0.0,0.0,0.0,0.0,0.0,0.0,0.0,0.0,0.0,0.0,0.0,0.0,0.0,0.0,0.0,0.0,0.0,0.0,0.0,0.0,0.0,0.0,0.0,0.0,0.0,0.0,0.0,0.0,0.0,0.0,0.0,0.0,0.0,0.0,0.0,0.0,0.0,0.0,0.0,0.0,0.0,0.0,0.0,0.0,0.0,0.0,0.0,0.0,0.0,0.0,0.0,0.0,0.0,0.0,0.0,0.0,0.0,0.0,0.0,0.0,0.0,0.0,0.0,0.0,0.0,0.0,0.0,0.0,0.0,0.0,0.0,0.0,0.0,0.0,0.0,0.0,0.0,-1.1267,-1.1527,-1.1866,-1.2118,-1.2369,-1.279,0.0,0.0,0.0,0.0,0.0,0.0,0.0,0.0,0.0,0.0,0.0,0.0,0.0,0.0,0.0,0.0,0.0,0.0,0.0,0.0,0.0,0.0,0.0,0.0,0.0,0.0,0.0,0.0,0.0,0.0,0.0,0.0,0.0,0.0,0.0,0.0,0.0,0.0,0.0,0.0,0.0,0.0,0.0,0.0,0.0,0.0,0.0,0.0,0.0,0.0,0.0,0.0,0.0,0.0,0.0,0.0,0.0,0.0,0.0,0.0,0.0,0.0,0.0,0.0,0.0,0.0,0.0,0.0,0.0,0.0,0.0,0.0,0.0,0.0,0.0,0.0,0.0,0.0,0.0,0.0,0.0,0.0,0.0,0.0,0.0,0.0,0.0,0.0,0.0,0.0,0.0,0.0,0.0,0.0,0.0,0.0,0.0,0.0,0.0,0.0,0.0,0.0,0.0,0.0,0.0,0.0,0.0,0.0,0.0,-1.1462,0.0,-1.202,-1.2277,-1.2458,-1.2837,0.0,0.0,0.0,0.0,0.0,0.0,0.0,0.0,0.0,0.0,0.0,0.0,0.0,0.0,0.0,0.0,0.0,0.0,0.0,0.0,0.0,0.0,0.0,0.0,0.0,0.0,0.0,0.0,0.0,0.0,0.0,0.0,0.0,0.0,0.0,0.0,0.0,0.0,0.0,0.0,0.0,0.0,0.0,0.0,0.0,0.0,0.0,0.0,0.0,0.0,0.0,0.0,0.0,0.0,0.0,0.0,0.0,0.0,0.0,0.0,0.0,0.0,0.0,0.0,0.0,0.0,0.0,0.0,0.0,0.0,0.0,0.0,0.0,0.0,0.0,0.0,0.0,0.0,0.0,0.0,0.0,0.0,0.0,0.0,0.0,0.0,0.0,0.0,0.0,0.0,0.0,0.0,0.0,0.0,0.0,0.0,0.0,0.0,0.0,0.0,0.0,0.0,0.0,0.0,0.0,0.0,0.0,0.0,-1.1483,-1.1698,-1.2191,-1.2472,-1.2768,-1.2713,-1.3027,0.0,0.0,0.0,0.0,0.0,0.0,0.0,0.0,0.0,0.0,0.0,0.0,0.0,0.0,0.0,0.0,0.0,0.0,0.0,0.0,0.0,0.0,0.0,0.0,0.0,0.0,0.0,0.0,0.0,0.0,0.0,0.0,0.0,0.0,0.0,0.0,0.0,0.0,0.0,0.0,0.0,0.0,0.0,0.0,0.0,0.0,0.0,0.0,0.0,0.0,0.0,0.0,0.0,0.0,0.0,0.0,0.0,0.0,0.0,0.0,0.0,0.0,0.0,0.0,0.0,0.0,0.0,0.0,0.0,0.0,0.0,0.0,0.0,0.0,0.0,0.0,0.0,0.0,0.0,0.0,0.0,0.0,0.0,0.0,0.0,0.0,0.0,0.0,0.0,0.0,0.0,0.0,0.0,0.0,0.0,0.0,0.0,0.0,0.0,0.0,0.0,0.0,0.0,0.0,0.0,0.0,0.0,0.0,0.0,-1.1946,-1.2097,-1.2415,-1.2774,-1.2796,-1.3117,0.0,0.0,0.0,0.0,0.0,0.0,0.0,0.0,0.0,0.0,0.0,0.0,0.0,0.0,0.0,0.0,0.0,0.0,0.0,0.0,0.0,0.0,0.0,0.0,0.0,0.0,0.0,0.0,0.0,0.0,0.0,0.0,0.0,0.0,0.0,0.0,0.0,0.0,0.0,0.0,0.0,0.0,0.0,0.0,0.0,0.0,0.0,0.0,0.0,0.0,0.0,0.0,0.0,0.0,0.0,0.0,0.0,0.0,0.0,0.0,0.0,0.0,0.0,0.0,0.0,0.0,0.0,0.0,0.0,0.0,0.0,0.0,0.0,0.0,0.0,0.0,0.0,0.0,0.0,0.0,0.0,0.0,0.0,0.0,0.0,0.0,0.0,0.0,0.0,0.0,0.0,0.0,0.0,0.0,0.0,0.0,0.0,0.0,0.0,0.0,0.0,0.0,0.0,0.0,0.0,0.0,0.0,0.0,0.0,-1.2411,-1.2411,-1.2598,-1.306,-1.2968,-1.3253,-1.3894,0.0,0.0,0.0,0.0,0.0,0.0,0.0,0.0,0.0,0.0,0.0,0.0,0.0,0.0,0.0,0.0,0.0,0.0,0.0,0.0,0.0,0.0,0.0,0.0,0.0,0.0,0.0,0.0,0.0,0.0,0.0,0.0,0.0,0.0,0.0,0.0,0.0,0.0,0.0,0.0,0.0,0.0,0.0,0.0,0.0,0.0,0.0,0.0,0.0,0.0,0.0,0.0,0.0,0.0,0.0,0.0,0.0,0.0,0.0,0.0,0.0,0.0,0.0,0.0,0.0,0.0,0.0,0.0,0.0,0.0,0.0,0.0,0.0,0.0,0.0,0.0,0.0,0.0,0.0,0.0,0.0,0.0,0.0,0.0,0.0,0.0,0.0,0.0,0.0,0.0,0.0,0.0,0.0,0.0,0.0,0.0,0.0,0.0,0.0,0.0,0.0,0.0,0.0,0.0,0.0,0.0,0.0,0.0,-1.2878,-1.2878,-1.3066,-1.3431,-1.3294,-1.3519,0.0,0.0,0.0,0.0,0.0,0.0,0.0,0.0,0.0,0.0,0.0,0.0,0.0,0.0,0.0,0.0,0.0,0.0,0.0,0.0,0.0,0.0,0.0,0.0,0.0,0.0,0.0,0.0,0.0,0.0,0.0,0.0,0.0,0.0,0.0,0.0,0.0,0.0,0.0,0.0,0.0,0.0,0.0,0.0,0.0,0.0,0.0,0.0,0.0,0.0,0.0,0.0,0.0,0.0,0.0,0.0,0.0,0.0,0.0,0.0,0.0,0.0,0.0,0.0,0.0,0.0,0.0,0.0,0.0,0.0,0.0,0.0,0.0,0.0,0.0,0.0,0.0,0.0,0.0,0.0,0.0,0.0,0.0,0.0,0.0,0.0,0.0,0.0,0.0,0.0,0.0,0.0,0.0,0.0,0.0,0.0,0.0,0.0,0.0,0.0,0.0,0.0,0.0,0.0,0.0,0.0,0.0,0.0,0.0,-1.3605,-1.3616,-1.3526,-1.3545,-1.3573,-1.3986,0.0,0.0,0.0,0.0,0.0,0.0,0.0,0.0,0.0,0.0,0.0,0.0,0.0,0.0,0.0,0.0,0.0,0.0,0.0,0.0,0.0,0.0,0.0,0.0,0.0,0.0,0.0,0.0,0.0,0.0,0.0,0.0,0.0,0.0,0.0,0.0,0.0,0.0,0.0,0.0,0.0,0.0,0.0,0.0,0.0,0.0,0.0,0.0,0.0,0.0,0.0,0.0,0.0,0.0,0.0,0.0,0.0,0.0,0.0,0.0,0.0,0.0,0.0,0.0,0.0,0.0,0.0,0.0,0.0,0.0,0.0,0.0,0.0,0.0,0.0,0.0,0.0,0.0,0.0,0.0,0.0,0.0,0.0,0.0,0.0,0.0,0.0,0.0,0.0,0.0,0.0,0.0,0.0,0.0,0.0,0.0,0.0,0.0,0.0,0.0,0.0,0.0,0.0,0.0,0.0,0.0,0.0,0.0,-1.3866,-1.391,-1.4113,-1.4202,-1.3958,-1.405,-1.4208,0.0,0.0,0.0,0.0,0.0,0.0,0.0,0.0,0.0,0.0,0.0,0.0,0.0,0.0,0.0,0.0,0.0,0.0,0.0,0.0,0.0,0.0,0.0,0.0,0.0,0.0,0.0,0.0,0.0,0.0,0.0,0.0,0.0,0.0,0.0,0.0,0.0,0.0,0.0,0.0,0.0,0.0,0.0,0.0,0.0,0.0,0.0,0.0,0.0,0.0,0.0,0.0,0.0,0.0,0.0,0.0,0.0,0.0,0.0,0.0,0.0,0.0,0.0,0.0,0.0,0.0,0.0,0.0,0.0,0.0,0.0,0.0,0.0,0.0,0.0,0.0,0.0,0.0,0.0,0.0,0.0,0.0,0.0,0.0,0.0,0.0,0.0,0.0,0.0,0.0,0.0,0.0,0.0,0.0,0.0,0.0,0.0,0.0,0.0,0.0,0.0,0.0,0.0,0.0,0.0,0.0,0.0,0.0,-1.4231,-1.405,-1.45,-1.4832,-1.4826,-1.446,-1.4485,0.0,0.0,0.0,0.0,0.0,0.0,0.0,0.0,0.0,0.0,0.0,0.0,0.0,0.0,0.0,0.0,0.0,0.0,0.0,0.0,0.0,0.0,0.0,0.0,0.0,0.0,0.0,0.0,0.0,0.0,0.0,0.0,0.0,0.0,0.0,0.0,0.0,0.0,0.0,0.0,0.0,0.0,0.0,0.0,0.0,0.0,0.0,0.0,0.0,0.0,0.0,0.0,0.0,0.0,0.0,0.0,0.0,0.0,0.0,0.0,0.0,0.0,0.0,0.0,0.0,0.0,0.0,0.0,0.0,0.0,0.0,0.0,0.0,0.0,0.0,0.0,0.0,0.0,0.0,0.0,0.0,0.0,0.0,0.0,0.0,0.0,0.0,0.0,0.0,0.0,0.0,0.0,0.0,0.0,0.0,0.0,0.0,0.0,0.0,0.0,0.0,0.0,0.0,0.0,0.0,0.0,0.0,0.0,-1.4712,-1.4814,-1.5179,-1.5305,-1.5305,-1.4861,-1.4857,0.0,0.0,0.0,0.0,0.0,0.0,0.0,0.0,0.0,0.0,0.0,0.0,0.0,0.0,0.0,0.0,0.0,0.0,0.0,0.0,0.0,0.0,0.0,0.0,0.0,0.0,0.0,0.0,0.0,0.0,0.0,0.0,0.0,0.0,0.0,0.0,0.0,0.0,0.0,0.0,0.0,0.0,0.0,0.0,0.0,0.0,0.0,0.0,-1.9478,0.0,0.0,0.0,0.0,0.0,0.0,0.0,0.0,0.0,0.0,0.0,0.0,0.0,0.0,0.0,0.0,0.0,0.0,0.0,0.0,0.0,0.0,0.0,0.0,0.0,0.0,0.0,0.0,0.0,0.0,0.0,0.0,0.0,0.0,0.0,0.0,0.0,0.0,0.0,0.0,0.0,0.0,0.0,0.0,0.0,0.0,0.0,0.0,0.0,0.0,0.0,0.0,0.0,0.0,0.0,0.0,0.0,0.0,0.0,-1.5157,-1.5303,-1.5585,-1.5686,-1.5668,-1.5173,-1.504,0.0,0.0,0.0,0.0,0.0,0.0,0.0,0.0,0.0,0.0,0.0,0.0,0.0,0.0,0.0,0.0,0.0,0.0,0.0,0.0,0.0,0.0,0.0,0.0,0.0,0.0,0.0,0.0,0.0,0.0,0.0,0.0,0.0,0.0,0.0,0.0,0.0,0.0,0.0,0.0,0.0,0.0,0.0,0.0,0.0,0.0,0.0,0.0,0.0,0.0,0.0,0.0,0.0,0.0,0.0,0.0,0.0,0.0,0.0,0.0,0.0,0.0,0.0,0.0,0.0,0.0,0.0,0.0,0.0,0.0,0.0,0.0,0.0,0.0,0.0,0.0,0.0,0.0,0.0,0.0,0.0,0.0,0.0,0.0,0.0,0.0,0.0,0.0,0.0,0.0,0.0,0.0,0.0,0.0,0.0,0.0,0.0,0.0,0.0,0.0,0.0,0.0,0.0,0.0,0.0,0.0,0.0,-1.5419,-1.5493,-1.5512,-1.5823,-1.5867,-1.5825,-1.536,-1.5187,-1.549,0.0,0.0,0.0,0.0,0.0,0.0,0.0,0.0,0.0,0.0,0.0,0.0,0.0,0.0,0.0,0.0,0.0,0.0,0.0,0.0,0.0,0.0,0.0,0.0,0.0,0.0,0.0,0.0,0.0,0.0,0.0,0.0,0.0,0.0,0.0,0.0,0.0,0.0,-1.7114,-1.7874,0.0,0.0,0.0,0.0,0.0,0.0,0.0,0.0,-2.0039,0.0,0.0,0.0,0.0,0.0,0.0,0.0,0.0,0.0,0.0,0.0,0.0,0.0,0.0,0.0,0.0,0.0,0.0,0.0,0.0,0.0,0.0,0.0,0.0,0.0,0.0,0.0,0.0,0.0,0.0,0.0,0.0,0.0,0.0,0.0,0.0,0.0,0.0,0.0,0.0,0.0,0.0,0.0,0.0,0.0,0.0,0.0,0.0,0.0,0.0,0.0,0.0,0.0,0.0,0.0,0.0,-1.5445,-1.5722,-1.5695,-1.55,-1.5934,-1.6001,-1.5565,-1.527,-1.5281,-1.5484,0.0,0.0,0.0,0.0,0.0,0.0,0.0,0.0,0.0,0.0,0.0,0.0,0.0,0.0,0.0,0.0,0.0,0.0,0.0,0.0,0.0,0.0,0.0,0.0,0.0,0.0,0.0,0.0,0.0,0.0,0.0,0.0,0.0,0.0,0.0,0.0,0.0,0.0,0.0,-1.8603,-1.8922,0.0,0.0,0.0,0.0,0.0,0.0,0.0,0.0,-2.0576,0.0,0.0,0.0,0.0,0.0,0.0,0.0,0.0,0.0,0.0,0.0,0.0,0.0,0.0,0.0,0.0,0.0,0.0,0.0,0.0,0.0,0.0,0.0,0.0,0.0,0.0,0.0,0.0,0.0,0.0,0.0,0.0,0.0,0.0,0.0,0.0,0.0,0.0,0.0,0.0,0.0,0.0,0.0,0.0,0.0,0.0,0.0,0.0,0.0,0.0,0.0,0.0,0.0,0.0,0.0,-1.5825,-1.5882,-1.587,-1.591,-1.6006,-1.5946,-1.5713,-1.545,-1.5376,0.0,0.0,0.0,0.0,0.0,0.0,0.0,0.0,0.0,0.0,0.0,0.0,0.0,0.0,0.0,0.0,0.0,0.0,0.0,0.0,0.0,0.0,0.0,0.0,0.0,0.0,0.0,0.0,0.0,0.0,0.0,0.0,0.0,0.0,0.0,0.0,0.0,0.0,0.0,0.0,-1.8843,-1.9002,-1.9002,0.0,0.0,0.0,0.0,0.0,0.0,-2.0644,-2.0886,0.0,0.0,0.0,0.0,0.0,0.0,0.0,0.0,0.0,0.0,0.0,0.0,0.0,0.0,0.0,0.0,0.0,0.0,0.0,0.0,0.0,0.0,0.0,0.0,0.0,0.0,0.0,0.0,0.0,0.0,0.0,0.0,0.0,0.0,0.0,0.0,0.0,0.0,0.0,0.0,0.0,0.0,0.0,0.0,0.0,0.0,0.0,0.0,0.0,0.0,0.0,0.0,0.0,0.0,0.0,-1.6122,-1.6106,-1.6104,-1.6234,-1.6107,-1.5919,-1.5856,-1.5632,-1.5463,0.0,0.0,0.0,0.0,0.0,0.0,0.0,0.0,0.0,0.0,0.0,0.0,0.0,0.0,0.0,0.0,0.0,0.0,0.0,0.0,0.0,0.0,0.0,0.0,0.0,0.0,0.0,0.0,0.0,0.0,0.0,0.0,0.0,0.0,0.0,0.0,0.0,0.0,0.0,0.0,0.0,-1.9073,-1.9073,-1.9304,0.0,0.0,0.0,0.0,-2.1072,-2.1164,0.0,0.0,0.0,0.0,0.0,0.0,0.0,0.0,0.0,0.0,0.0,0.0,0.0,0.0,0.0,0.0,0.0,0.0,0.0,0.0,0.0,0.0,0.0,0.0,0.0,0.0,0.0,0.0,0.0,0.0,0.0,0.0,0.0,0.0,0.0,0.0,0.0,0.0,0.0,0.0,0.0,0.0,0.0,0.0,0.0,0.0,0.0,0.0,0.0,0.0,0.0,0.0,0.0,0.0,0.0,0.0,-1.5735,-1.6293,-1.6404,-1.596,-1.6121,-1.6053,-1.5598,-1.556,-1.539,0.0,0.0,0.0,0.0,0.0,0.0,0.0,0.0,0.0,0.0,0.0,0.0,0.0,0.0,0.0,0.0,0.0,0.0,0.0,0.0,0.0,0.0,0.0,0.0,0.0,0.0,0.0,0.0,0.0,0.0,0.0,0.0,0.0,0.0,0.0,0.0,0.0,0.0,0.0,0.0,0.0,-1.9301,-1.9222,-1.9783,-2.0214,0.0,0.0,-2.1327,-2.125,-2.1481,0.0,0.0,0.0,0.0,0.0,0.0,0.0,0.0,0.0,0.0,0.0,0.0,0.0,0.0,0.0,0.0,0.0,0.0,0.0,0.0,0.0,0.0,0.0,0.0,0.0,0.0,0.0,0.0,0.0,0.0,0.0,0.0,0.0,0.0,0.0,0.0,0.0,0.0,0.0,0.0,0.0,0.0,0.0,0.0,0.0,0.0,0.0,0.0,0.0,0.0,0.0,0.0,0.0,0.0,0.0,-1.6005,-1.6134,-1.6292,-1.6402,-1.6384,-1.6216,-1.6019,-1.5784,-1.5692,-1.5518,0.0,0.0,0.0,0.0,0.0,0.0,0.0,0.0,0.0,0.0,0.0,0.0,0.0,0.0,0.0,0.0,0.0,0.0,0.0,0.0,0.0,0.0,0.0,0.0,0.0,0.0,0.0,0.0,0.0,0.0,0.0,0.0,0.0,0.0,0.0,0.0,0.0,0.0,0.0,0.0,0.0,0.0,-1.9478,-1.991,0.0,0.0,0.0,-2.1865,-2.2264,0.0,0.0,0.0,0.0,0.0,0.0,0.0,0.0,0.0,0.0,0.0,0.0,0.0,0.0,0.0,0.0,0.0,0.0,0.0,0.0,0.0,0.0,0.0,0.0,0.0,0.0,0.0,0.0,0.0,0.0,0.0,0.0,0.0,0.0,0.0,0.0,0.0,0.0,0.0,0.0,0.0,0.0,0.0,0.0,0.0,0.0,0.0,0.0,0.0,0.0,0.0,0.0,0.0,0.0,0.0,0.0,0.0,-1.6385,-1.6406,-1.6429,-1.6553,-1.6179,-1.5972,-1.5862,-1.5875,0.0,0.0,0.0,0.0,0.0,0.0,0.0,0.0,0.0,0.0,0.0,0.0,0.0,0.0,0.0,0.0,0.0,0.0,0.0,0.0,0.0,0.0,0.0,0.0,0.0,0.0,0.0,-1.7461,0.0,0.0,0.0,0.0,0.0,0.0,0.0,0.0,0.0,0.0,0.0,0.0,0.0,0.0,-1.946,-1.9636,-2.0245,-2.0832,0.0,0.0,-2.2508,-2.3062,-2.2869,-2.2772,0.0,0.0,0.0,0.0,0.0,0.0,0.0,0.0,0.0,0.0,0.0,0.0,0.0,0.0,0.0,0.0,0.0,0.0,0.0,0.0,0.0,0.0,0.0,0.0,0.0,0.0,0.0,0.0,0.0,0.0,0.0,0.0,0.0,0.0,0.0,0.0,0.0,0.0,0.0,0.0,0.0,0.0,0.0,0.0,0.0,0.0,0.0,0.0,0.0,0.0,0.0,0.0,0.0,0.0,0.0,-1.6077,-1.6671,-1.6704,-1.6252,-1.6164,-1.6055,-1.5858,-1.5858,-1.5585,0.0,0.0,0.0,0.0,0.0,0.0,0.0,0.0,0.0,0.0,0.0,0.0,0.0,0.0,0.0,0.0,0.0,0.0,0.0,0.0,0.0,0.0,0.0,0.0,0.0,0.0,0.0,0.0,0.0,0.0,0.0,0.0,0.0,0.0,0.0,0.0,0.0,0.0,0.0,0.0,0.0,-1.9863,-1.9872,-2.0785,-2.1467,0.0,0.0,-2.3371,-2.3257,-2.3114,-2.3127,-2.3345,0.0,0.0,0.0,0.0,0.0,0.0,0.0,0.0,0.0,0.0,0.0,0.0,0.0,0.0,0.0,0.0,0.0,0.0,0.0,0.0,0.0,0.0,0.0,0.0,0.0,0.0,0.0,0.0,0.0,0.0,0.0,0.0,0.0,0.0,0.0,0.0,0.0,0.0,0.0,0.0,0.0,0.0,0.0,0.0,0.0,0.0,0.0,0.0,0.0,0.0,0.0,0.0,0.0,-1.6533,-1.647,-1.6723,-1.6765,-1.669,-1.6421,-1.613,-1.6028,-1.5752,-1.5378,0.0,0.0,0.0,0.0,0.0,0.0,0.0,0.0,0.0,0.0,0.0,0.0,0.0,0.0,0.0,0.0,0.0,0.0,0.0,0.0,0.0,0.0,0.0,0.0,0.0,0.0,0.0,0.0,-1.8144,-1.8144,-1.8144,0.0,0.0,0.0,0.0,0.0,0.0,0.0,0.0,0.0,0.0,-1.9951,-2.0108,-2.0825,0.0,0.0,-2.2784,-2.3659,-2.3921,-2.3732,-2.3674,-2.3967,-2.3753,0.0,0.0,0.0,0.0,0.0,0.0,0.0,0.0,0.0,0.0,0.0,0.0,0.0,0.0,0.0,0.0,0.0,0.0,0.0,0.0,0.0,0.0,0.0,0.0,0.0,0.0,0.0,0.0,0.0,0.0,0.0,0.0,0.0,0.0,0.0,0.0,0.0,0.0,0.0,0.0,0.0,0.0,0.0,0.0,0.0,0.0,0.0,0.0,0.0,0.0,0.0,0.0,-1.6751,-1.6815,-1.6862,-1.7011,-1.7066,-1.669,-1.6414,-1.6305,-1.5831,-1.5524,0.0,0.0,0.0,0.0,0.0,0.0,0.0,0.0,0.0,0.0,0.0,0.0,0.0,0.0,0.0,0.0,0.0,0.0,0.0,0.0,0.0,0.0,0.0,0.0,0.0,0.0,0.0,0.0,-1.8482,-1.8549,-1.8617,0.0,0.0,0.0,0.0,0.0,0.0,0.0,0.0,0.0,0.0,-2.0342,-2.0508,-2.1017,-2.155,-2.2038,-2.2786,-2.3555,-2.4186,-2.4082,-2.41,-2.4639,0.0,0.0,0.0,0.0,0.0,0.0,0.0,0.0,0.0,0.0,0.0,0.0,0.0,0.0,0.0,0.0,0.0,0.0,0.0,0.0,0.0,0.0,0.0,0.0,0.0,0.0,0.0,0.0,0.0,0.0,-1.4482,0.0,0.0,0.0,0.0,0.0,0.0,0.0,0.0,0.0,0.0,0.0,0.0,0.0,0.0,0.0,0.0,0.0,0.0,0.0,0.0,0.0,0.0,-1.6986,-1.7064,-1.7131,-1.7194,-1.7318,-1.7066,-1.6878,-1.6574,-1.6281,-1.5973,-1.5658,0.0,0.0,0.0,0.0,0.0,0.0,0.0,0.0,0.0,0.0,0.0,0.0,0.0,0.0,0.0,0.0,0.0,0.0,0.0,0.0,0.0,0.0,0.0,0.0,0.0,0.0,-1.8549,-1.8549,-1.8607,0.0,0.0,0.0,0.0,0.0,0.0,0.0,0.0,0.0,0.0,-2.1205,-2.1205,-2.1205,-2.1499,-2.1759,-2.18,-2.2563,-2.3258,-2.3805,-2.4115,-2.4664,0.0,0.0,0.0,0.0,0.0,0.0,0.0,0.0,0.0,0.0,0.0,0.0,0.0,0.0,0.0,0.0,0.0,0.0,0.0,0.0,0.0,0.0,0.0,0.0,0.0,0.0,0.0,-1.399,-1.4146,0.0,0.0,0.0,0.0,0.0,0.0,0.0,0.0,0.0,0.0,0.0,-1.6492,-1.6648,0.0,0.0,0.0,0.0,0.0,0.0,0.0,0.0,0.0,0.0,0.0,0.0,-1.7107,-1.7311,-1.7282,-1.7522,-1.7785,-1.7434,-1.7153,-1.7052,-1.6274,-1.5669,-1.534,0.0,0.0,0.0,0.0,0.0,0.0,0.0,0.0,0.0,0.0,0.0,0.0,0.0,0.0,0.0,0.0,0.0,0.0,0.0,0.0,0.0,0.0,0.0,0.0,0.0,-1.8818,0.0,0.0,0.0,0.0,0.0,0.0,0.0,0.0,0.0,0.0,0.0,-2.1359,-2.1205,-2.1215,-2.1215,-2.1215,-2.1403,-2.1761,0.0,0.0,0.0,0.0,0.0,0.0,0.0,0.0,0.0,0.0,0.0,0.0,0.0,0.0,-2.8556,-2.8499,-2.8473,-2.8618,-2.8833,0.0,0.0,0.0,0.0,0.0,0.0,0.0,0.0,0.0,0.0,0.0,0.0,0.0,0.0,0.0,0.0,-1.5063,0.0,0.0,0.0,0.0,0.0,0.0,0.0,0.0,-1.7012,-1.7179,-1.7347,-1.7383,-1.7483,0.0,-1.7449,-1.7302,0.0,0.0,0.0,0.0,0.0,0.0,0.0,0.0,-1.7349,-1.758,-1.7549,-1.771,-1.8156,-1.774,-1.7554,-1.7435,-1.6453,-1.5878,-1.5438,-1.5575,-1.5516,0.0,0.0,0.0,0.0,0.0,0.0,0.0,0.0,0.0,0.0,0.0,0.0,0.0,0.0,0.0,0.0,0.0,0.0,0.0,0.0,0.0,0.0,0.0,-1.9142,0.0,0.0,0.0,0.0,0.0,0.0,0.0,0.0,0.0,-2.0441,-2.1238,-2.1731,-2.1655,-2.1578,-2.1655,-2.1578,0.0,0.0,0.0,0.0,0.0,0.0,0.0,-2.5273,-2.652,-2.6834,-2.7067,-2.7758,-2.8387,-2.9024,-2.9591,0.0,0.0,-2.9576,-2.9499,-2.9559,-2.9862,-2.9836,-2.9847,-3.0144,-3.0097,-3.005,0.0,0.0,0.0,0.0,0.0,0.0,0.0,0.0,-1.5739,-1.5739,0.0,-1.5917,0.0,0.0,0.0,0.0,0.0,-1.7676,0.0,0.0,-1.837,-1.8551,-1.8518,-1.8186,-1.8112,-1.8004,-1.7664,-1.7579,-1.7716,-1.7554,0.0,0.0,0.0,0.0,0.0,0.0,-1.7573,-1.7869,-1.7792,-1.7954,-1.8295,-1.8171,-1.7903,-1.7545,-1.6927,-1.6446,-1.611,-1.6087,-1.5863,-1.5428,-1.5543,0.0,0.0,0.0,0.0,0.0,0.0,0.0,0.0,0.0,0.0,0.0,0.0,0.0,0.0,0.0,0.0,0.0,0.0,0.0,0.0,-1.9473,0.0,0.0,0.0,0.0,0.0,0.0,0.0,0.0,0.0,0.0,-2.1073,-2.1849,-2.2402,-2.2402,0.0,0.0,0.0,0.0,-2.2402,-2.2402,-2.2777,-2.334,-2.4379,-2.5216,-2.6014,-2.7094,0.0,0.0,-2.9611,-2.9998,-3.0203,-3.0622,-3.081,-3.0986,-3.0947,-3.0908,-3.1084,-3.1468,-3.1089,-3.0887,-3.1202,-3.0907,-3.0624,-1.7244,0.0,0.0,0.0,0.0,-1.6293,-1.6286,-1.6293,-1.6389,-1.647,-1.647,-1.672,0.0,0.0,0.0,0.0,0.0,0.0,-1.83,-1.8387,-1.8646,-1.8904,-1.899,-1.9059,-1.9169,-1.9321,-1.8955,-1.8772,-1.8836,-1.8493,-1.829,-1.8112,0.0,0.0,0.0,0.0,-1.7729,-1.7936,-1.812,-1.8472,-1.8742,-1.8398,-1.7811,-1.6896,-1.6698,-1.6438,-1.6102,-1.6245,-1.609,-1.5583,-1.5928,0.0,0.0,0.0,0.0,0.0,0.0,0.0,0.0,0.0,0.0,0.0,0.0,0.0,0.0,0.0,0.0,0.0,0.0,0.0,-1.9483,-1.9681,-1.9802,0.0,0.0,0.0,0.0,0.0,0.0,0.0,0.0,0.0,-2.1973,-2.2189,-2.2392,0.0,0.0,-2.2392,-2.2392,-2.2392,-2.2478,-2.2767,0.0,0.0,0.0,-2.5449,-2.6248,-2.7681,-2.8736,-2.9546,-2.9792,-3.0177,-3.0622,-3.0836,-3.1061,-3.1272,-3.1582,-3.1522,-3.1535,-3.173,-3.1815,-3.1839,-3.2027,-3.202,-3.1985,-1.8975,-1.8013,-1.7566,-1.7394,-1.7386,-1.7386,-1.7394,-1.7394,-1.7581,-1.7581,-1.7573,-1.7745,-1.7827,-1.7916,-1.837,0.0,0.0,0.0,-1.9255,-1.9343,-1.9598,-1.9773,-1.9948,-1.9895,-1.9998,-2.0143,-1.9769,-1.9498,-1.9573,-1.9272,-1.9084,-1.8985,0.0,0.0,-1.829,-1.8201,-1.8151,-1.8226,-1.8423,-1.8631,-1.8857,-1.8414,-1.7778,-1.7117,-1.6967,-1.6794,-1.659,-1.673,-1.6493,-1.5891,-1.6319,-1.6287,0.0,0.0,0.0,0.0,0.0,0.0,0.0,0.0,0.0,0.0,0.0,-1.8808,-1.8875,0.0,0.0,0.0,-1.9483,-1.9605,-1.9726,-2.0106,0.0,0.0,0.0,0.0,0.0,0.0,0.0,-2.2232,-2.2533,-2.2717,-2.2783,-2.2826,-2.2841,-2.2628,-2.2628,-2.2703,-2.2777,0.0,-2.2852,-2.3224,-2.3298,-2.3854,-2.529,-2.5758,-2.6569,-2.8251,-2.9234,-2.9869,-3.0011,-3.0457,-3.0836,-3.1061,-3.1347,-3.1582,-3.1817,-3.189,-3.195,-3.2082,-3.2155,-3.2359,-3.2561,-3.2789,-3.2904,-2.0853,-2.0425,-1.9504,-1.9028,-1.892,-1.892,-1.8912,-1.892,-1.8912,-1.892,-1.892,-1.892,-1.9004,-1.9279,-1.9579,0.0,-2.0019,-2.0201,-2.0456,-2.0744,-2.1006,-2.1087,-2.1069,-2.0819,-2.0667,-2.0658,-2.0256,-2.0059,-2.0032,-1.9998,-1.998,-1.9962,-1.9255,-1.8807,-1.8772,-1.8692,-1.8709,-1.8709,-1.8681,-1.8631,-1.8622,-1.8196,-1.7928,-1.7811,-1.7573,-1.74,-1.7392,-1.7392,-1.7062,-1.6445,-1.6691,-1.6576,-1.5919,0.0,0.0,0.0,0.0,0.0,0.0,0.0,0.0,0.0,0.0,0.0,0.0,0.0,0.0,0.0,-1.9756,0.0,-2.0052,-2.0786,0.0,0.0,0.0,-2.2239,-2.2273,-2.2284,-2.2453,-2.2925,0.0,0.0,-2.3537,-2.3593,-2.3457,-2.3075,-2.3086,-2.315,-2.3298,-2.3298,-2.3372,-2.3593,-2.3751,-2.43,-2.5394,-2.6077,-2.7114,-2.8868,-2.9534,-3.0011,-3.0381,-3.0748,-3.1048,-3.1286,-3.1656,-3.189,-3.189,-3.2155,-3.2417,-3.2417,-3.2417,-3.2561,-3.2917,-3.3157,-3.3382,-2.2269,-2.1925,-2.1651,-2.0915,-1.9928,-1.992,-1.9928,-1.992,-1.9745,-1.9654,-1.9654,-1.9487,-1.9662,-2.0102,-2.0292,-2.0564,-2.0727,-2.0817,-2.1015,-2.1203,-2.1472,-2.1651,-2.1811,-2.1789,-2.1831,-2.1919,-2.1748,-2.1541,-2.1314,-2.1081,-2.0874,-2.0846,-2.0379,-1.9783,-1.9161,-1.8851,-1.8709,-1.8709,-1.8901,-1.892,-1.8596,-1.8505,-1.8129,-1.7532,-1.7441,-1.7392,-1.7392,-1.7392,-1.7221,-1.6818,-1.6851,-1.6798,-1.6456,-1.6691,0.0,0.0,0.0,0.0,0.0,0.0,0.0,0.0,0.0,-1.9075,-1.9208,0.0,-1.9565,0.0,-2.082,-2.1243,-2.138,-2.1616,0.0,0.0,-2.2069,-2.2432,-2.2922,-2.2967,-2.316,-2.3575,-2.3643,-2.3616,-2.3582,-2.3593,-2.3593,-2.3446,-2.3446,-2.3446,-2.3519,-2.3519,-2.3604,-2.3824,-2.397,-2.4418,-2.5263,-2.6617,-2.8025,-2.9434,-2.9998,-3.0305,-3.0609,-3.0986,-3.1286,-3.1522,-3.1743,-3.1963,-3.2214,-3.2345,-3.2561,-3.2775,-3.2846,-3.2917,-3.3157,-3.3382,-3.3605,-2.372,-2.3341,-2.306,-2.2481,-2.1708,-2.1176,-2.0835,-2.0753,-2.0663,-2.0473,-2.0365,-2.0292,-2.0382,-2.0654,-2.0925,-2.1105,-2.1275,-2.1454,-2.1642,-2.183,-2.1909,-2.2087,-2.2264,-2.2227,-2.2227,-2.2432,-2.2436,-2.2322,-2.2082,-2.176,-2.1654,-2.1635,-2.1215,-2.0799,-2.023,-1.9574,-1.924,-1.925,-1.9209,-1.9074,-1.8676,-1.8684,-1.8417,-1.7976,-1.7968,-1.7968,-1.7968,-1.7968,-1.7854,-1.7499,-1.7383,-1.7229,-1.6981,-1.7139,-1.7323,0.0,0.0,0.0,0.0,0.0,0.0,0.0,0.0,0.0,0.0,0.0,-2.0126,-2.0928,-2.1498,-2.179,-2.1871,-2.2268,-2.2531,-2.2601,-2.3015,-2.3406,-2.3741,-2.3835,-2.395,-2.4154,-2.4189,-2.4116,-2.3897,-2.3909,-2.3897,-2.3897,-2.3897,-2.3824,-2.3751,-2.3751,-2.3824,-2.4127,-2.4273,-2.4746,-2.573,-2.7203,-2.858,-2.9564,-3.0152,-3.052,-3.0761,-3.1149,-3.1508,-3.1669,-3.1963,-3.2155,-3.2345,-3.2561,-3.2775,-3.2917,-3.3143,-3.3297,-3.3396,-3.3675,-3.3937,-2.5006,-2.4585,-2.4144,-2.3848,-2.358,-2.2443,-2.183,-2.1482,-2.1491,-2.1374,-2.1087,-2.1087,-2.1168,-2.1177,-2.1383,-2.1651,-2.182,-2.2097,-2.2274,-2.252,-2.252,-2.253,-2.2608,-2.2492,-2.2403,-2.2618,-2.2754,-2.2754,-2.2599,-2.2438,-2.2436,-2.2407,-2.1981,-2.1748,-2.1636,-2.0723,-2.0153,-2.0027,-1.9613,-1.9286,-1.8772,-1.878,-1.878,-1.87,-1.8709,-1.8709,-1.8709,-1.8709,-1.8505,-1.8193,-1.7988,-1.7852,-1.7668,-1.7624,-1.7703,0.0,-1.8242,0.0,0.0,0.0,0.0,0.0,0.0,0.0,0.0,-2.0387,-2.0876,-2.1647,-2.1945,-2.2129,-2.2129,-2.2849,-2.331,-2.3393,-2.4068,-2.4562,-2.4562,-2.4718,-2.4718,-2.4574,-2.4562,-2.449,-2.4273,-2.4261,-2.4273,-2.4273,-2.4273,-2.42,-2.4055,-2.3982,-2.4116,-2.4502,-2.4574,-2.5156,-2.6514,-2.7716,-2.8737,-2.9592,-3.019,-3.0596,-3.0986,-3.1373,-3.1669,-3.189,-3.2141,-3.2417,-3.2417,-3.2775,-3.2988,-3.3058,-3.3382,-3.3605,-3.3675,-3.3868,-3.4196,-2.6019,-2.5485,-2.5147,-2.4666,-2.4296,-2.3682,-2.2969,-2.2176,-2.2008,-2.183,-2.1553,-2.182,-2.1919,-2.1909,-2.2087,-2.2264,-2.2264,-2.253,-2.2803,-2.296,-2.3232,-2.3406,-2.3484,-2.3367,-2.3367,-2.358,-2.3717,-2.3717,-2.3493,-2.3491,-2.3461,-2.3441,-2.3108,-2.2898,-2.2868,0.0,0.0,0.0,-2.0382,-1.9962,-1.924,-1.9143,-1.9002,-1.87,-1.8709,0.0,-1.8709,-1.8709,-1.8602,-1.8366,-1.8488,0.0,0.0,0.0,0.0,0.0,0.0,0.0,0.0,0.0,0.0,0.0,-2.0354,-2.0495,-2.0832,-2.1528,-2.2084,-2.2364,-2.2789,-2.3178,-2.348,-2.3838,-2.4051,-2.4279,-2.4576,-2.4718,-2.4729,-2.479,-2.4801,-2.4718,-2.4718,-2.4718,-2.4646,-2.4729,-2.4729,-2.4646,-2.4718,-2.4634,-2.4646,-2.4502,-2.449,-2.4706,-2.4981,-2.5552,-2.6542,-2.7617,-2.8522,-2.9363,-3.0188,-3.0722,-3.1136,-3.1447,-3.1683,-3.189,-3.2141,-3.2489,-3.2632,-3.2846,-3.3143,-3.3437,-3.3675,-3.3827,-3.3827,-3.4088,-3.4414,-2.7107,0.0,-2.6175,-2.5681,0.0,-2.4472,-2.3841,-2.3232,-2.2969,-2.2618,-2.2441,-2.2539,-2.2627,-2.2627,-2.2794,-2.2969,-2.2969,-2.3144,-2.3319,-2.3484,-2.358,-2.3667,-2.3841,-2.3851,-2.3851,-2.3841,-2.3988,-2.3978,-2.3841,-2.3841,-2.3841,-2.3841,-2.3619,-2.3509,-2.3499,-2.3118,-2.2345,-2.1034,-2.0833,-2.0462,-2.0014,-1.972,-1.946,-1.932,0.0,0.0,0.0,0.0,0.0,0.0,0.0,0.0,0.0,0.0,0.0,-1.9268,-1.9451,-1.9727,-2.0001,-2.0288,-2.0514,-2.0896,-2.1406,-2.1667,-2.1525,-2.2306,-2.2871,-2.2933,-2.3312,-2.3751,-2.4043,-2.4273,-2.4418,-2.4634,-2.4849,-2.4921,-2.4992,-2.4981,-2.5052,-2.4992,-2.4921,-2.4921,-2.4801,-2.4801,-2.4801,-2.4801,-2.4801,-2.4861,-2.4921,-2.479,-2.4718,-2.4992,-2.5477,-2.6024,-2.6813,-2.7423,-2.8299,-2.9391,-3.0051,-3.066,-3.132,-3.1596,-3.1817,-3.2096,-3.2345,-3.2632,-3.2846,-3.3058,-3.3368,-3.3605,-3.3799,-3.402,-3.4157,-3.4361,-3.4631,-2.7987,-2.7913,-2.6998,-2.6525,-2.6283,-2.5096,-2.454,-2.4368,0.0,0.0,0.0,-2.3222,-2.3232,-2.3232,-2.3503,-2.359,-2.358,-2.3754,-2.3841,-2.3927,-2.4013,-2.4013,-2.4013,-2.414,-2.414,-2.3937,-2.4064,-2.4054,-2.3927,-2.3927,-2.3927,-2.3927,-2.3927,-2.3927,-2.3841,-2.3841,-2.3212,-2.1997,-2.1487,-2.1043,-2.0657,-2.0305,-2.0017,-1.9872,-1.9872,-1.9872,-1.9872,-1.9872,-1.9872,-1.9863,-1.962,-1.9516,-1.9726,-1.9425,-1.9434,-1.9796,-1.9975,-2.0183,-2.04,-2.0535,-2.0897,-2.1502,-2.2243,-2.253,-2.2215,-2.2845,-2.3298,-2.3372,-2.3751,-2.4043,-2.42,-2.449,-2.4706,-2.4861,-2.5052,-2.5182,-2.5265,-2.5312,-2.5431,-2.5361,-2.5337,-2.5242,-2.5218,-2.5075,-2.5004,-2.5004,-2.5076,-2.5064,-2.5194,-2.5064,-2.5064,-2.5394,-2.5828,-2.642,-2.7005,-2.7468,-2.8157,-2.9176,-2.9855,-3.05,-3.1216,-3.175,-3.2023,-3.2359,-3.2561,-3.2775,-3.3002,-3.3312,-3.3605,-3.3675,-3.3922,-3.4196,-3.4481,-3.4616,-3.4898,-2.7987,-2.7913,-2.7009,-2.6626,-2.6451,-2.5518,-2.5115,-2.4946,-2.4176,-2.3754,-2.3667,-2.3667,-2.3667,-2.3754,-2.3754,-2.3764,-2.3754,-2.4024,-2.4196,0.0,-2.4605,-2.4775,-2.4775,-2.4786,-2.4615,-2.4368,-2.4464,-2.4464,-2.4368,-2.4368,-2.4454,-2.4358,-2.4368,-2.4292,-2.4206,-2.412,-2.3963,-2.3467,-2.2899,-2.2056,-2.0899,-2.0822,-2.0461,-1.996,-1.9872,-1.9872,-1.9872,-1.9863,-1.9872,-1.9863,-2.0051,-2.0168,-2.0159,-2.0059,-2.0226,-2.0658,-2.0747,-2.092,-2.1288,-2.146,-2.1793,-2.2221,-2.251,-2.2745,-2.284,-2.3106,-2.3372,-2.3519,-2.3897,-2.4273,-2.4418,-2.4778,-2.5088,-2.5277,-2.5407,-2.5618,-2.5832,-2.5819,-2.599,-2.6394,-2.6039,-2.599,-2.6273,-2.6029,-2.5786,-2.5725,-2.5654,-2.57,-2.5688,-2.5618,-2.5618,-2.5828,-2.6094,-2.6396,-2.6697,-2.7411,-2.8022,-2.8317,-2.947,-3.0349,-3.0863,-3.1541,-3.2173,-3.2417,-3.2704,-3.3002,-3.3241,-3.3466,-3.3744,-3.3937,-3.421,-3.4467,-3.4735,-3.5016,-3.5213,-2.8222,-2.792,-2.7252,-2.6821,-2.654,-2.5765,-2.5285,-2.52,-2.4775,-2.4509,-2.4519,-2.4519,-2.4519,-2.4519,-2.4605,-2.4519,-2.4519,-2.47,-2.4786,-2.4871,-2.5031,-2.502,-2.5031,-2.5031,-2.5031,-2.4871,-2.4861,-2.4861,-2.4871,-2.4786,-2.47,-2.47,-2.454,-2.4454,-2.4368,-2.4378,-2.4292,-2.4024,-2.3418,-2.2745,-2.1997,-2.1536,-2.1024,-2.0611,-2.038,-2.0255,-2.0255,-2.0255,-2.0255,-2.0245,-2.042,-2.0498,-2.0586,-2.0621,-2.0755,-2.1185,-2.1253,-2.1374,-2.1634,-2.1949,-2.2262,-2.2542,-2.2852,-2.3075,-2.315,-2.3372,-2.3604,-2.3897,-2.42,-2.449,-2.479,-2.5373,-2.5757,-2.5888,-2.6346,-2.6674,-2.6758,-2.6758,-2.6844,-2.7066,-2.6906,-2.6857,-2.709,-2.6906,-2.6623,-2.6402,-2.6131,-2.598,-2.6176,-2.6082,-2.6082,-2.6164,-2.6427,-2.6633,-2.685,-2.7259,-2.7841,-2.8333,-2.9108,-2.9927,-3.0646,-3.15,-3.2003,-3.2492,-3.2931,-3.3227,-3.3466,-3.366,-3.3937,-3.421,-3.4414,-3.4683,-3.5016,-3.5329,-3.5668,-2.8386,-2.7992,-2.7403,-2.6889,-2.6441,-2.589,-2.5559,-2.538,-2.538,-2.538,-2.538,-2.5285,-2.52,-2.52,-2.52,-2.52,-2.52,-2.52,-2.52,-2.5285,-2.5295,-2.5285,-2.5285,-2.5285,-2.5285,-2.52,-2.52,-2.52,-2.52,-2.5031,-2.4946,-2.4861,-2.4615,-2.455,-2.455,-2.455,-2.4454,-2.4262,-2.3764,-2.3297,-2.2924,-2.2257,-2.1788,-2.1428,-2.1026,-2.0791,-2.0713,-2.0615,-2.0576,-2.0566,-2.0644,-2.0731,-2.0896,-2.0984,-2.1205,-2.1512,-2.1589,-2.1655,-2.1873,-2.2187,-2.2478,-2.2703,-2.3075,-2.3353,-2.3527,-2.3761,-2.4067,-2.4361,-2.4615,-2.494,-2.5528,-2.6057,-2.6518,-2.6676,-2.7225,-2.7557,-2.7693,-2.7693,-2.7767,-2.7915,-2.7853,-2.7779,-2.7903,-2.7841,-2.753,-2.7021,-2.6611,-2.6489,-2.6546,-2.6564,-2.6564,-2.6633,-2.6714,-2.693,-2.7268,-2.7403,-2.7732,-2.8449,-2.8824,-2.9589,-3.0548,-3.1221,-3.1956,-3.2623,-3.3086,-3.3452,-3.3675,-3.3937,-3.421,-3.4414,-3.4616,-3.4949,-3.5279,-3.5718,-3.6037,-2.808,-2.7905,-2.7075,-2.6409,-2.5994,-2.5917,-2.5822,-2.5812,-2.5812,-2.5822,-2.5812,-2.5369,-2.52,-2.52,-2.52,-2.52,-2.52,-2.52,-2.5369,-2.5559,-2.5559,-2.5559,-2.5559,-2.557,-2.5464,-2.5285,-2.52,-2.5274,-2.5285,-2.52,-2.5115,-2.4861,-2.4625,-2.454,-2.455,-2.455,-2.4454,-2.4464,-2.4413,-2.4026,-2.3217,-2.3116,-2.2719,-2.2155,-2.1709,-2.1402,-2.1162,-2.0781,-2.0576,-2.0644,-2.0829,-2.0916,-2.0906,-2.1205,-2.1436,-2.1502,-2.1655,-2.1883,-2.2025,-2.2252,-2.2488,-2.2703,-2.3097,-2.3594,-2.4209,-2.4641,-2.4877,-2.505,-2.5284,-2.5808,-2.6608,-2.694,-2.7286,-2.7643,-2.7816,-2.7938,-2.8306,-2.829,-2.8566,-2.9247,-2.8855,-2.8797,-2.9083,-2.8829,-2.8392,-2.7901,-2.7672,-2.75,-2.7212,-2.7126,-2.7156,-2.7253,-2.7281,-2.7268,-2.7335,-2.759,-2.7775,-2.8014,-2.8599,-2.9457,-3.0351,-3.1212,-3.2083,-3.2919,-3.3382,-3.3675,-3.3922,-3.4196,-3.4399,-3.4683,-3.4949,-3.5264,-3.5574,-3.5943,-3.6148,-2.7619,-2.7173,-2.6791,-2.6343,-2.5928,-2.5895,-2.5895,-2.5895,-2.5895,-2.5895,-2.5906,-2.5728,-2.5633,-2.5633,-2.5633,-2.5644,-2.5633,-2.5633,-2.5644,-2.5728,-2.5822,-2.5728,-2.5822,-2.5728,-2.5728,-2.5633,-2.5644,-2.5644,-2.5549,-2.5464,-2.5295,-2.4946,-2.4775,-2.4711,-2.455,-2.455,-2.455,-2.455,-2.455,-2.4276,-2.4006,-2.3571,-2.32,-2.2822,-2.2411,-2.218,-2.2018,-2.1839,-2.163,-2.1391,-2.145,-2.1409,-2.1292,-2.1436,-2.1578,-2.1665,-2.1883,-2.2111,-2.2252,-2.2478,-2.2832,-2.3503,-2.3816,-2.4307,-2.5085,-2.5447,-2.5867,-2.6493,-2.6467,-2.6608,-2.7049,-2.7641,-2.8213,-2.8475,-2.8863,-2.929,-2.9514,-2.9576,-2.9704,-2.9984,-2.983,-2.974,-2.9894,-2.9535,-2.9125,-2.8818,-2.873,-2.8498,-2.836,-2.8157,-2.8072,-2.821,-2.8053,-2.7749,-2.7669,-2.7789,-2.7987,-2.8158,-2.8502,-2.9211,-3.0378,-3.0965,-3.1832,-3.3059,-3.3577,-3.3882,-3.4196,-3.4414,-3.4683,-3.4949,-3.5264,-3.5574,-3.5943,-3.607,-3.6274,-2.7261,-2.666,-2.6485,-2.6234,-2.5906,-2.5895,-2.5895,-2.5895,-2.5895,-2.5895,-2.5895,-2.5895,-2.5895,-2.5895,-2.5895,-2.5895,-2.5895,-2.5895,-2.5895,-2.5895,-2.5895,-2.5895,-2.5895,-2.5895,-2.5895,-2.5895,-2.5895,-2.5895,-2.5906,-2.5728,-2.5391,-2.5031,-2.4946,-2.4775,-2.454,-2.455,-2.455,-2.455,-2.455,-2.455,-2.4413,-2.405,-2.3706,-2.3422,-2.3029,-2.2806,-2.2724,-2.2613,-2.2483,-2.208,-2.214,-2.2068,-2.191,-2.1957,-2.2035,-2.2257,-2.2478,-2.2622,-2.2862,-2.3102,-2.3482,-2.4194,-2.4534,-2.5119,-2.5761,-2.6198,-2.6818,-2.7699,-2.7702,-2.7585,-2.7836,-2.8548,-2.9075,-2.9341,-2.9859,-3.0216,-3.0419,-3.0444,-3.0495,-3.052,-3.0519,-3.0596,-3.062,-3.0297,-2.9986,-2.9813,-2.9647,-2.9379,-2.9416,-2.9174,-2.9048,-2.924,-2.8879,-2.8465,-2.8027,-2.8052,-2.8183,-2.8368,-2.8644,-2.949,-3.0554,-3.1098,-3.1867,-3.3323,-3.3742,-3.4088,-3.4414,-3.4683,-3.4949,-3.5264,-3.5574,-3.5879,-3.607,-3.6211,-3.6399,-2.6671,-2.6562,-2.6125,-2.5939,-2.5895,-2.5895,-2.5895,-2.5895,-2.5895,-2.5895,-2.5895,-2.5895,-2.5895,-2.5895,-2.5895,-2.5895,-2.5895,-2.5895,-2.5895,-2.5895,-2.5895,-2.5895,-2.5895,-2.5895,-2.5895,-2.5895,-2.5895,-2.5895,-2.5906,-2.5728,-2.5464,-2.52,-2.5031,-2.4786,-2.454,-2.455,-2.455,-2.454,-2.454,-2.454,-2.454,-2.4509,-2.4402,-2.418,-2.3737,-2.3408,-2.322,-2.2857,-2.2635,-2.2605,-2.2757,-2.2818,-2.2859,-2.301,-2.3151,-2.3381,-2.361,-2.3769,-2.3996,-2.4222,-2.4502,-2.4803,-2.5338,-2.5865,-2.6505,-2.7046,-2.7651,-2.839,-2.8736,-2.8934,-2.9155,-2.9424,-2.9743,-2.9973,-3.0254,-3.0457,-3.0622,-3.0685,-3.0761,-3.0911,-3.0911,-3.0986,-3.1198,-3.1259,-3.0956,-3.0771,-3.0618,-3.0503,-3.0104,-2.9934,-2.9923,-2.9896,-2.9832,-2.955,-2.8452,-2.8544,-2.8516,-2.8714,-2.9452,-3.0058,-3.0837,-3.1718,-3.269,-3.3528,-3.3988,-3.4346,-3.4616,-3.4949,-3.5264,-3.5589,-3.5894,-3.6148,-3.6274,-3.6414,-3.6554,-2.6452,-2.6157,-2.5983,-2.5895,-2.5895,-2.5895,-2.5895,-2.5895,-2.5895,-2.5895,-2.5895,-2.5895,-2.5895,-2.5895,-2.5895,-2.5895,-2.5895,-2.5895,-2.5895,-2.5895,-2.5895,-2.5895,-2.5895,-2.5895,-2.5895,-2.5895,-2.5895,-2.5895,-2.5895,-2.5812,-2.5644,-2.5464,-2.5211,-2.4946,-2.4786,-2.4615,-2.454,-2.469,-2.4775,-2.4786,-2.4956,-2.4946,-2.4871,-2.4775,-2.4385,-2.4132,-2.4047,-2.3893,-2.3678,-2.3484,-2.3474,-2.3412,-2.3144,-2.3265,-2.3496,-2.3737,-2.3956,-2.4205,-2.4364,-2.4601,-2.506,-2.5837,-2.6108,-2.6618,-2.7446,-2.7905,-2.8318,-2.8779,-2.9118,-2.9431,-2.9754,-2.9921,-3.0088,-3.0394,-3.0546,-3.0685,-3.0836,-3.0911,-3.0911,-3.0986,-3.1136,-3.1286,-3.1434,-3.1522,-3.1429,-3.1329,-3.1409,-3.142,-3.1388,-3.1148,-3.1017,-3.0992,-3.0801,-3.0433,-3.0105,-2.9888,-2.9888,-2.9982,-3.0429,-3.1015,-3.1758,-3.2159,-3.305,-3.3805,-3.4332,-3.4601,-3.4868,-3.5329,-3.5638,-3.5894,-3.6148,-3.6289,-3.6352,-3.6476,-3.6677,-2.6201,-2.5928,-2.5895,-2.5895,-2.5895,-2.5895,-2.5895,-2.5895,-2.5895,-2.5895,-2.5895,-2.5895,-2.5895,-2.5895,-2.5895,-2.5895,-2.5895,-2.5895,-2.5895,-2.5895,-2.5895,-2.5895,-2.5895,-2.5895,-2.5895,-2.5895,-2.5895,-2.5895,-2.5895,-2.5895,-2.5812,-2.557,-2.538,-2.5211,-2.5031,-2.4786,-2.4786,-2.4956,-2.5031,-2.502,-2.52,-2.52,-2.52,-2.52,-2.4871,-2.47,-2.47,-2.47,-2.4671,-2.4378,-2.4336,-2.42,-2.3907,-2.403,-2.4275,-2.4427,-2.4692,-2.4912,-2.5084,-2.5314,-2.5859,-2.6657,-2.6863,-2.7357,-2.8235,-2.8498,-2.8816,-2.9131,-2.9456,-2.9677,-3.0062,-3.0228,-3.0394,-3.0698,-3.0773,-3.0849,-3.0986,-3.1061,-3.1136,-3.1211,-3.1286,-3.1522,-3.1656,-3.1743,-3.1803,-3.1877,-3.2009,-3.2228,-3.2304,-3.2129,-3.1969,-3.2055,-3.1723,-3.1544,-3.1406,-3.1337,-3.0856,-3.0855,-3.1251,-3.187,-3.2326,-3.2755,-3.3297,-3.4105,-3.4601,-3.4868,-3.5184,-3.5638,-3.5894,-3.6148,-3.6274,-3.6352,-3.6476,-3.6585,-3.6723,-2.5906,-2.5895,-2.5895,-2.5895,-2.5895,-2.5895,-2.5895,-2.5895,-2.5895,-2.5895,-2.5895,-2.5895,-2.5895,-2.5895,-2.5895,-2.5895,-2.5895,-2.5895,-2.5895,-2.5895,-2.5895,-2.5895,-2.5895,-2.5895,-2.5895,-2.5895,-2.5895,-2.5895,-2.5895,-2.5906,-2.5812,-2.5644,-2.557,-2.5475,-2.52,-2.52,-2.52,-2.52,-2.52,-2.52,-2.52,-2.5285,-2.5285,-2.5285,-2.52,-2.52,-2.5189,-2.52,-2.5094,-2.5168,-2.5158,-2.5179,-2.5094,-2.5357,-2.5589,-2.5525,-2.5924,-2.6113,-2.6163,-2.6532,-2.6803,-2.7197,-2.758,-2.7971,-2.8395,-2.8724,-2.904,-2.9353,-2.9677,-2.9934,-3.0292,-3.0533,-3.0698,-3.0698,-3.0836,-3.0986,-3.1061,-3.1198,-3.136,-3.1522,-3.1596,-3.1669,-3.189,-3.2023,-3.2155,-3.2359,-3.2489,-3.2632,-3.2632,-3.2607,-3.2662,-3.2648,-3.2526,-3.2402,-3.261,-3.2735,-3.2041,-3.1542,-3.2066,-3.2565,-3.2897,-3.3218,-3.3811,-3.4467,-3.4868,-3.5184,-3.5509,-3.5894,-3.607,-3.6258,-3.6352,-3.6492,-3.6538,-3.6662,-3.6846,-2.5895,-2.5895,-2.5895,-2.5895,-2.5895,-2.5895,-2.5895,-2.5895,-2.5895,-2.5895,-2.5895,-2.5895,-2.5895,-2.5895,-2.5895,-2.5895,-2.5895,-2.5895,-2.5895,-2.5895,-2.5895,-2.5895,-2.5895,-2.5895,-2.5895,-2.5895,-2.5895,-2.5906,-2.5928,-2.5928,-2.5822,-2.5812,-2.5665,-2.5559,-2.5497,-2.5285,-2.5285,-2.5464,-2.5475,-2.5559,-2.5633,-2.5728,-2.5717,-2.5717,-2.5812,-2.5895,-2.5884,-2.5454,-2.5189,-2.52,-2.52,-2.5285,-2.5464,-2.5644,-2.5906,-2.5979,-2.6313,-2.6561,-2.6727,-2.6962,-2.729,-2.7626,-2.803,-2.8431,-2.8724,-2.9028,-2.9353,-2.9599,-2.9856,-3.0152,-3.0533,-3.0622,-3.0773,-3.0911,-3.0986,-3.1061,-3.1211,-3.136,-3.1582,-3.1757,-3.1817,-3.195,-3.2141,-3.2286,-3.2431,-3.2561,-3.2704,-3.2775,-3.2846,-3.2917,-3.3002,-3.3086,-3.3086,-3.3072,-3.3157,-3.3227,-3.2946,-3.2553,-3.2845,-3.3149,-3.3414,-3.3719,-3.4245,-3.4735,-3.5118,-3.5509,-3.5831,-3.6085,-3.6211,-3.6336,-3.6429,-3.6554,-3.66,-3.6723,-3.6923,-2.5895,-2.5895,-2.5895,-2.5895,-2.5895,-2.5895,-2.5895,-2.5895,-2.5895,-2.5895,-2.5895,-2.5895,-2.5895,-2.5895,-2.5895,-2.5895,-2.5895,-2.5895,-2.5895,-2.5895,-2.5895,-2.5895,-2.5895,-2.5895,-2.6026,-2.6157,-2.6168,-2.6267,-2.642,-2.642,-2.6431,-2.642,-2.6086,-2.601,-2.5977,-2.5635,-2.5559,-2.5738,-2.5812,-2.5895,-2.599,-2.6063,-2.6146,-2.6146,-2.6313,-2.6313,-2.6313,-2.5957,-2.5706,-2.5706,-2.5706,-2.5801,-2.5979,-2.6063,-2.6229,-2.6396,-2.6633,-2.688,-2.7044,-2.729,-2.7615,-2.803,-2.8351,-2.8657,-2.8961,-2.9353,-2.9689,-2.9856,-3.0164,-3.0381,-3.0622,-3.0836,-3.0986,-3.1136,-3.1136,-3.1211,-3.1434,-3.1596,-3.1817,-3.1963,-3.2023,-3.2141,-3.2345,-3.2561,-3.2632,-3.2775,-3.2917,-3.3072,-3.3213,-3.3283,-3.3382,-3.3466,-3.3521,-3.3521,-3.3536,-3.3605,-3.3675,-3.3561,-3.3602,-3.3794,-3.3959,-3.4163,-3.4616,-3.5082,-3.5474,-3.5703,-3.6022,-3.6226,-3.6352,-3.6429,-3.6492,-3.6538,-3.6662,-3.6877,-3.6999,-2.5895,-2.5895,-2.5895,-2.5895,-2.5895,-2.5895,-2.5895,-2.5895,-2.5895,-2.5895,-2.5895,-2.5895,-2.5895,-2.5895,-2.5895,-2.5895,-2.5895,-2.5895,-2.5895,-2.5895,-2.5906,-2.5928,-2.6016,-2.6026,-2.6256,-2.6616,-2.666,-2.6867,-2.713,-2.7151,-2.7304,-2.7162,-2.6824,-2.666,-2.6519,-2.6212,-2.6059,-2.6026,-2.6162,-2.6318,-2.6252,-2.6479,-2.6561,-2.6561,-2.6644,-2.6633,-2.6633,-2.6633,-2.6633,-2.655,-2.6467,-2.6479,-2.6561,-2.6633,-2.6633,-2.6633,-2.7033,-2.7196,-2.736,-2.7696,-2.8042,-2.8431,-2.859,-2.8736,-2.9263,-2.9611,-2.9844,-3.0088,-3.047,-3.0685,-3.0849,-3.1061,-3.1272,-3.1347,-3.1347,-3.1508,-3.1817,-3.189,-3.2036,-3.2169,-3.2286,-3.2417,-3.2489,-3.2775,-3.2988,-3.3143,-3.3368,-3.3521,-3.3605,-3.366,-3.3813,-3.3813,-3.3744,-3.3744,-3.3744,-3.3799,-3.3882,-3.3937,-3.402,-3.4225,-3.4346,-3.4549,-3.4868,-3.5344,-3.5683,-3.5973,-3.6148,-3.6352,-3.6414,-3.6492,-3.6554,-3.66,-3.6739,-3.6938,-3.7121,-2.5895,-2.5895,-2.5895,-2.5895,-2.5895,-2.5895,-2.5895,-2.5895,-2.5895,-2.5895,-2.5895,-2.5895,-2.5895,-2.5895,-2.5895,-2.5895,-2.5895,-2.5895,-2.5895,-2.5895,-2.5895,-2.6125,-2.6365,-2.6441,-2.6682,-2.7075,-2.714,-2.7195,-2.7304,-2.7392,-2.737,-2.7304,-2.7239,-2.713,-2.7086,-2.7162,-2.7006,-2.672,-2.6941,-2.6836,-2.6534,-2.6584,-2.6644,-2.6644,-2.6869,-2.7033,-2.7115,-2.7383,-2.7219,-2.6644,-2.6644,-2.6644,-2.6644,-2.6869,-2.7033,-2.7115,-2.7464,-2.7708,-2.7788,-2.8111,-2.8351,-2.851,-2.8895,-2.9197,-2.9341,-2.9754,-3.0075,-3.0305,-3.0533,-3.0849,-3.1061,-3.1272,-3.1421,-3.1656,-3.173,-3.1803,-3.1877,-3.2082,-3.2286,-3.2345,-3.2489,-3.2618,-3.2846,-3.3002,-3.3297,-3.3452,-3.3591,-3.3813,-3.3813,-3.3882,-3.3951,-3.3882,-3.3882,-3.3896,-3.3882,-3.4005,-3.4074,-3.4128,-3.4278,-3.4496,-3.4616,-3.4817,-3.5133,-3.5574,-3.5797,-3.6037,-3.6226,-3.6352,-3.6429,-3.6492,-3.66,-3.6662,-3.6846,-3.7044,-3.7225,-2.5895,-2.5895,-2.5895,-2.5895,-2.5895,-2.5895,-2.5895,-2.5895,-2.5895,-2.5895,-2.5895,-2.5895,-2.5895,-2.5895,-2.5895,-2.5895,-2.5895,-2.5895,-2.5895,-2.5939,-2.6125,-2.6365,-2.6605,-2.678,-2.7162,-2.7577,-2.7621,-2.7752,-2.7905,-2.7916,-2.7916,-2.7905,-2.7798,-2.7799,-2.7766,-2.7756,-2.7754,-2.7476,-2.7592,-2.755,-2.7254,-2.7292,-2.7227,-2.7206,-2.7371,-2.7522,-2.7534,-2.7788,-2.7638,-2.7219,-2.7138,-2.7138,-2.7138,-2.7383,-2.7452,-2.7534,-2.7869,-2.803,-2.8191,-2.8431,-2.8724,-2.8882,-2.9275,-2.9509,-2.9741,-3.0062,-3.0292,-3.0533,-3.0761,-3.1061,-3.1272,-3.1421,-3.1716,-3.2009,-3.2082,-3.2082,-3.2082,-3.2273,-3.2417,-3.2561,-3.2704,-3.2917,-3.3072,-3.3297,-3.3536,-3.3689,-3.3868,-3.3937,-3.4005,-3.4005,-3.4088,-3.4088,-3.4088,-3.4157,-3.4225,-3.4278,-3.4346,-3.4414,-3.4534,-3.475,-3.4883,-3.5082,-3.5409,-3.5718,-3.5925,-3.6052,-3.6226,-3.6414,-3.6429,-3.6554,-3.66,-3.6785,-3.6923,-3.7165,-3.7329,-2.5895,-2.5895,-2.5895,-2.5895,-2.5895,-2.5895,-2.5895,-2.5895,-2.5895,-2.5895,-2.5895,-2.5895,-2.5895,-2.5895,-2.5895,-2.5895,-2.5895,-2.5979,-2.6056,-2.6231,-2.6538,-2.6867,-2.7053,-2.725,-2.7654,-2.8047,-2.8112,-2.832,-2.8506,-2.874,-2.8806,-2.8734,-2.8528,-2.8497,-2.851,-2.8366,-2.8296,-2.8305,-2.8457,-2.8465,-2.8234,-2.8286,-2.8184,-2.7953,-2.7904,-2.8042,-2.8042,-2.8122,-2.8042,-2.8042,-2.7973,-2.78,-2.7881,-2.7893,-2.7973,-2.8042,-2.8179,-2.8419,-2.8578,-2.8803,-2.9028,-2.9275,-2.9419,-2.9586,-2.9985,-3.0305,-3.052,-3.0698,-3.1061,-3.1272,-3.1421,-3.173,-3.2009,-3.2273,-3.2345,-3.2417,-3.2489,-3.2475,-3.2547,-3.2704,-3.2917,-3.3143,-3.3312,-3.3536,-3.3744,-3.3868,-3.4074,-3.421,-3.4278,-3.4332,-3.4414,-3.4481,-3.4481,-3.4467,-3.4549,-3.4616,-3.4683,-3.475,-3.4883,-3.5082,-3.5213,-3.5409,-3.5668,-3.5861,-3.5973,-3.6163,-3.6429,-3.6492,-3.6492,-3.6554,-3.6677,-3.68,-3.6984,-3.7225,-3.7389,-2.5895,-2.5895,-2.5895,-2.5895,-2.5895,-2.5895,-2.5895,-2.5895,-2.5895,-2.5906,-2.5895,-2.5895,-2.5895,-2.5895,-2.5979,-2.5895,-2.5979,-2.6085,-2.6417,-2.7041,-2.7464,-2.7921,-2.8099,-2.803,-2.8134,-2.8565,-2.8582,-2.8648,-2.8839,-2.8943,-2.9035,-2.9002,-2.919,-2.9226,-2.9261,-2.9331,-2.9431,-2.9224,-2.9397,-2.9306,-2.9168,-2.9136,-2.8998,-2.868,-2.8441,-2.8546,-2.8828,-2.8816,-2.8816,-2.8736,-2.8271,-2.8042,-2.8042,-2.8203,-2.8351,-2.8431,-2.8669,-2.8895,-2.8973,-2.9118,-2.9263,-2.9419,-2.9754,-2.9998,-3.0075,-3.047,-3.0685,-3.0911,-3.1198,-3.1434,-3.173,-3.2082,-3.2286,-3.2417,-3.2561,-3.2789,-3.3016,-3.2931,-3.2917,-3.3157,-3.3297,-3.3521,-3.3758,-3.3868,-3.3991,-3.4059,-3.4264,-3.4481,-3.4616,-3.4668,-3.4668,-3.4683,-3.4668,-3.4668,-3.4668,-3.4817,-3.4883,-3.5016,-3.5213,-3.5329,-3.5459,-3.5653,-3.5846,-3.5973,-3.6085,-3.6289,-3.6492,-3.6492,-3.6492,-3.6616,-3.6739,-3.6862,-3.7044,-3.7285,-3.7464,-2.5895,-2.5895,-2.5895,-2.5895,-2.5895,-2.5895,-2.5979,-2.6074,-2.6063,-2.6146,-2.6229,-2.6229,-2.6229,-2.6229,-2.6229,-2.6229,-2.6229,-2.6335,-2.6881,-2.7525,-2.7939,-2.841,-2.9004,-2.8934,-2.8896,-2.9106,-2.9106,-2.9117,-2.9209,-2.9209,-2.9301,-2.9312,-2.96,-2.9738,-2.9852,-3.0045,-3.0168,-3.0175,-3.0283,-3.0203,-2.9942,-3.0008,-3.0025,-2.9677,-2.9428,-2.9285,-2.9457,-2.9162,-2.9089,-2.8986,-2.8749,-2.8431,-2.8498,-2.8657,-2.8749,-2.8816,-2.8973,-2.9131,-2.9275,-2.9341,-2.9496,-2.9741,-2.9985,-3.0152,-3.0305,-3.0622,-3.0836,-3.1136,-3.136,-3.1643,-3.2082,-3.2286,-3.2417,-3.2704,-3.286,-3.3086,-3.3312,-3.3297,-3.3297,-3.3521,-3.3675,-3.3813,-3.3937,-3.4128,-3.4278,-3.4414,-3.452,-3.4735,-3.475,-3.4802,-3.4802,-3.4868,-3.4868,-3.4868,-3.4868,-3.5016,-3.5162,-3.5279,-3.5394,-3.5524,-3.5638,-3.5831,-3.6006,-3.607,-3.6148,-3.6289,-3.6429,-3.6492,-3.6554,-3.6677,-3.68,-3.6923,-3.7165,-3.7405,-3.7583,-2.5979,-2.5979,-2.5979,-2.5979,-2.5979,-2.6063,-2.6146,-2.624,-2.624,-2.6396,-2.6561,-2.6644,-2.6561,-2.6644,-2.6644,-2.6633,-2.6715,-2.6772,-2.7261,-2.8207,-2.8309,-2.8922,-2.9579,-2.9795,-2.9704,-2.976,-2.9485,-2.9485,-2.9485,-2.9566,-2.9669,-2.9669,-2.9966,-3.0159,-3.0318,-3.0487,-3.0734,-3.089,-3.0968,-3.1003,-3.0811,-3.0987,-3.1065,-3.0805,-3.0372,-3.0183,-3.0165,-2.9893,-2.9492,-2.9357,-2.9332,-2.9361,-2.9287,-2.9197,-2.9131,-2.9131,-2.9209,-2.9365,-2.9509,-2.9586,-2.9754,-3.0152,-3.0228,-3.0305,-3.0622,-3.0773,-3.0986,-3.1272,-3.1569,-3.1936,-3.2345,-3.2574,-3.2704,-3.3002,-3.3241,-3.3466,-3.3605,-3.3521,-3.366,-3.3813,-3.3951,-3.4088,-3.421,-3.4414,-3.4563,-3.4712,-3.4898,-3.4949,-3.4964,-3.503,-3.5096,-3.5082,-3.5148,-3.5198,-3.5249,-3.5264,-3.5409,-3.5539,-3.5653,-3.5703,-3.5831,-3.5943,-3.607,-3.6148,-3.6274,-3.6352,-3.6476,-3.6538,-3.66,-3.6723,-3.6846,-3.7029,-3.727,-3.7508,-3.77,-2.6479,-2.6479,-2.6467,-2.6479,-2.6467,-2.6479,-2.6479,-2.6561,-2.6561,-2.6561,-2.6633,-2.6644,-2.6727,-2.6809,-2.6891,-2.7044,-2.7278,-2.7406,-2.7951,-2.8858,-2.913,-2.9689,-3.0435,-3.0566,-3.0668,-3.0499,-3.0045,-2.9669,-2.976,-2.9852,-3.0125,-3.0227,-3.051,-3.0793,-3.0883,-3.0972,-3.105,-3.1318,-3.1496,-3.1565,-3.168,-3.1882,-3.1958,-3.167,-3.1245,-3.1078,-3.1098,-3.1066,-3.0909,-3.0678,-3.0615,-3.0441,-3.02,-2.9764,-2.9506,-2.9431,-2.9599,-2.9779,-2.9921,-2.9998,-3.0062,-3.0305,-3.0457,-3.0546,-3.0773,-3.0986,-3.1272,-3.1582,-3.1936,-3.2286,-3.2417,-3.2803,-3.31,-3.3312,-3.3605,-3.3813,-3.4005,-3.4131,-3.4229,-3.434,-3.4365,-3.4433,-3.4724,-3.4932,-3.5154,-3.5377,-3.5488,-3.5489,-3.537,-3.5442,-3.5448,-3.5484,-3.5439,-3.5539,-3.5574,-3.5638,-3.5653,-3.5782,-3.591,-3.5958,-3.6022,-3.6148,-3.6211,-3.6274,-3.6352,-3.6429,-3.6554,-3.66,-3.6723,-3.6785,-3.6952,-3.7194,-3.7389,-3.7583,-3.7759,-2.6644,-2.6644,-2.6644,-2.6644,-2.6727,-2.6727,-2.688,-2.7044,-2.7033,-2.7103,-2.7115,-2.7208,-2.729,-2.736,-2.7534,-2.7777,-2.7926,-2.8018,-2.8537,-2.9237,-2.9629,-3.0117,-3.0914,-3.1027,-3.1258,-3.1205,-3.0859,-3.0487,-3.0318,-3.0499,-3.0589,-3.0679,-3.0883,-3.1062,-3.1318,-3.1318,-3.1596,-3.1761,-3.2025,-3.2125,-3.2213,-3.2475,-3.2451,-3.2446,-3.2164,-3.1958,-3.194,-3.1813,-3.169,-3.1541,-3.1478,-3.1404,-3.1212,-3.0968,-3.0542,-3.0125,-3.0036,-3.0177,-3.0228,-3.0216,-3.0368,-3.052,-3.0685,-3.0761,-3.0986,-3.1198,-3.1508,-3.1877,-3.2155,-3.2561,-3.2874,-3.3171,-3.3382,-3.3605,-3.398,-3.4171,-3.4351,-3.484,-3.4971,-3.4971,-3.4864,-3.5058,-3.5375,-3.5598,-3.5739,-3.5963,-3.6201,-3.6119,-3.5896,-3.5983,-3.6084,-3.5874,-3.5909,-3.5883,-3.5937,-3.5876,-3.591,-3.6037,-3.61,-3.6211,-3.6274,-3.6336,-3.6399,-3.6538,-3.6554,-3.6569,-3.66,-3.6662,-3.6769,-3.6892,-3.7074,-3.7254,-3.7449,-3.7642,-3.7833,-2.6891,-2.6891,-2.6891,-2.6974,-2.7067,-2.7056,-2.729,-2.7603,-2.7603,-2.7649,-2.7706,-2.7914,-2.7914,-2.7959,-2.8223,-2.8578,-2.8657,-2.8724,-2.9064,-2.9573,-3.0107,-3.0544,-3.1015,-3.1252,-3.1565,-3.1837,-3.1785,-3.1584,-3.1139,-3.1139,-3.1229,-3.1229,-3.1241,-3.1419,-3.1761,-3.1849,-3.2125,-3.23,-3.2475,-3.2487,-3.2562,-3.2736,-3.2896,-3.3154,-3.287,-3.2739,-3.2771,-3.2644,-3.2431,-3.2358,-3.2281,-3.231,-3.2207,-3.2195,-3.1782,-3.1048,-3.0791,-3.0727,-3.0624,-3.0637,-3.0714,-3.0799,-3.0773,-3.0986,-3.1198,-3.1421,-3.173,-3.2169,-3.2431,-3.2704,-3.3157,-3.3382,-3.3605,-3.3994,-3.4408,-3.4714,-3.5039,-3.5439,-3.604,-3.5893,-3.5577,-3.5777,-3.6206,-3.6387,-3.6641,-3.6753,-3.6993,-3.7015,-3.6887,-3.6923,-3.6869,-3.6476,-3.6345,-3.6353,-3.6295,-3.6128,-3.6209,-3.6289,-3.6352,-3.6414,-3.6476,-3.6554,-3.6647,-3.6847,-3.6739,-3.6754,-3.6723,-3.6785,-3.6952,-3.7058,-3.7178,-3.7373,-3.7583,-3.7881,-3.812,-2.7719,-2.7719,-2.7731,-2.7719,-2.78,-2.78,-2.7869,-2.8087,-2.8167,-2.8131,-2.814,-2.8303,-2.845,-2.8573,-2.9003,-2.9263,-2.9341,-2.9521,-2.9758,-3.0256,-3.0735,-3.115,-3.1551,-3.1858,-3.2092,-3.2289,-3.2475,-3.215,-3.1849,-3.1825,-3.1813,-3.1825,-3.2025,-3.2213,-3.2201,-3.23,-3.23,-3.2475,-3.255,-3.281,-3.2995,-3.2995,-3.3154,-3.3288,-3.3382,-3.339,-3.3436,-3.3425,-3.3354,-3.3075,-3.3049,-3.2953,-3.2723,-3.2606,-3.2593,-3.2371,-3.2121,-3.1782,-3.1448,-3.141,-3.1266,-3.1146,-3.1127,-3.1211,-3.1495,-3.179,-3.2082,-3.2345,-3.2704,-3.3002,-3.3382,-3.3633,-3.3965,-3.4553,-3.5117,-3.5512,-3.5839,-3.6473,-3.6981,-3.7252,-3.7067,-3.7058,-3.7312,-3.7443,-3.7549,-3.7662,-3.776,-3.7827,-3.7773,-3.7682,-3.7709,-3.7395,-3.7216,-3.7159,-3.7226,-3.6996,-3.6921,-3.6862,-3.6909,-3.6971,-3.7173,-3.7281,-3.7126,-3.7219,-3.7156,-3.7219,-3.7466,-3.7465,-3.7259,-3.7301,-3.7591,-3.7662,-3.77,-3.8062,-3.8631,-2.8076,-2.803,-2.8111,-2.8191,-2.8419,-2.8419,-2.8498,-2.8724,-2.8791,-2.8821,-2.8773,-2.9057,-2.925,-2.9394,-2.9729,-2.9908,-3.0139,-3.0203,-3.0394,-3.0662,-3.108,-3.1394,-3.1587,-3.2223,-3.2701,-3.2717,-3.2991,-3.3154,-3.2785,-3.245,-3.2201,-3.2276,-3.2376,-3.2388,-3.2636,-3.255,-3.2636,-3.281,-3.2896,-3.3056,-3.324,-3.3326,-3.3398,-3.3543,-3.3738,-3.3823,-3.3894,-3.4063,-3.4056,-3.3866,-3.3866,-3.3871,-3.3731,-3.3679,-3.3666,-3.3666,-3.3489,-3.306,-3.2319,-3.2176,-3.1993,-3.1703,-3.1721,-3.1792,-3.185,-3.2082,-3.2431,-3.2704,-3.3002,-3.3326,-3.3733,-3.4364,-3.477,-3.5277,-3.5962,-3.6389,-3.6808,-3.759,-3.8087,-3.8292,-3.8467,-3.8451,-3.8406,-3.8424,-3.8622,-3.8849,-3.8918,-3.8857,-3.8576,-3.8233,-3.8325,-3.8369,-3.82,-3.8142,-3.8255,-3.8211,-3.8165,-3.8168,-3.8168,-3.8231,-3.8231,-3.8247,-3.8091,-3.82,-3.8435,-3.8466,-3.8416,-3.7991,-3.7553,-3.7733,-3.7959,-3.8221,-3.8515,-3.9145,-3.9731,-2.8277,-2.8452,-2.8426,-2.8645,-2.8961,-2.8961,-2.9118,-2.9365,-2.9509,-2.9561,-2.9704,-2.9973,-3.0228,-3.0292,-3.0368,-3.0609,-3.0836,-3.0924,-3.0924,-3.1107,-3.1343,-3.1604,-3.1757,-3.2413,-3.2859,-3.307,-3.3373,-3.3643,-3.3615,-3.33,-3.297,-3.2736,-3.281,-3.2884,-3.297,-3.297,-3.3056,-3.3227,-3.3227,-3.3313,-3.3484,-3.3484,-3.3641,-3.381,-3.3979,-3.416,-3.416,-3.4327,-3.4384,-3.4358,-3.4332,-3.4293,-3.4254,-3.431,-3.4323,-3.4406,-3.4393,-3.4117,-3.35,-3.3172,-3.287,-3.2526,-3.2256,-3.2217,-3.225,-3.2359,-3.2646,-3.3002,-3.3466,-3.3846,-3.4309,-3.5102,-3.5587,-3.6157,-3.6872,-3.7233,-3.7709,-3.8397,-3.8967,-3.9103,-3.9379,-3.9716,-3.9625,-3.9581,-3.9688,-3.9984,-4.0015,-3.9932,-3.9543,-3.9097,-3.9216,-3.9451,-3.9237,-3.9113,-3.9131,-3.9245,-3.9294,-3.9311,-3.9311,-3.9266,-3.9172,-3.9172,-3.9078,-3.933,-3.9566,-3.9454,-3.9229,-3.8521,-3.797,-3.8515,-3.8998,-3.9166,-3.9526,-4.0252,-4.0815,-2.8448,-2.9151,-2.9052,-2.9184,-2.9341,-2.9341,-2.9599,-3.0011,-3.0075,-3.0343,-3.0763,-3.1117,-3.1065,-3.1013,-3.1123,-3.1198,-3.1272,-3.1447,-3.1522,-3.1633,-3.1902,-3.1998,-3.2082,-3.2215,-3.2603,-3.3245,-3.3587,-3.3901,-3.4254,-3.4158,-3.3817,-3.3641,-3.3484,-3.3556,-3.3556,-3.3471,-3.3458,-3.3556,-3.3543,-3.3628,-3.3641,-3.3725,-3.381,-3.3992,-3.4076,-3.416,-3.4314,-3.4397,-3.4397,-3.4397,-3.4481,-3.4481,-3.4564,-3.466,-3.4756,-3.4756,-3.4825,-3.4735,-3.4565,-3.4071,-3.3715,-3.3341,-3.3051,-3.282,-3.2768,-3.2698,-3.2915,-3.3494,-3.4101,-3.4555,-3.5109,-3.5737,-3.6412,-3.6998,-3.7604,-3.8212,-3.8622,-3.9249,-3.9722,-3.9889,-4.0106,-4.0331,-4.0486,-4.0278,-4.0201,-4.0439,-4.0539,-4.0454,-4.0638,-4.0318,-4.051,-4.0567,-4.0244,-4.0056,-3.9947,-4.0016,-4.0069,-4.0054,-4.0087,-3.9977,-3.9897,-3.996,-4.0151,-4.0213,-4.0356,-4.0272,-4.0174,-3.9875,-3.9702,-3.9918,-4.0119,-4.0228,-4.0663,-4.1314,-4.1782,-2.8329,-2.9036,-2.9389,-2.9732,-3.005,-3.0139,-3.0292,-3.0457,-3.0748,-3.1075,-3.1575,-3.1763,-3.181,-3.173,-3.1776,-3.185,-3.1996,-3.2069,-3.2069,-3.2109,-3.2226,-3.2246,-3.2171,-3.2288,-3.2508,-3.3141,-3.3539,-3.4033,-3.462,-3.4526,-3.4738,-3.4528,-3.4178,-3.3979,-3.3894,-3.3894,-3.3797,-3.3713,-3.3713,-3.3797,-3.3894,-3.3979,-3.4063,-3.423,-3.4327,-3.4314,-3.4397,-3.4397,-3.4481,-3.4577,-3.466,-3.466,-3.4743,-3.4921,-3.5003,-3.5003,-3.5086,-3.5154,-3.5236,-3.4819,-3.4486,-3.4151,-3.3896,-3.3697,-3.3606,-3.3882,-3.4203,-3.4635,-3.4952,-3.5411,-3.5869,-3.6718,-3.7458,-3.7875,-3.8396,-3.8968,-3.9476,-3.9929,-4.0146,-4.0246,-4.0455,-4.0662,-4.0814,-4.0867,-4.0851,-4.083,-4.0966,-4.1018,-4.1102,-4.1252,-4.1236,-4.1355,-4.1044,-4.0999,-4.0905,-4.0909,-4.088,-4.0816,-4.0817,-4.0801,-4.0848,-4.1199,-4.1374,-4.1341,-4.1276,-4.1307,-4.1323,-4.1435,-4.1243,-4.0868,-4.0978,-4.122,-4.1801,-4.2321,-4.261,-2.8257,-2.8943,-2.936,-2.9887,-3.0387,-3.0771,-3.0911,-3.0999,-3.1286,-3.1643,-3.2096,-3.2282,-3.2341,-3.2359,-3.2417,-3.2561,-3.2632,-3.2704,-3.2704,-3.2717,-3.266,-3.2561,-3.2499,-3.2618,-3.2886,-3.332,-3.3615,-3.4099,-3.4699,-3.4556,-3.4817,-3.4915,-3.4738,-3.4423,-3.441,-3.416,-3.4063,-3.4063,-3.3979,-3.3979,-3.416,-3.416,-3.423,-3.4397,-3.4397,-3.4494,-3.4494,-3.4577,-3.4673,-3.4839,-3.4921,-3.4921,-3.5072,-3.5154,-3.5154,-3.5249,-3.5249,-3.5318,-3.5399,-3.5345,-3.5117,-3.4736,-3.458,-3.4547,-3.4713,-3.4868,-3.4969,-3.5421,-3.5796,-3.6215,-3.6707,-3.752,-3.8191,-3.8612,-3.9088,-3.9657,-3.9884,-4.0246,-4.0385,-4.0608,-4.0746,-4.095,-4.1138,-4.1221,-4.1221,-4.1153,-4.1138,-4.1272,-4.1437,-4.1503,-4.1554,-4.1604,-4.1641,-4.1722,-4.19,-4.1661,-4.1454,-4.1501,-4.155,-4.1741,-4.1949,-4.2174,-4.2302,-4.2155,-4.2185,-4.238,-4.2379,-4.2278,-4.1905,-4.1407,-4.1695,-4.2109,-4.2439,-4.2955,-4.3158,-2.8385,-2.8877,-2.8957,-2.9538,-3.0401,-3.1035,-3.1394,-3.1516,-3.1803,-3.2082,-3.2431,-3.2803,-3.2945,-3.2988,-3.3129,-3.3199,-3.3269,-3.3269,-3.3339,-3.3339,-3.3339,-3.3269,-3.3283,-3.3325,-3.3451,-3.3954,-3.4078,-3.4182,-3.4794,-3.4568,-3.4851,-3.5123,-3.4963,-3.4821,-3.5032,-3.4839,-3.4756,-3.4756,-3.4481,-3.4397,-3.4397,-3.4481,-3.4481,-3.4481,-3.4481,-3.466,-3.4743,-3.4756,-3.4921,-3.5086,-3.5072,-3.5168,-3.5168,-3.5318,-3.5399,-3.5399,-3.5562,-3.5723,-3.5723,-3.5723,-3.5546,-3.5336,-3.5288,-3.5328,-3.5119,-3.519,-3.5628,-3.6151,-3.6544,-3.7142,-3.7682,-3.8223,-3.8779,-3.9275,-3.9737,-4.0066,-4.0261,-4.0455,-4.0593,-4.0799,-4.1018,-4.1169,-4.1355,-4.1538,-4.1538,-4.1472,-4.1307,-4.1456,-4.1686,-4.1752,-4.1801,-4.1866,-4.1916,-4.2061,-4.2125,-4.2125,-4.2061,-4.2109,-4.2174,-4.2318,-4.2445,-4.2492,-4.2618,-4.2759,-4.2821,-4.2743,-4.2929,-4.3019,-4.2615,-4.2309,-4.2598,-4.2965,-4.3279,-4.3449,-4.3568,-2.8473,-2.8885,-2.924,-2.9699,-3.0201,-3.0953,-3.1357,-3.1639,-3.2154,-3.2646,-3.2945,-3.3157,-3.3368,-3.3591,-3.3716,-3.3839,-3.3839,-3.3991,-3.4059,-3.3991,-3.3977,-3.4059,-3.3991,-3.3868,-3.3982,-3.4055,-3.403,-3.4271,-3.4766,-3.4461,-3.4678,-3.4974,-3.5154,-3.514,-3.5075,-3.5003,-3.5003,-3.5003,-3.4908,-3.4908,-3.4825,-3.4825,-3.4825,-3.4812,-3.4825,-3.4908,-3.5003,-3.5003,-3.5086,-3.5318,-3.5318,-3.5399,-3.5494,-3.5562,-3.5642,-3.5817,-3.5978,-3.6058,-3.6152,-3.6138,-3.6163,-3.605,-3.6018,-3.6142,-3.6298,-3.6451,-3.6755,-3.7,-3.7414,-3.7899,-3.8429,-3.8693,-3.9118,-3.9493,-3.991,-4.0137,-4.0331,-4.0593,-4.0799,-4.1055,-4.1205,-4.1421,-4.1686,-4.1801,-4.1866,-4.1866,-4.1769,-4.1785,-4.1996,-4.1996,-4.198,-4.2061,-4.2109,-4.2254,-4.2318,-4.2381,-4.2445,-4.2429,-4.2571,-4.2713,-4.2775,-4.2759,-4.2867,-4.299,-4.299,-4.3052,-4.3174,-4.3312,-4.3388,-4.3355,-4.3372,-4.3355,-4.3432,-4.3628,-4.378,-2.8688,-2.8922,-2.932,-2.9614,-2.9938,-3.0801,-3.1405,-3.1847,-3.2388,-3.2947,-3.3423,-3.3605,-3.3744,-3.4005,-3.421,-3.4332,-3.4399,-3.4467,-3.4601,-3.4534,-3.4534,-3.4534,-3.4467,-3.4481,-3.4428,-3.4332,-3.4254,-3.4445,-3.4608,-3.4341,-3.4411,-3.4755,-3.5133,-3.5049,-3.5045,-3.509,-3.5318,-3.5236,-3.5154,-3.5072,-3.5072,-3.5072,-3.5072,-3.5072,-3.5072,-3.5072,-3.5168,-3.5249,-3.5331,-3.548,-3.5562,-3.5642,-3.5817,-3.5898,-3.5992,-3.6152,-3.6246,-3.6325,-3.6405,-3.647,-3.6522,-3.673,-3.6786,-3.6929,-3.7148,-3.7252,-3.7496,-3.7753,-3.8142,-3.8427,-3.8767,-3.9017,-3.9322,-3.9681,-3.991,-4.0207,-4.0539,-4.0799,-4.1003,-4.1189,-4.1456,-4.167,-4.1882,-4.2061,-4.2174,-4.2174,-4.2238,-4.2254,-4.219,-4.2174,-4.2238,-4.2318,-4.2381,-4.2445,-4.2571,-4.265,-4.2696,-4.2743,-4.2883,-4.2961,-4.2961,-4.2929,-4.3052,-4.3174,-4.3235,-4.3295,-4.3432,-4.3509,-4.3678,-4.3737,-4.373,-4.3671,-4.3611,-4.3747,-4.3956,-2.9135,-2.9099,-2.9162,-2.9253,-2.9575,-3.0474,-3.1428,-3.2342,-3.2412,-3.2956,-3.3825,-3.3948,-3.421,-3.4414,-3.4631,-3.4765,-3.4868,-3.4935,-3.4986,-3.4986,-3.5052,-3.4986,-3.4986,-3.4935,-3.4868,-3.4883,-3.4765,-3.4525,-3.4457,-3.4301,-3.4269,-3.4355,-3.4829,-3.4766,-3.4865,-3.5077,-3.5343,-3.5305,-3.5359,-3.5304,-3.5331,-3.5249,-3.5236,-3.5236,-3.5236,-3.5318,-3.5413,-3.5575,-3.5642,-3.5723,-3.5978,-3.6072,-3.6166,-3.6325,-3.6405,-3.6405,-3.6405,-3.6563,-3.6628,-3.6707,-3.685,-3.7084,-3.7148,-3.7148,-3.738,-3.761,-3.7853,-3.8081,-3.8292,-3.8575,-3.8797,-3.909,-3.9394,-3.9696,-3.9996,-4.0347,-4.0746,-4.095,-4.1138,-4.1339,-4.167,-4.1947,-4.2125,-4.2254,-4.2365,-4.2365,-4.2429,-4.2429,-4.2381,-4.2381,-4.2445,-4.2571,-4.2634,-4.2696,-4.2759,-4.2883,-4.2883,-4.2929,-4.3052,-4.3129,-4.3113,-4.3207,-4.3312,-4.3372,-4.3432,-4.3492,-4.3671,-4.3931,-4.4165,-4.4223,-4.444,-4.4148,-4.414,-4.4015,-4.4114,-2.9271,-2.9789,-2.9803,-2.9865,-2.9907,-3.0247,-3.0984,-3.2028,-3.2482,-3.3068,-3.3413,-3.409,-3.437,-3.4631,-3.4898,-3.5177,-3.5279,-3.5459,-3.5574,-3.5574,-3.5589,-3.5653,-3.5589,-3.5394,-3.5359,-3.5213,-3.5016,-3.4868,-3.4683,-3.4467,-3.4171,-3.4085,-3.4583,-3.458,-3.4612,-3.4905,-3.5203,-3.5374,-3.5557,-3.5615,-3.5683,-3.5629,-3.5548,-3.5548,-3.5656,-3.5737,-3.5831,-3.5992,-3.6058,-3.6152,-3.6246,-3.6325,-3.6312,-3.6391,-3.6391,-3.6628,-3.6707,-3.6836,-3.6915,-3.6993,-3.7148,-3.7394,-3.7457,-3.7625,-3.7777,-3.7853,-3.8081,-3.8292,-3.8501,-3.8797,-3.9017,-3.925,-3.9553,-3.9854,-4.0066,-4.0416,-4.083,-4.1034,-4.1221,-4.1522,-4.1866,-4.2061,-4.2254,-4.2381,-4.2508,-4.2508,-4.2555,-4.2571,-4.2571,-4.2571,-4.2571,-4.2713,-4.2837,-4.2883,-4.2929,-4.3052,-4.3052,-4.3113,-4.3317,-4.3427,-4.352,-4.3597,-4.3618,-4.3794,-4.4145,-4.4114,-4.3981,-4.439,-4.5026,-4.532,-4.5488,-4.5026,-4.4649,-4.4673,-4.4704,-2.9249,-2.9679,-3.0025,-3.0111,-3.0158,-3.0158,-3.0707,-3.1409,-3.204,-3.2594,-3.3405,-3.3914,-3.4434,-3.4883,-3.5162,-3.5424,-3.5589,-3.5703,-3.5831,-3.591,-3.6052,-3.5988,-3.5861,-3.5797,-3.5733,-3.5539,-3.5394,-3.5249,-3.5067,-3.4735,-3.4428,-3.4146,-3.4548,-3.4411,-3.437,-3.4651,-3.4941,-3.5217,-3.5424,-3.5723,-3.5864,-3.5922,-3.5951,-3.5965,-3.6152,-3.6166,-3.6246,-3.6405,-3.6405,-3.6405,-3.6484,-3.6484,-3.6549,-3.6549,-3.6693,-3.685,-3.6993,-3.707,-3.7148,-3.7303,-3.7457,-3.7534,-3.7777,-3.7853,-3.8005,-3.8142,-3.8292,-3.8441,-3.8723,-3.9017,-3.9235,-3.9466,-3.9696,-3.9996,-4.0277,-4.0555,-4.0761,-4.1049,-4.1355,-4.172,-4.198,-4.2174,-4.2365,-4.2508,-4.2571,-4.2571,-4.2634,-4.2634,-4.2696,-4.2759,-4.2775,-4.2854,-4.2961,-4.3007,-4.3146,-4.3366,-4.3415,-4.3591,-4.3878,-4.3971,-4.3982,-4.4401,-4.476,-4.4957,-4.5042,-4.5027,-4.5076,-4.5529,-4.6068,-4.6329,-4.6506,-4.6309,-4.5998,-4.5953,-4.5909,-2.907,-2.917,-2.9814,-3.0147,-3.0326,-3.0312,-3.0476,-3.0626,-3.117,-3.2135,-3.3337,-3.3724,-3.425,-3.4881,-3.532,-3.5589,-3.5782,-3.591,-3.6022,-3.6052,-3.6115,-3.6115,-3.6115,-3.6037,-3.5973,-3.591,-3.5767,-3.5524,-3.5424,-3.5162,-3.4817,-3.4481,-3.4472,-3.4355,-3.4209,-3.4482,-3.4612,-3.4608,-3.5013,-3.5426,-3.5631,-3.5977,-3.635,-3.6391,-3.6391,-3.6391,-3.6391,-3.647,-3.647,-3.6549,-3.6628,-3.6721,-3.6786,-3.685,-3.6993,-3.707,-3.7226,-3.7303,-3.738,-3.7534,-3.7701,-3.7777,-3.7929,-3.8066,-3.8217,-3.8292,-3.8441,-3.859,-3.887,-3.909,-3.9322,-3.9625,-3.9854,-4.0137,-4.0331,-4.0624,-4.0913,-4.1169,-4.1554,-4.1851,-4.2045,-4.2238,-4.2445,-4.2571,-4.2571,-4.2571,-4.2634,-4.2713,-4.2935,-4.2997,-4.3092,-4.3108,-4.3362,-4.3551,-4.3706,-4.3911,-4.3971,-4.4147,-4.4506,-4.4809,-4.497,-4.5524,-4.6118,-4.6032,-4.5909,-4.6279,-4.6481,-4.6818,-4.7012,-4.7248,-4.7449,-4.7506,-4.7461,-4.7392,-4.6994,-2.8671,-2.9154,-2.9682,-3.0103,-3.0493,-3.0628,-3.0702,-3.0776,-3.1042,-3.1599,-3.239,-3.3446,-3.4214,-3.4579,-3.5284,-3.5691,-3.591,-3.61,-3.6211,-3.6289,-3.6352,-3.6367,-3.6367,-3.6289,-3.6211,-3.6085,-3.5958,-3.5782,-3.5554,-3.5359,-3.5148,-3.4802,-3.4683,-3.4481,-3.4278,-3.4445,-3.435,-3.4227,-3.4583,-3.5162,-3.5593,-3.5626,-3.5825,-3.6249,-3.6443,-3.6601,-3.6601,-3.6772,-3.6836,-3.6915,-3.6915,-3.6915,-3.6915,-3.7162,-3.7226,-3.7303,-3.7394,-3.7457,-3.761,-3.7687,-3.7853,-3.7929,-3.8081,-3.8217,-3.8366,-3.8427,-3.8575,-3.8738,-3.8958,-3.925,-3.9466,-3.9768,-3.9996,-4.0261,-4.047,-4.0761,-4.1049,-4.1355,-4.1654,-4.1851,-4.2045,-4.2238,-4.2508,-4.2571,-4.2571,-4.2571,-4.2571,-4.2761,-4.3193,-4.3415,-4.3682,-4.3748,-4.4039,-4.4245,-4.4401,-4.4638,-4.4721,-4.5108,-4.5535,-4.5774,-4.5995,-4.6485,-4.6992,-4.6802,-4.6718,-4.7233,-4.7622,-4.7766,-4.8001,-4.8237,-4.8466,-4.8609,-4.8913,-4.8931,-4.8306,-2.8438,-2.8813,-2.9631,-3.0104,-3.0412,-3.0763,-3.0955,-3.0955,-3.1117,-3.1324,-3.1677,-3.282,-3.3702,-3.4322,-3.5115,-3.5698,-3.6009,-3.6274,-3.6414,-3.6538,-3.6616,-3.6677,-3.6616,-3.6554,-3.6538,-3.6399,-3.6148,-3.5988,-3.5748,-3.5619,-3.5394,-3.5148,-3.5016,-3.4817,-3.4601,-3.4467,-3.4278,-3.42,-3.4421,-3.4811,-3.5409,-3.5409,-3.5649,-3.6186,-3.6395,-3.6556,-3.6822,-3.6993,-3.6993,-3.7056,-3.7056,-3.7226,-3.7317,-3.738,-3.7457,-3.7471,-3.7625,-3.7701,-3.7763,-3.7839,-3.7991,-3.8066,-3.8217,-3.8441,-3.8516,-3.859,-3.8797,-3.9017,-3.925,-3.9538,-3.9681,-3.991,-4.0051,-4.0261,-4.0593,-4.0867,-4.1153,-4.1406,-4.172,-4.198,-4.2109,-4.2238,-4.2445,-4.2571,-4.2634,-4.2634,-4.2634,-4.3067,-4.3483,-4.4096,-4.4282,-4.4554,-4.4962,-4.5061,-4.5156,-4.5412,-4.5701,-4.6079,-4.6553,-4.6977,-4.7284,-4.7551,-4.7784,-4.7768,-4.7886,-4.8319,-4.8582,-4.8699,-4.9011,-4.9263,-4.9562,-4.9769,-5.0057,-5.0114,-4.9561,-2.8286,-2.85,-2.9474,-2.9982,-3.0188,-3.0704,-3.1058,-3.1117,-3.1234,-3.1351,-3.1455,-3.202,-3.314,-3.4105,-3.4925,-3.5506,-3.5951,-3.6275,-3.6523,-3.6662,-3.6662,-3.68,-3.6877,-3.6938,-3.68,-3.66,-3.6399,-3.6226,-3.5988,-3.5846,-3.5718,-3.5554,-3.5359,-3.5148,-3.4935,-3.4802,-3.4616,-3.4414,-3.4466,-3.4433,-3.4754,-3.508,-3.5557,-3.5892,-3.6141,-3.6437,-3.6789,-3.7028,-3.7028,-3.7134,-3.7226,-3.7394,-3.7548,-3.761,-3.761,-3.7701,-3.7853,-3.7915,-3.7991,-3.8052,-3.8127,-3.8277,-3.8441,-3.8516,-3.8679,-3.8826,-3.9031,-3.9322,-3.9538,-3.9768,-3.991,-4.0051,-4.0191,-4.0401,-4.073,-4.0987,-4.1256,-4.1522,-4.1785,-4.2045,-4.2174,-4.2238,-4.2429,-4.2571,-4.265,-4.265,-4.3002,-4.3516,-4.4049,-4.4844,-4.5362,-4.5735,-4.6192,-4.6208,-4.6059,-4.6383,-4.6724,-4.7032,-4.7462,-4.8039,-4.8495,-4.8555,-4.8719,-4.8984,-4.9172,-4.9213,-4.9382,-4.9533,-4.9879,-5.0028,-5.0119,-5.0171,-5.0228,-5.0285,-5.038,-2.8324,-2.8457,-2.8725,-2.9317,-3.0083,-3.0362,-3.0745,-3.1248,-3.1409,-3.1467,-3.1569,-3.179,-3.2389,-3.3186,-3.4516,-3.5262,-3.563,-3.6137,-3.6569,-3.6662,-3.6785,-3.6862,-3.6999,-3.706,-3.6862,-3.6723,-3.6585,-3.6461,-3.6226,-3.6148,-3.5943,-3.5703,-3.5554,-3.5359,-3.5148,-3.4949,-3.4817,-3.4683,-3.4549,-3.4559,-3.4361,-3.4767,-3.5224,-3.5693,-3.6351,-3.6579,-3.6878,-3.7291,-3.7386,-3.7534,-3.7534,-3.7548,-3.7701,-3.7763,-3.7853,-3.7839,-3.7991,-3.8066,-3.8127,-3.8202,-3.8277,-3.8366,-3.8516,-3.8738,-3.89,-3.9207,-3.9409,-3.961,-3.9839,-3.991,-4.0051,-4.0191,-4.0401,-4.0662,-4.0987,-4.1256,-4.1456,-4.1588,-4.172,-4.198,-4.2109,-4.2302,-4.2508,-4.2587,-4.2636,-4.2891,-4.3423,-4.3891,-4.4571,-4.5417,-4.63,-4.6822,-4.7248,-4.7215,-4.7048,-4.7554,-4.7897,-4.8174,-4.8349,-4.8641,-4.8944,-4.9239,-4.9411,-4.9471,-4.9649,-4.9664,-4.9884,-4.9999,-5.0171,-5.025,-5.0324,-5.0341,-5.0453,-5.0526,-5.0564]}]]